GFSGL_sfc_temp_000.txt.gz
Temp
61 61 60 61 62 62 62 63 63 63 63 63 63 63 63 62 64 64 66 66 65 66 66 65 65 66 65 64 63 63 61 60 56 60 63 61 52 50 50 50 51 51 53
60 60 59 60 59 58 59 60 61 61 63 63 64 64 64 63 63 61 63 64 63 63 64 64 65 66 64 64 63 62 61 62 58 56 60 58 51 48 49 47 49 52 50
59 58 57 57 56 56 57 59 61 60 61 61 62 61 62 63 63 63 63 63 63 63 63 63 64 64 63 64 63 62 62 61 60 57 57 59 50 48 46 47 46 48 49
57 55 55 55 55 56 57 58 58 59 59 59 60 61 61 62 62 62 63 60 58 61 61 61 62 62 63 64 63 61 60 59 59 57 57 56 46 45 46 45 42 45 44
55 54 54 54 55 55 55 56 57 57 58 58 59 59 60 60 63 59 59 59 57 58 59 60 60 59 55 58 61 61 60 58 58 56 55 51 44 41 42 44 44 43 43
52 53 54 54 54 53 53 54 55 55 56 56 57 57 57 60 57 56 56 56 56 55 55 57 59 55 57 57 56 55 58 58 57 57 55 52 50 49 45 44 43 38 36
51 52 52 52 51 51 52 52 52 52 53 53 54 55 55 56 56 56 53 53 54 54 54 55 56 58 55 57 58 56 54 55 55 57 55 54 53 51 47 43 43 40 36
49 49 49 49 49 50 50 50 50 51 51 52 53 53 53 55 54 52 51 54 52 52 52 53 55 55 56 56 56 55 57 57 56 55 56 56 56 54 49 47 43 35 33
46 46 47 47 47 47 47 47 48 49 49 50 52 52 52 53 52 51 52 51 50 50 53 54 54 53 53 53 51 52 54 55 47 49 51 52 52 50 47 40 35 34 30
44 45 46 46 46 45 45 46 47 48 49 50 50 51 52 50 51 51 51 50 47 48 49 49 50 50 51 51 50 49 49 52 42 40 41 44 45 45 45 43 37 35 31
44 44 44 45 44 45 45 45 45 46 47 47 47 49 48 48 49 51 51 49 47 45 44 46 48 49 48 49 48 47 47 51 43 39 37 35 35 34 35 35 36 36 31
43 42 42 43 44 45 42 43 43 43 43 44 45 45 47 47 49 49 49 49 48 43 42 44 46 46 46 46 47 48 48 48 38 35 33 33 32 32 32 33 33 32 33
40 40 40 41 41 42 40 40 40 41 41 42 42 41 41 44 45 47 48 48 46 43 43 44 45 45 45 46 46 47 47 40 36 33 33 32 32 32 32 31 31 31 31
37 37 38 38 39 39 40 40 39 39 39 40 39 38 38 40 41 43 44 44 44 42 43 44 45 46 47 45 45 44 37 36 35 35 33 32 32 30 29 30 28 28 27
37 37 37 37 37 37 38 38 38 40 41 39 38 38 37 37 40 45 44 42 41 42 43 43 41 40 40 40 37 34 34 35 33 32 31 30 30 30 28 29 28 28 28
35 35 35 35 35 35 35 36 41 42 42 42 42 42 42 44 44 44 43 43 43 44 41 39 37 36 36 36 34 32 32 32 31 31 30 29 29 28 28 28 28 28 27
33 34 34 35 34 33 34 33 31 36 40 41 42 42 42 42 43 42 42 42 42 43 37 36 35 34 34 35 33 32 31 30 30 29 29 29 28 28 28 27 28 28 25
34 37 33 32 32 32 32 32 32 31 31 33 39 40 41 41 41 41 41 40 36 37 35 34 34 34 33 33 33 32 29 29 29 29 29 28 28 27 27 26 27 24 23
33 32 32 32 32 33 33 32 32 32 32 32 33 36 38 39 40 39 39 33 32 33 33 34 34 34 33 33 32 30 30 29 29 28 28 28 28 27 27 27 26 29 26
32 35 35 32 31 31 31 30 30 30 31 32 30 30 33 34 31 31 31 31 31 31 33 33 34 34 33 32 31 29 29 30 28 28 28 28 28 28 28 26 25 23 22
31 31 34 31 30 30 30 29 29 29 29 29 29 32 37 33 29 29 30 30 30 31 32 33 33 33 33 33 30 29 29 28 28 28 28 28 28 27 27 26 24 24 21
31 30 30 29 30 29 29 30 30 30 29 29 30 31 35 31 28 28 29 30 30 33 33 33 33 33 33 32 31 30 29 28 28 28 28 27 27 27 26 24 24 21 17
30 29 29 29 29 31 29 29 29 29 29 29 29 30 30 29 29 28 29 29 31 32 33 33 33 33 33 32 31 31 29 28 28 29 28 27 27 25 24 23 21 18 18
29 29 29 29 29 30 29 27 28 30 30 29 30 30 29 29 29 29 28 28 29 31 31 30 32 32 32 32 31 31 30 30 30 29 28 27 26 26 24 19 18 16 15
30 28 28 28 27 27 27 27 27 28 28 28 29 30 29 29 28 27 27 27 28 29 28 29 32 32 32 31 30 30 30 31 30 29 28 28 26 23 19 18 18 16 15
29 28 28 28 27 27 26 25 24 24 24 26 28 27 27 27 27 24 25 27 29 27 27 28 31 32 31 30 30 30 32 32 31 31 30 27 25 21 19 18 16 17 14

GFSGL_sfc_temp_003.txt.gz
Temp
57 57 56 56 56 57 57 57 58 59 59 60 60 60 60 60 60 60 60 60 60 60 61 60 61 62 62 62 62 62 60 59 55 60 63 64 54 57 53 54 55 55 55
55 54 54 54 54 54 55 56 58 57 58 58 59 58 59 59 60 59 59 60 59 59 59 59 59 61 59 61 60 60 61 60 58 56 60 60 55 52 55 51 52 53 52
54 53 53 53 53 52 53 55 56 57 57 57 57 57 58 58 58 59 59 59 58 60 57 57 58 58 58 58 59 58 59 60 60 58 57 60 59 48 46 47 47 48 49
52 51 51 51 52 52 53 54 54 55 55 55 56 56 57 57 57 58 56 56 56 56 56 56 57 57 56 57 57 57 58 57 57 57 57 57 58 48 49 49 43 45 45
49 49 49 49 50 51 51 51 52 53 53 54 54 54 55 56 58 55 55 55 53 52 53 55 56 55 52 54 55 55 55 54 55 55 55 56 55 44 44 46 47 46 44
47 47 48 48 48 48 48 49 50 50 50 51 51 51 52 55 54 54 54 52 53 51 51 52 53 52 54 55 55 54 54 53 53 53 54 53 54 53 51 48 47 40 38
45 46 46 46 46 46 47 47 47 47 48 48 48 50 50 51 54 54 53 53 51 49 49 49 50 55 53 55 54 53 54 54 54 53 52 53 53 55 54 51 48 46 44
43 43 44 44 44 45 45 44 44 45 45 46 47 48 48 51 52 52 51 50 48 48 48 48 49 48 49 49 50 49 49 51 53 54 54 55 56 56 55 53 50 41 34
40 41 42 42 42 42 42 42 43 44 44 45 46 47 46 48 50 50 50 48 47 47 48 47 47 46 49 49 47 45 46 47 50 51 49 48 49 51 52 42 36 36 32
39 40 41 41 41 40 40 41 42 42 43 44 44 45 47 47 47 48 48 47 44 45 44 45 47 47 48 48 45 43 41 43 45 47 48 49 45 47 50 48 45 39 32
39 40 40 40 39 40 40 40 40 40 41 40 41 43 43 44 44 47 47 45 43 43 42 42 43 46 46 46 47 45 44 46 45 45 45 37 35 35 35 36 38 40 34
37 38 38 38 39 41 38 38 38 38 37 37 38 40 42 42 45 45 45 46 46 42 41 42 42 44 44 46 46 47 47 46 44 43 37 34 32 32 32 33 33 33 33
35 35 36 37 37 38 36 36 36 36 35 36 37 37 37 40 40 44 44 45 45 42 42 42 43 44 45 43 44 44 43 39 39 36 33 32 32 32 31 30 31 31 31
34 34 35 35 36 36 36 36 35 34 34 35 35 35 35 37 38 40 41 41 42 41 41 40 43 44 43 41 40 40 36 35 35 34 32 32 31 30 29 30 28 28 28
33 34 34 34 34 34 35 34 34 36 37 35 35 35 34 34 38 42 41 39 39 40 41 40 39 38 36 36 35 36 36 35 32 32 31 30 30 29 28 28 28 28 26
33 33 33 34 33 33 32 33 38 39 39 40 40 39 39 41 42 41 41 41 41 41 37 35 33 34 33 34 33 33 34 35 31 31 30 30 29 27 27 27 28 27 26
30 31 32 33 32 31 31 30 29 34 38 38 39 40 40 40 40 40 40 40 39 38 33 31 31 31 33 33 33 32 32 33 31 30 29 29 28 27 28 27 27 27 26
32 35 32 31 30 30 30 30 30 30 29 30 36 37 39 39 39 39 39 37 31 33 31 30 30 31 32 32 33 32 32 31 29 29 28 28 28 28 27 27 27 26 24
31 31 31 31 31 32 31 31 30 30 29 29 31 34 36 37 38 38 37 30 28 29 30 29 30 31 31 32 32 32 31 30 29 28 28 28 27 27 27 27 26 27 24
29 34 34 31 31 30 30 29 29 29 28 28 28 28 31 32 29 29 29 28 28 29 29 29 30 30 32 31 32 32 30 29 28 28 27 27 28 28 27 26 23 21 18
30 30 33 31 29 29 29 28 28 28 27 28 29 31 36 32 29 28 27 27 28 29 29 29 29 30 30 30 31 31 30 28 28 27 27 27 28 26 26 24 23 21 19
30 30 29 29 29 29 29 29 29 28 27 28 28 30 34 31 29 27 27 27 27 28 30 30 29 28 29 29 31 30 30 28 27 27 27 27 27 26 23 22 21 18 17
30 29 28 28 29 30 28 28 27 27 27 27 27 28 29 29 30 28 27 27 27 27 29 30 28 27 29 30 32 31 29 28 28 28 27 26 26 24 23 19 18 16 15
29 28 28 29 28 29 28 27 27 28 28 27 27 27 27 29 29 28 27 26 26 27 28 28 27 27 28 29 31 31 30 29 29 29 28 26 24 23 20 18 16 13 14
30 29 28 28 27 27 26 26 26 27 27 27 26 27 27 27 27 26 26 25 25 26 27 26 26 27 28 28 30 30 29 31 29 29 28 23 20 18 17 15 14 13 13
29 29 28 28 27 26 26 25 23 23 22 23 24 24 25 25 26 24 23 23 25 26 25 25 26 27 26 30 30 30 32 32 30 30 27 23 21 18 17 15 14 15 13

GFSGL_sfc_temp_006.txt.gz
Temp
51 51 50 50 51 51 51 52 53 53 54 54 55 55 56 56 56 56 56 56 56 56 55 56 55 56 56 57 57 58 57 57 53 58 61 63 60 57 58 58 60 60 60
50 49 49 50 50 50 50 52 53 52 53 53 54 54 54 55 55 54 54 55 53 53 54 54 54 56 54 55 55 55 55 56 54 52 57 57 58 60 59 58 56 57 58
48 48 48 47 47 48 48 50 51 51 51 51 52 51 52 52 53 54 54 52 53 53 53 52 52 52 52 52 53 52 53 55 55 54 54 56 57 58 54 53 56 54 54
47 46 45 45 45 46 47 47 48 49 48 49 49 50 50 51 52 53 53 52 51 52 51 51 51 51 50 50 50 50 52 52 53 52 53 54 55 56 52 53 50 47 50
45 44 44 44 45 45 45 45 46 46 47 47 47 47 48 50 52 51 50 50 50 49 48 49 50 49 49 51 51 49 50 48 48 49 50 52 52 52 49 49 48 51 46
42 42 43 43 43 42 43 43 44 44 44 45 45 45 46 49 50 51 51 49 50 49 47 48 49 49 50 51 51 50 49 46 46 46 46 47 49 51 52 52 51 48 46
41 41 42 42 41 41 42 42 41 41 42 42 43 44 43 45 49 50 50 47 48 48 47 46 46 49 46 46 47 49 47 48 49 46 44 45 46 50 52 50 51 50 49
39 39 40 40 39 40 40 39 39 40 40 40 41 42 42 44 47 48 48 45 44 44 44 44 44 43 44 45 44 43 44 45 46 47 45 46 47 48 49 48 48 47 37
38 37 39 39 38 38 37 37 38 38 38 39 41 40 40 41 46 47 46 42 41 41 43 43 44 43 45 46 43 41 41 43 48 48 48 48 48 49 49 47 44 40 36
36 37 38 38 37 36 36 36 38 38 38 39 39 39 41 40 44 45 44 41 39 40 41 42 45 44 45 45 41 40 38 41 43 43 44 46 47 47 46 43 44 41 38
36 36 36 36 36 36 36 37 36 36 36 35 36 37 38 39 40 44 44 41 39 39 39 39 40 43 44 44 44 42 40 43 42 39 40 42 43 36 36 35 36 39 36
34 35 35 35 36 38 34 34 35 34 33 33 34 35 38 38 41 41 43 43 43 38 37 38 39 42 43 44 44 44 43 42 38 36 35 36 35 35 34 33 33 33 34
32 32 33 34 34 34 32 33 32 33 32 32 33 33 34 36 37 41 42 42 41 39 38 39 41 41 42 41 41 42 41 36 34 33 34 34 34 33 31 30 31 30 29
30 31 32 32 33 33 33 34 32 31 31 31 32 31 32 34 35 37 38 37 39 37 38 37 39 40 40 39 38 38 36 35 34 34 33 34 33 30 29 29 29 29 27
29 30 31 32 31 32 33 32 32 33 34 33 33 33 32 31 34 39 39 37 35 37 37 34 33 32 31 32 33 34 35 34 32 33 32 31 31 29 28 28 28 28 26
30 31 31 31 31 31 31 31 36 37 38 38 38 37 36 38 39 39 39 37 38 38 33 29 28 28 28 30 30 31 33 34 32 32 31 30 29 27 27 27 28 27 25
29 30 30 32 30 30 29 28 27 32 37 37 37 37 38 38 38 38 38 36 37 36 28 28 27 27 28 29 29 30 30 32 32 31 30 29 28 27 28 26 27 27 26
29 34 31 29 29 29 29 29 29 28 27 28 34 35 36 37 37 37 37 35 30 30 27 28 26 27 28 28 29 29 29 31 31 30 29 28 27 27 26 26 27 26 23
29 29 29 29 30 31 30 29 29 28 28 28 29 32 34 36 36 36 36 29 26 26 27 27 27 27 28 28 27 28 29 30 31 29 28 27 27 27 26 27 27 27 25
28 32 33 30 29 29 29 28 28 28 27 27 27 28 30 30 28 28 29 28 26 27 27 26 26 27 28 26 26 27 28 30 29 28 27 27 27 27 26 26 26 24 22
29 29 32 30 28 28 29 28 27 27 26 26 26 30 34 30 27 27 28 27 26 26 26 26 25 26 27 26 26 27 27 29 29 27 27 27 27 26 25 24 23 22 20
28 29 29 28 28 28 28 29 28 26 26 26 27 29 32 28 26 26 27 27 26 26 27 26 25 27 27 26 25 26 27 28 28 27 27 26 26 25 23 22 20 18 16
28 28 27 28 28 29 28 26 26 26 26 26 27 27 27 26 26 26 26 27 26 26 26 26 26 26 27 27 26 27 28 28 28 28 27 26 25 24 22 19 17 16 17
28 28 27 28 28 29 28 26 26 28 27 27 26 26 26 26 26 26 26 26 25 25 25 25 26 25 26 26 27 27 30 29 29 28 27 25 24 22 20 16 16 13 13
28 27 27 26 27 26 26 26 26 26 26 26 26 26 26 26 25 24 25 24 23 23 24 25 25 26 26 25 26 28 30 31 29 28 26 24 20 17 15 15 13 13 13
28 27 26 26 24 24 24 23 22 22 22 23 24 23 24 24 24 23 23 23 23 23 22 24 25 25 25 26 27 31 33 32 30 30 25 22 20 17 16 14 14 15 14

GFSGL_sfc_temp_009.txt.gz
Temp
48 47 46 46 46 46 47 47 48 48 49 49 50 50 50 50 51 50 51 52 51 51 51 51 50 52 51 51 52 52 51 51 48 52 55 57 56 56 58 57 57 58 60
47 46 45 45 46 45 45 46 47 46 47 47 48 47 47 48 48 48 48 50 49 48 49 49 49 52 49 50 49 49 49 49 47 45 51 52 53 57 58 57 57 58 57
45 44 44 43 43 42 43 44 45 45 45 45 45 45 45 46 46 47 48 48 47 47 48 48 48 48 46 46 46 46 48 49 48 47 48 51 52 54 55 56 55 56 56
44 43 42 42 41 41 41 42 43 43 43 43 43 44 44 45 46 47 46 46 46 47 47 48 47 46 46 46 46 43 44 43 43 43 44 47 49 51 52 50 51 53 51
42 41 40 40 40 40 39 40 41 41 42 42 42 42 43 44 47 45 45 44 44 44 45 46 46 46 47 49 46 43 42 41 41 40 41 43 44 45 46 48 48 51 52
40 39 40 39 39 38 39 39 39 39 39 40 40 40 40 44 46 47 46 44 43 42 41 43 44 45 45 48 47 47 46 41 39 39 39 39 41 43 44 45 44 43 43
38 38 38 38 37 37 38 38 37 37 37 37 38 39 39 40 44 45 46 44 41 40 40 40 41 44 43 42 44 46 45 45 45 41 39 40 41 44 44 42 43 43 43
36 36 37 36 36 36 36 35 35 36 36 36 36 38 37 39 43 44 45 41 40 40 40 39 39 39 41 42 42 42 40 40 41 43 43 44 44 45 45 45 44 44 45
35 34 35 35 35 35 34 34 35 35 35 35 37 36 35 36 41 43 42 39 38 38 40 40 39 39 43 44 41 38 37 38 45 46 46 46 46 45 45 44 42 41 40
34 34 34 34 34 33 33 33 35 34 35 36 35 35 37 36 40 41 41 39 36 37 37 37 41 41 43 43 39 37 34 36 39 40 40 40 42 41 44 41 39 36 36
34 34 33 33 32 32 32 33 33 32 33 32 33 34 34 36 37 40 41 39 37 35 34 36 37 41 41 42 42 38 36 39 39 37 36 36 37 38 38 38 37 34 33
32 32 32 31 33 35 31 31 31 31 30 30 30 32 34 35 38 39 41 41 41 36 35 35 36 40 40 41 40 40 41 40 36 34 33 33 34 34 35 35 33 32 33
30 29 30 30 31 31 28 30 30 30 29 29 30 30 31 34 35 38 39 40 40 37 36 37 39 39 38 36 37 38 38 34 32 31 32 32 33 34 33 30 31 31 29
27 27 29 28 31 31 30 31 30 28 28 29 30 30 30 31 32 34 35 36 38 36 34 34 35 36 36 34 33 33 33 33 32 31 31 33 33 33 31 30 29 29 26
28 28 28 29 27 29 30 30 30 31 32 32 31 32 30 29 32 38 37 36 35 34 36 31 29 29 27 28 29 31 31 31 30 31 31 31 30 31 30 29 28 28 25
28 29 29 29 28 29 29 29 35 36 37 37 37 36 35 37 38 38 38 38 37 38 32 27 25 26 26 26 27 27 29 30 29 29 31 30 29 28 28 27 28 27 25
27 29 28 29 28 27 28 27 26 31 36 36 36 36 36 36 37 37 37 37 37 36 27 25 25 25 25 25 26 26 26 27 28 28 30 30 28 28 28 26 27 27 24
27 32 29 28 28 28 28 28 29 27 27 28 33 34 35 36 36 36 36 35 29 30 26 25 24 25 25 25 25 26 25 26 27 28 29 28 28 27 26 26 27 24 23
28 27 28 28 28 30 30 29 28 28 27 27 28 31 33 34 35 34 34 27 25 25 26 25 26 25 25 24 26 26 25 25 27 27 29 27 27 27 26 26 27 27 25
27 32 32 29 29 29 28 27 27 27 27 27 26 26 28 29 26 25 26 25 26 26 26 25 26 26 25 24 25 25 24 24 26 27 28 27 27 27 26 26 25 23 22
27 27 31 29 27 28 28 27 27 26 25 26 26 29 33 29 25 24 24 25 25 25 24 25 25 25 25 25 25 24 24 24 25 28 27 27 26 25 25 25 23 22 21
27 27 27 27 28 27 27 28 28 27 26 26 26 28 31 27 25 24 25 25 25 25 25 25 25 25 25 25 24 24 23 24 26 28 27 26 25 24 24 22 21 18 17
27 26 26 27 28 29 28 27 26 26 26 26 26 27 27 26 26 25 25 25 25 25 25 25 25 25 25 26 25 25 24 24 28 28 27 25 24 23 22 19 16 14 14
27 27 27 27 27 27 26 25 26 26 26 26 25 26 25 26 25 25 24 24 24 24 24 24 25 24 25 25 25 25 26 28 29 28 26 24 22 21 18 14 14 12 13
27 26 26 25 25 24 23 23 24 24 24 24 25 25 25 25 24 23 23 23 23 22 23 24 24 25 25 24 24 25 28 32 29 27 24 21 18 14 13 14 14 13 14
26 25 24 24 23 22 22 22 21 21 21 22 23 23 23 23 23 23 23 22 22 22 21 23 24 24 24 24 25 28 33 33 30 30 23 20 17 16 16 14 15 21 22

GFSGL_sfc_temp_012.txt.gz
Temp
45 44 43 44 43 43 42 42 42 42 43 43 44 44 44 44 45 44 45 46 46 45 45 45 45 47 47 47 47 46 45 45 42 46 49 50 48 50 53 55 57 58 59
44 43 42 42 41 40 40 40 41 40 42 42 42 42 42 43 43 43 42 43 43 42 43 43 44 48 44 44 44 43 43 45 41 38 43 44 45 47 49 50 53 56 56
42 41 40 39 38 38 38 40 41 40 40 41 41 40 41 41 41 42 42 42 42 42 43 43 42 43 42 42 41 41 45 45 41 39 39 43 43 44 46 48 49 50 54
41 40 38 38 37 37 38 38 39 39 38 39 39 39 40 40 41 42 42 42 42 42 42 41 41 41 41 41 41 41 43 39 39 38 38 39 39 42 42 41 42 46 47
39 38 37 38 37 37 36 36 37 37 38 38 38 38 38 40 43 41 42 41 41 40 40 40 41 42 44 44 42 40 40 39 40 38 36 37 37 37 37 40 40 44 45
38 39 37 37 36 36 36 36 36 36 36 36 36 36 36 40 43 44 43 40 40 39 37 39 39 41 41 44 44 45 44 39 38 37 35 35 36 37 39 40 40 39 37
39 36 36 36 35 35 35 34 34 34 33 34 34 35 35 36 41 43 43 40 38 37 37 37 38 41 40 39 41 43 43 44 43 39 35 35 36 38 40 38 39 39 38
35 34 35 34 33 33 32 32 31 33 32 33 33 34 34 36 40 41 42 38 37 37 37 37 37 37 38 39 38 36 35 38 38 40 39 37 39 41 40 40 39 38 39
36 34 33 33 32 32 31 30 31 31 32 32 34 33 32 33 39 40 40 37 36 36 37 37 36 36 40 42 37 35 35 35 40 42 42 43 44 44 43 39 34 34 34
35 32 32 32 31 30 29 30 31 31 32 33 32 32 34 33 37 39 39 37 35 35 35 36 39 39 41 41 37 35 31 32 35 35 36 37 39 39 41 38 35 32 32
32 31 31 31 29 30 29 30 31 30 30 29 30 31 31 33 34 39 40 37 35 34 33 34 36 39 39 39 39 34 33 37 35 33 33 34 35 36 36 35 35 33 31
30 30 29 29 31 33 28 29 28 28 28 28 29 29 32 33 37 37 39 40 39 35 33 35 35 36 38 38 36 37 37 37 31 30 30 31 32 33 34 34 34 34 32
28 27 28 29 29 29 26 28 28 28 28 27 28 28 30 32 33 37 38 38 38 36 35 35 36 36 36 34 35 35 35 30 29 27 28 29 30 32 33 33 33 32 29
25 26 27 26 29 28 29 29 27 27 26 29 29 29 29 30 31 32 34 34 36 35 34 31 34 34 34 33 31 30 28 29 29 28 27 28 30 31 30 32 30 28 25
26 27 27 28 25 27 28 27 28 29 30 30 31 31 29 28 31 36 36 35 34 35 35 32 29 27 26 26 27 27 27 27 27 27 26 26 27 29 29 30 28 28 25
26 28 28 28 26 28 27 27 34 35 36 36 36 35 34 36 37 37 37 37 36 37 31 27 25 24 24 25 24 25 25 27 27 26 26 26 26 28 27 29 28 27 25
25 27 27 28 26 26 26 26 25 30 35 35 35 36 35 36 36 36 36 35 35 33 26 25 24 24 24 24 24 24 22 25 26 25 25 26 27 28 27 27 27 26 24
25 32 28 27 26 27 27 28 28 26 25 27 32 33 35 35 35 35 35 33 27 27 25 24 23 24 23 23 23 23 23 25 24 25 25 25 27 26 26 26 26 24 23
27 27 27 27 27 29 29 28 27 27 27 26 28 31 32 33 34 33 33 26 23 23 24 24 24 24 24 24 23 23 24 24 25 24 24 26 27 26 26 26 26 27 25
26 30 31 28 28 28 27 27 27 26 26 26 26 26 28 29 26 25 26 24 24 24 24 24 24 24 24 23 23 23 23 23 23 23 24 27 26 26 25 25 24 23 22
26 26 30 27 26 27 27 26 26 25 26 26 26 28 33 28 24 24 24 25 24 23 23 24 24 23 23 23 23 23 23 23 23 24 26 26 25 24 24 24 23 22 21
25 26 26 26 27 26 27 28 27 25 26 25 25 28 31 26 24 24 25 24 25 24 25 24 23 23 23 23 23 23 22 22 23 24 26 25 24 24 23 22 21 20 19
26 25 25 25 27 28 26 26 25 24 25 25 25 25 26 25 25 24 24 24 24 24 25 24 23 23 24 24 24 24 23 23 24 27 26 23 23 21 19 18 17 18 20
26 25 25 25 25 26 24 23 24 25 24 24 24 25 24 25 24 24 24 24 23 24 23 23 23 22 23 24 24 24 25 26 29 27 23 19 17 17 17 18 18 18 18
25 24 24 24 23 23 22 22 23 23 22 22 23 24 24 24 23 23 23 23 22 22 22 22 23 24 23 23 23 24 26 33 29 24 19 16 17 18 19 19 18 13 13
25 24 23 23 22 21 21 20 20 20 20 21 22 22 22 22 22 22 22 22 21 21 20 22 23 23 22 24 25 28 34 34 28 30 20 20 21 22 19 14 17 23 21

GFSGL_sfc_temp_015.txt.gz
Temp
49 48 48 47 47 47 47 47 47 47 47 46 46 46 47 46 47 47 47 48 46 46 47 46 46 48 47 47 48 48 46 45 40 46 51 53 51 50 53 54 54 56 58
47 47 46 46 46 45 45 45 46 45 46 45 45 45 45 45 45 45 44 45 45 44 45 45 44 46 44 45 46 44 44 44 42 39 44 47 47 49 50 48 51 55 55
46 46 45 44 44 44 44 44 44 44 44 44 43 43 43 43 43 44 45 44 44 44 45 43 43 43 42 43 43 42 43 44 42 40 40 46 46 47 46 47 48 49 52
45 44 43 43 43 42 43 43 42 43 42 42 42 42 42 42 42 44 44 44 44 44 44 43 42 42 41 42 42 42 43 41 41 40 40 41 43 45 43 40 41 46 46
43 42 42 42 42 42 41 41 41 41 41 41 40 41 41 41 43 42 43 42 42 42 42 42 42 42 42 43 42 41 41 39 38 38 37 38 39 39 38 41 38 41 44
42 41 41 40 40 40 40 40 39 39 40 39 39 39 39 40 41 42 42 42 41 40 39 41 42 41 42 42 42 43 42 37 36 34 35 35 37 38 39 39 38 36 34
40 40 39 39 38 38 38 38 38 37 38 37 38 38 38 38 40 41 41 41 40 40 39 40 40 42 41 40 41 42 40 41 41 38 35 34 34 37 36 35 34 34 36
39 38 38 37 37 37 37 36 36 37 36 37 37 37 37 38 39 40 40 40 40 39 39 40 39 38 40 40 40 35 39 39 40 40 38 38 39 39 39 39 38 37 38
38 37 36 36 36 36 35 35 36 36 36 36 36 36 35 35 38 38 40 39 38 38 40 40 38 39 40 41 35 36 36 37 40 40 40 41 41 41 41 38 34 33 32
36 35 36 36 35 34 35 35 36 36 35 35 35 35 35 35 36 38 39 39 37 37 37 38 39 39 40 38 37 35 31 33 35 36 36 36 38 38 39 38 35 31 31
35 35 35 35 34 35 35 35 34 34 34 33 33 34 35 35 36 38 39 38 37 34 34 36 38 39 37 39 39 35 33 36 35 33 32 33 34 35 36 36 35 32 30
33 33 33 34 34 35 33 33 33 32 31 31 32 32 35 36 37 37 38 39 39 36 35 37 37 36 38 37 36 36 36 35 31 29 29 29 31 31 32 33 33 33 34
32 32 32 33 33 33 32 32 32 31 30 30 31 31 32 35 35 37 37 37 38 36 37 36 37 37 37 35 34 35 34 30 28 26 27 28 30 30 30 31 33 33 33
30 31 32 32 34 34 32 32 31 30 29 31 31 31 31 33 33 35 35 35 37 35 34 35 35 35 35 33 32 32 30 30 28 27 26 29 30 29 29 31 31 32 31
31 31 31 32 30 30 31 31 31 33 33 32 32 32 30 30 33 36 36 35 35 34 35 33 31 30 28 29 29 29 29 29 27 27 26 27 27 28 28 31 31 31 29
30 31 31 31 30 30 30 30 33 34 36 36 36 35 35 36 36 37 37 36 36 36 32 28 26 27 26 26 26 26 27 27 27 26 26 26 26 26 27 30 30 29 27
29 29 30 31 29 28 28 28 27 32 34 34 34 35 35 35 36 35 35 35 35 33 28 25 25 25 25 25 25 25 24 26 25 25 25 25 25 26 28 28 29 27 25
29 31 30 29 29 29 29 29 30 28 27 28 33 33 34 35 34 35 35 33 29 29 26 25 24 25 25 24 24 24 24 24 24 25 25 24 25 27 27 28 27 26 25
29 29 29 30 29 30 30 29 29 28 28 28 29 31 33 33 34 33 33 28 25 25 25 25 25 25 24 24 24 24 23 23 24 24 24 24 27 26 27 27 27 28 27
28 30 31 30 29 29 28 28 28 28 27 28 27 27 29 30 27 27 28 27 26 26 25 25 25 25 24 24 23 23 23 23 23 23 24 25 27 27 26 26 26 25 24
28 27 30 29 27 28 28 27 28 27 26 26 27 29 31 28 26 26 26 26 26 25 24 25 24 24 24 23 23 23 23 23 23 24 24 27 27 26 26 26 25 25 25
27 27 27 27 28 27 28 29 27 27 26 25 26 27 29 27 26 25 26 26 26 26 26 25 24 24 24 23 23 22 22 22 23 24 26 27 26 26 25 25 25 24 25
27 26 27 27 27 28 26 27 26 25 25 25 25 26 26 26 26 25 25 25 25 25 26 25 24 23 24 23 24 24 23 23 25 26 26 25 25 25 24 23 23 23 24
27 27 26 26 26 27 26 25 25 25 25 24 24 24 24 25 25 24 24 25 25 25 25 25 24 23 23 23 24 24 25 27 30 26 24 24 24 24 24 24 24 22 23
27 26 26 25 24 24 23 23 23 23 22 22 23 24 24 24 23 23 24 24 24 23 23 24 23 23 23 23 23 25 28 34 30 26 26 24 24 23 23 24 24 25 24
26 25 24 24 23 23 22 21 20 20 20 22 22 22 22 22 23 23 23 23 22 23 23 23 23 23 23 24 26 30 34 33 31 30 27 26 26 27 27 25 27 28 29

GFSGL_sfc_temp_018.txt.gz
Temp
57 57 57 56 55 56 55 54 54 54 54 53 53 53 53 52 53 52 52 52 50 50 51 50 49 51 49 49 49 48 47 46 42 46 49 52 51 52 54 55 55 55 56
56 55 54 54 54 54 53 53 53 52 53 52 52 51 51 51 51 50 49 50 49 48 49 48 47 49 47 47 47 46 46 47 43 39 45 47 47 49 51 51 53 54 54
54 54 54 53 53 52 52 52 52 51 51 51 50 49 49 48 48 49 49 48 48 48 48 47 46 46 45 45 45 45 46 45 44 42 41 46 46 48 47 48 48 49 53
52 52 51 50 51 51 50 50 50 50 49 49 49 48 48 47 47 48 47 47 47 47 47 46 46 45 44 43 44 43 43 42 43 41 40 41 43 45 46 44 44 47 46
51 50 49 49 49 49 49 48 49 48 48 48 46 47 47 47 48 44 44 44 44 45 45 45 45 44 43 44 43 41 40 40 39 38 37 39 40 41 40 42 39 42 43
50 48 47 47 47 47 47 47 47 47 47 46 46 46 45 46 44 42 42 42 43 43 43 44 45 43 44 43 43 43 42 39 37 36 37 36 37 39 39 39 38 35 32
48 47 46 46 45 46 46 46 45 45 46 45 45 45 44 44 43 41 41 42 42 43 43 42 43 45 43 41 43 43 42 40 40 39 36 36 35 39 39 36 35 34 34
46 46 45 44 44 45 45 45 45 45 45 44 44 44 43 43 41 40 39 42 42 43 43 42 42 41 41 42 42 39 38 41 41 42 39 39 38 38 38 38 36 36 38
45 44 44 44 43 44 44 44 44 44 43 43 43 42 41 41 40 39 40 41 41 41 42 42 41 40 41 41 38 34 36 39 41 40 40 40 40 40 39 36 32 31 32
44 43 44 44 43 43 43 43 43 43 42 42 41 42 40 40 40 39 40 40 38 40 40 40 41 41 41 40 37 38 32 35 36 37 38 38 37 38 38 36 33 29 30
43 43 43 44 43 43 43 43 42 41 41 41 40 41 41 41 40 40 39 39 38 37 37 39 41 40 39 39 39 37 35 36 36 35 34 34 35 35 35 36 35 30 28
42 42 42 43 42 42 41 42 41 40 39 39 38 38 40 41 40 39 39 39 39 36 36 39 39 38 38 37 37 37 37 36 34 31 30 30 31 31 32 33 33 32 33
41 41 42 42 42 42 41 39 39 39 37 37 36 36 37 39 40 39 39 39 38 37 39 38 37 37 36 36 36 36 35 33 31 28 28 28 30 30 31 31 32 32 33
40 41 41 41 40 41 40 40 38 37 36 35 35 35 35 36 37 38 38 38 38 38 36 36 37 36 35 35 34 34 34 32 30 28 27 29 30 29 29 31 29 31 30
40 40 40 40 40 39 39 39 37 38 36 34 34 34 34 33 35 37 36 37 36 36 35 35 34 33 30 31 32 32 32 31 28 28 26 26 28 28 29 30 30 30 29
38 39 39 38 39 38 37 37 38 37 37 36 36 35 36 36 37 37 37 36 36 36 33 31 29 29 28 29 29 29 29 28 27 26 26 26 26 26 26 28 30 30 27
37 37 38 38 37 36 35 34 33 37 37 36 36 36 35 36 36 35 35 35 35 34 30 28 27 28 28 28 27 26 25 26 25 25 25 25 25 26 27 29 28 28 27
37 35 36 36 36 35 35 34 34 32 31 33 36 36 35 35 34 35 35 34 31 31 29 27 27 27 27 26 26 24 24 25 24 25 24 24 25 26 27 27 28 28 28
35 36 36 36 35 34 34 34 33 33 32 32 34 35 35 34 34 34 34 30 27 27 28 27 28 27 26 26 25 24 23 23 24 24 24 25 26 27 27 27 27 28 28
36 34 33 34 34 34 33 32 32 32 32 32 31 31 32 31 29 29 29 29 28 27 28 27 27 27 26 25 24 23 23 23 23 24 25 26 28 29 28 27 27 26 27
35 34 33 33 33 33 32 31 32 31 30 30 30 32 32 29 27 27 28 28 28 27 27 27 26 26 25 24 24 23 23 23 24 25 26 27 29 28 29 28 27 27 27
34 33 33 32 32 32 32 32 31 30 30 29 30 30 31 29 28 27 27 28 28 28 28 27 26 26 24 24 23 23 23 24 25 26 27 28 28 28 28 28 27 28 28
33 32 32 32 32 31 31 31 30 29 29 28 29 28 28 27 27 27 27 27 27 27 28 27 26 24 25 25 25 25 24 25 27 28 28 26 27 28 28 28 28 28 28
33 32 31 31 31 30 30 29 29 28 28 27 27 26 26 26 26 26 26 27 27 27 27 26 25 24 24 25 26 27 28 29 32 31 27 26 28 29 29 29 29 28 28
32 31 30 30 29 29 28 28 27 27 25 25 25 25 25 26 25 25 26 26 25 25 25 25 25 25 25 24 25 27 30 34 32 29 30 29 29 29 29 29 29 31 29
31 30 29 29 28 28 26 25 24 24 23 24 24 24 24 24 25 25 25 24 24 24 24 25 24 24 25 26 27 30 34 33 32 32 31 31 30 31 32 31 31 32 31

GFSGL_sfc_temp_021.txt.gz
Temp
60 60 59 58 58 58 57 56 55 56 55 55 54 54 53 53 53 52 51 51 50 50 50 49 48 49 48 48 47 46 45 44 38 42 46 47 46 46 48 49 50 50 51
59 58 57 57 57 56 55 55 55 54 55 53 53 52 52 51 51 50 49 49 48 47 48 47 47 49 46 46 45 44 43 44 40 37 41 42 43 45 45 45 48 51 49
58 57 56 55 54 54 54 53 53 53 52 52 51 50 49 49 49 49 49 47 47 47 47 46 45 45 44 44 43 42 42 43 41 37 37 41 42 43 42 44 44 45 49
56 55 53 52 52 52 52 52 51 51 50 50 50 49 49 49 48 48 47 45 45 45 45 45 45 44 43 42 42 41 41 38 38 37 37 37 39 41 41 38 38 41 41
54 52 51 51 51 51 50 50 50 50 49 49 48 48 49 48 49 46 44 43 42 42 43 45 45 45 44 44 43 40 38 36 37 36 34 34 34 35 35 37 35 37 38
52 50 50 50 49 49 49 48 48 48 48 48 47 47 47 47 47 45 44 41 41 41 41 43 44 44 44 44 44 43 42 37 35 33 32 31 32 35 35 34 33 31 29
50 49 49 49 48 47 48 47 47 47 47 47 47 47 46 45 45 44 43 40 40 41 41 42 42 45 43 41 42 42 42 42 40 36 33 32 32 34 34 31 31 31 30
48 48 48 47 46 47 47 46 46 47 46 46 45 45 44 45 44 43 42 40 41 41 41 41 41 40 40 40 39 36 36 37 38 40 37 36 36 36 34 35 33 32 33
47 47 47 46 45 45 45 45 45 45 44 44 44 43 43 43 43 42 41 40 39 39 41 41 40 39 41 41 37 32 34 36 40 40 40 40 40 40 39 34 28 28 27
46 46 46 46 45 44 44 44 45 44 43 43 43 44 43 42 43 42 41 39 37 38 38 39 40 40 41 40 36 35 30 32 33 34 35 35 36 35 37 34 31 26 26
46 46 46 46 45 45 44 44 44 43 42 42 41 43 42 43 42 42 41 39 38 36 34 36 38 40 39 39 39 35 33 35 34 32 31 31 32 33 33 33 32 28 26
45 44 44 45 45 44 43 43 43 42 40 40 40 39 41 42 42 41 41 40 40 35 34 36 37 37 38 38 37 37 37 36 31 30 28 28 28 28 29 30 30 30 31
44 44 44 44 44 44 42 41 40 40 39 38 37 36 37 39 39 40 40 39 39 36 37 37 36 37 37 36 36 36 35 30 29 26 26 26 27 28 28 29 30 30 30
43 43 43 42 42 42 42 42 40 39 37 36 34 33 34 35 36 37 37 36 37 36 35 33 36 36 36 34 33 33 31 30 29 26 25 26 27 27 26 28 27 27 27
42 42 42 42 41 40 41 41 39 40 38 34 34 34 31 31 34 37 37 35 34 35 35 33 32 30 28 29 29 29 29 29 26 26 25 24 25 26 26 27 27 28 27
39 40 40 39 40 40 39 39 41 40 40 39 38 37 37 37 38 37 37 36 36 36 32 29 27 27 26 27 26 26 27 27 25 25 24 24 24 24 24 26 28 28 26
38 38 38 38 38 38 37 36 33 37 39 39 39 38 38 37 37 36 36 35 35 34 28 26 26 26 25 25 25 24 23 25 25 24 23 24 24 24 25 27 27 27 27
38 38 37 38 37 36 36 35 35 33 32 34 37 37 37 37 36 35 35 34 29 30 27 26 25 25 25 25 24 23 23 24 23 23 24 24 24 24 25 26 26 25 25
37 37 37 36 36 36 35 35 34 33 33 33 34 35 36 36 35 34 34 29 26 26 26 26 26 25 25 24 24 24 23 23 24 23 23 24 25 25 25 25 24 27 28
37 37 36 35 35 34 34 33 33 32 32 32 31 31 32 31 27 28 28 28 27 26 26 25 25 26 24 24 24 23 23 23 23 23 24 25 26 26 26 25 25 24 26
36 36 36 35 34 33 33 32 32 31 30 30 30 32 34 29 27 27 27 27 26 26 25 25 25 24 24 24 23 23 23 23 24 24 25 26 26 25 26 27 26 26 27
35 35 34 33 33 33 32 32 32 31 30 29 30 30 32 29 27 26 26 26 26 26 27 26 25 24 24 23 23 23 23 23 24 25 26 27 25 25 27 27 27 27 27
33 33 33 33 33 33 32 32 31 30 29 29 29 28 28 27 26 26 25 26 26 26 27 26 24 23 25 25 25 25 24 24 26 28 27 26 25 25 28 27 27 26 26
33 33 32 32 31 31 30 30 30 29 29 28 27 26 26 26 25 25 25 26 25 25 25 25 24 23 24 24 25 26 26 28 30 29 29 27 26 28 28 27 28 27 26
33 32 31 30 30 29 29 28 28 27 26 26 25 25 25 25 24 24 25 25 24 24 24 24 24 24 24 24 24 26 27 32 32 32 31 29 29 29 30 29 29 27 25
32 31 30 29 28 28 27 25 24 24 23 24 24 24 24 24 24 24 24 23 23 22 22 23 23 23 23 25 26 28 32 33 33 34 32 30 30 30 29 30 30 29 30

GFSGL_sfc_temp_024.txt.gz
Temp
51 50 49 49 49 49 47 47 46 47 46 46 46 45 45 44 44 42 42 43 43 41 42 43 42 43 42 42 42 41 39 38 34 37 40 42 41 41 43 44 45 45 45
51 49 48 48 48 46 46 46 47 45 46 45 45 44 44 43 42 41 41 41 40 40 40 41 41 44 40 41 40 39 38 38 35 32 37 37 38 40 41 40 43 46 44
50 48 47 46 45 44 44 45 45 44 43 43 43 42 42 43 42 41 42 39 39 39 39 39 39 39 39 39 38 37 38 40 37 34 33 37 37 39 38 39 40 40 43
48 47 45 44 44 43 44 44 44 43 42 42 42 42 42 42 43 43 41 39 38 39 39 39 39 39 39 38 39 38 40 37 35 33 33 32 35 37 37 32 33 36 36
46 45 43 44 44 44 43 43 43 42 42 42 41 41 41 42 46 42 41 38 37 37 37 38 39 41 44 43 41 39 37 35 34 31 31 31 32 31 31 33 31 33 34
45 44 45 44 44 43 42 42 41 40 40 40 39 39 39 44 46 46 44 39 37 36 35 37 39 41 41 43 43 43 41 36 33 30 30 29 31 32 32 30 29 28 26
44 44 45 44 43 42 41 40 39 38 38 37 37 38 37 37 45 46 45 40 36 36 36 36 37 40 39 37 39 41 37 39 39 34 30 30 30 31 30 29 29 28 28
43 46 45 43 41 40 39 38 37 37 36 36 36 36 36 39 44 45 44 38 36 36 36 36 36 36 37 38 37 34 34 34 35 36 34 34 34 35 34 34 32 29 30
43 43 42 41 39 38 37 35 36 35 35 34 36 36 35 37 43 44 42 37 36 35 37 37 36 36 39 41 36 31 31 33 37 39 38 38 39 38 37 33 26 25 24
41 41 40 40 38 36 35 35 35 35 36 38 37 36 38 36 41 43 42 38 35 35 35 35 37 38 40 40 35 33 29 30 32 32 32 32 34 32 36 32 29 24 24
41 40 40 38 37 36 35 35 34 34 34 33 34 34 33 35 37 42 41 38 35 34 31 32 34 38 38 38 39 33 32 35 33 29 28 29 29 30 30 30 30 26 23
39 39 37 36 39 40 34 33 33 32 31 31 31 32 34 34 38 38 40 40 39 34 32 33 34 37 38 38 36 36 37 35 29 27 26 26 26 25 26 27 28 28 28
37 35 35 36 36 36 33 32 31 31 30 30 31 30 31 33 33 37 38 39 38 35 34 35 36 37 36 34 34 35 34 28 27 24 24 24 25 25 26 26 27 29 29
34 34 35 34 35 34 34 33 31 30 30 31 31 30 30 31 31 33 35 34 36 34 34 31 34 34 34 32 30 30 28 28 26 25 24 25 25 25 24 26 25 26 26
33 32 33 33 32 31 32 31 30 31 33 33 32 31 30 30 32 38 37 35 34 34 34 30 28 27 25 26 27 27 28 27 25 25 24 23 24 24 24 26 26 27 25
31 31 31 30 30 30 30 32 38 39 40 39 39 37 36 38 39 38 38 37 36 36 30 26 24 24 24 25 25 24 25 26 24 24 23 23 23 23 23 26 26 25 23
28 30 29 31 29 28 30 29 28 33 38 38 38 38 38 38 37 37 37 36 34 33 26 24 23 24 24 24 23 23 22 24 24 23 22 23 22 23 24 24 25 25 24
30 36 30 28 28 28 29 29 29 28 28 29 35 36 36 36 36 36 35 33 27 28 25 23 23 23 24 23 23 23 23 23 23 23 23 22 23 23 23 24 25 24 24
29 28 29 28 28 30 30 29 28 28 28 28 29 32 34 35 35 34 33 26 24 24 24 23 24 24 23 23 23 23 23 22 24 22 22 23 24 24 24 24 25 27 27
28 35 35 29 28 27 27 28 28 28 27 27 27 27 29 30 25 25 26 25 24 24 24 23 24 24 23 23 22 22 22 22 22 22 23 23 24 25 23 24 25 25 25
27 28 34 28 27 27 28 28 28 27 27 27 27 29 33 27 24 24 24 24 24 23 23 24 23 23 23 22 22 22 22 22 22 23 24 25 26 24 24 25 26 26 26
27 26 27 26 27 27 27 28 28 27 27 26 26 28 31 26 24 24 24 23 24 24 25 24 23 23 22 22 22 22 21 21 22 23 24 27 26 25 24 26 26 26 25
26 26 26 26 26 30 27 27 26 26 26 26 25 26 26 25 24 23 23 24 24 24 25 24 23 22 23 23 23 23 22 22 24 25 26 28 27 26 26 26 26 26 26
25 25 25 25 25 27 25 26 26 27 26 25 24 24 24 24 23 23 23 24 24 24 23 23 22 21 22 22 23 24 24 25 27 30 30 29 27 27 28 28 26 23 26
25 24 24 23 23 24 24 24 24 23 23 23 23 24 24 23 22 22 23 23 22 22 22 22 22 22 22 22 22 24 26 31 33 32 32 28 26 26 27 26 25 26 25
24 24 23 22 21 22 22 21 20 21 21 22 22 22 22 21 21 22 21 21 21 20 20 21 21 21 21 23 24 27 32 34 34 35 32 30 29 28 27 26 27 27 26

GFSGL_sfc_temp_027.txt.gz
Temp
47 46 46 46 46 45 44 44 43 43 43 43 42 42 42 41 41 39 39 40 38 37 36 38 38 39 38 39 39 38 37 36 31 35 39 40 39 39 40 41 42 42 42
47 46 45 45 44 43 43 43 43 42 42 42 42 42 41 42 41 39 38 38 36 35 36 35 36 40 36 37 37 37 36 37 34 31 36 36 36 38 38 38 40 43 41
46 45 44 43 42 41 41 42 43 42 41 42 41 41 41 41 39 38 38 37 36 35 35 35 35 35 34 35 36 36 37 39 37 33 32 35 36 36 35 37 35 36 39
45 43 42 41 41 41 41 42 41 41 40 40 41 40 40 39 39 39 38 36 35 36 35 35 35 35 35 36 37 37 38 35 35 33 32 32 33 35 34 31 32 35 34
43 42 41 42 42 41 41 41 41 40 41 40 39 38 38 39 44 41 40 37 34 33 34 36 36 38 41 41 39 36 35 34 32 31 31 30 30 30 29 31 30 31 32
42 41 42 42 42 40 40 40 39 39 38 37 36 36 35 41 44 45 44 39 35 33 33 35 36 38 38 41 41 41 40 35 32 30 29 27 29 29 30 30 29 27 25
42 42 43 44 41 40 40 38 37 36 34 34 34 34 33 33 44 45 44 40 35 32 34 34 35 38 37 35 38 40 39 39 38 34 30 29 28 30 30 28 27 26 26
41 43 44 42 40 39 37 36 34 34 33 33 33 33 32 36 43 43 43 38 34 33 33 34 34 34 34 36 36 34 33 33 34 35 33 32 33 33 33 32 30 28 28
41 40 41 40 38 37 34 33 33 32 32 31 33 32 31 32 41 42 41 36 35 34 35 35 35 34 37 40 35 31 30 30 36 38 37 38 37 37 36 31 25 24 23
40 40 39 39 36 34 33 32 33 32 33 34 33 32 35 31 38 40 39 35 33 33 33 33 37 36 39 38 34 32 27 29 30 30 30 31 32 32 35 31 27 22 22
40 39 38 37 35 34 33 32 31 31 31 29 29 29 30 31 33 39 39 36 34 32 30 31 33 37 36 38 38 31 30 34 32 27 27 28 29 29 29 29 28 25 22
38 37 36 34 36 37 32 31 30 29 28 27 27 28 29 30 36 37 39 39 38 34 32 32 33 35 37 36 34 35 36 34 28 26 25 25 25 25 26 27 27 27 27
36 34 33 34 34 33 30 30 28 28 27 29 29 29 30 32 30 37 38 39 39 35 33 34 35 35 34 32 33 34 33 27 25 24 24 24 25 25 26 26 27 28 28
32 32 32 31 33 31 31 30 27 27 26 30 30 30 29 31 31 33 35 34 36 33 33 30 32 32 32 31 29 29 28 27 25 24 23 24 25 24 24 25 24 25 25
31 30 29 30 29 28 29 28 27 29 32 31 31 31 29 29 32 38 36 34 34 34 33 28 27 26 24 25 27 27 27 26 25 24 23 23 23 24 24 25 24 25 23
29 29 29 29 27 28 26 27 35 37 38 38 38 36 34 37 38 37 37 36 36 35 29 25 23 23 23 24 24 24 25 25 24 24 23 23 22 22 22 24 25 24 24
27 28 27 28 26 25 25 27 26 31 36 36 36 37 36 36 36 36 36 35 33 32 24 23 22 22 23 23 23 23 22 23 24 23 22 23 22 22 24 23 24 25 24
28 34 28 26 26 26 26 26 27 26 26 27 33 34 35 35 35 35 34 31 25 26 24 22 22 22 23 22 22 22 22 22 22 22 22 22 22 22 22 23 23 23 25
28 27 27 27 27 29 28 27 27 27 26 26 28 31 32 34 34 32 31 25 23 22 22 22 23 23 22 22 22 22 22 21 23 22 22 22 23 23 23 23 23 28 28
27 33 33 27 27 27 26 26 26 26 26 26 26 26 28 29 24 24 24 24 23 22 23 22 23 23 22 22 21 21 21 21 21 21 21 22 23 24 24 23 23 24 25
26 26 33 25 26 26 26 26 26 25 25 25 26 28 32 26 22 23 23 23 22 22 22 23 22 22 22 21 21 20 20 20 21 21 21 23 24 25 26 25 24 26 25
26 25 25 25 26 26 26 27 26 26 25 24 25 26 29 25 23 23 23 22 23 24 24 23 22 21 21 21 20 20 20 20 21 22 22 23 24 27 27 25 26 26 26
25 24 24 24 25 28 24 25 24 25 24 24 24 24 24 24 23 22 22 23 23 23 24 23 21 21 22 22 22 22 21 21 22 23 23 24 27 27 27 26 26 26 25
24 23 23 23 23 25 23 24 24 25 24 23 23 23 23 23 22 22 22 22 22 22 22 22 21 20 21 21 22 23 23 24 25 27 30 30 27 27 26 26 25 26 26
23 22 22 21 21 22 22 22 22 22 21 22 22 23 22 22 21 21 21 21 21 20 20 21 21 21 21 21 21 22 24 30 32 32 32 30 29 27 26 25 24 25 24
22 22 21 21 20 20 20 19 18 20 20 21 21 20 20 20 21 20 20 20 19 19 19 20 20 20 21 22 23 26 31 33 34 34 32 31 30 29 28 25 26 23 24

GFSGL_sfc_temp_030.txt.gz
Temp
46 44 44 43 43 43 42 42 42 41 41 41 40 39 39 39 39 37 37 37 36 35 34 34 34 35 35 35 35 35 34 33 29 33 37 38 37 37 39 40 41 40 40
45 44 43 43 42 41 41 41 41 40 40 39 39 39 39 39 38 37 36 35 34 34 34 33 33 38 33 33 33 33 33 34 32 30 33 34 35 37 37 36 38 41 39
44 43 42 41 41 40 40 41 41 40 39 39 39 38 38 38 37 36 35 35 34 34 33 32 32 33 32 32 33 33 34 37 35 32 31 35 35 36 34 36 34 36 38
43 41 40 40 40 39 40 40 40 39 38 38 38 38 38 37 37 37 36 35 34 34 34 33 33 32 32 32 35 34 36 33 33 31 31 31 32 35 32 30 30 33 32
41 40 40 40 40 40 39 39 39 39 38 37 37 36 35 36 41 39 38 35 33 32 32 33 34 37 40 40 38 36 35 32 30 30 30 30 29 29 28 30 29 30 31
40 40 40 40 41 40 39 38 37 36 36 36 34 33 33 39 42 44 43 37 34 32 32 34 34 37 36 40 40 40 39 34 31 29 29 27 28 29 30 29 28 26 23
40 40 40 43 42 39 38 37 36 34 33 32 32 32 31 31 42 43 43 38 33 31 31 32 33 37 36 33 36 39 38 38 36 32 28 27 28 29 29 27 26 25 25
39 40 43 42 39 37 36 34 33 33 31 31 31 31 30 33 41 41 41 34 32 32 32 31 31 32 33 36 35 32 32 31 31 33 31 32 32 33 32 30 28 27 28
39 41 40 39 37 35 34 32 32 31 30 30 31 30 28 29 39 40 39 33 33 32 33 31 32 33 37 39 33 30 30 29 35 37 37 37 36 36 35 29 25 23 21
40 38 37 37 35 33 32 31 31 30 30 31 30 29 33 29 36 39 38 34 31 32 32 31 36 36 38 38 34 31 25 27 28 29 29 30 32 31 34 30 26 21 21
37 37 36 35 33 33 31 30 29 29 29 27 28 27 27 29 30 38 39 36 33 32 31 32 32 36 37 37 37 29 29 33 30 27 27 27 29 29 29 29 27 24 22
36 35 34 33 35 35 30 29 28 27 26 25 25 26 28 28 35 37 39 39 39 33 31 31 31 36 36 35 33 34 35 33 27 26 25 25 25 25 26 27 27 27 27
33 32 32 32 31 30 28 27 26 26 25 24 27 27 29 31 28 36 38 39 38 34 32 34 35 34 33 31 32 33 33 26 25 24 23 23 24 25 26 25 27 27 27
31 30 29 29 30 28 29 28 25 24 24 29 29 28 27 29 30 32 34 33 35 33 33 30 32 31 31 30 29 29 27 27 26 24 23 24 25 24 24 25 24 24 23
29 29 28 29 26 26 27 25 25 26 30 30 28 29 27 28 31 36 36 34 33 34 32 27 26 25 24 25 26 26 26 26 24 24 23 22 23 23 23 25 24 24 23
29 29 28 27 25 27 25 24 33 36 37 37 37 34 33 35 37 36 37 36 35 34 28 23 22 22 22 23 23 23 24 25 23 23 22 22 21 22 21 24 24 24 23
27 28 27 27 25 23 23 24 24 29 35 35 35 35 35 35 35 35 35 34 32 31 23 22 21 21 21 22 22 22 21 22 22 21 21 21 22 21 23 22 23 24 23
27 34 27 25 25 24 24 25 25 25 24 26 31 33 34 34 34 34 33 30 24 25 23 21 20 21 21 21 21 20 20 21 21 20 22 21 21 21 21 22 23 22 24
27 26 27 26 26 28 26 26 25 25 25 25 26 29 31 32 33 31 30 23 21 21 21 21 22 21 21 21 21 21 20 20 22 21 20 20 21 21 22 23 24 27 28
26 32 32 27 26 25 25 25 25 24 24 24 24 25 26 28 22 22 24 23 22 21 22 21 22 22 21 21 20 20 20 20 19 20 20 21 21 22 22 24 26 24 24
26 26 31 25 24 25 24 24 24 24 24 24 24 26 31 26 21 22 22 22 21 21 21 21 21 21 21 20 20 19 19 19 20 20 20 21 22 22 23 26 25 26 26
25 25 25 24 25 24 24 24 24 24 23 23 23 25 28 24 22 22 22 22 22 22 22 22 20 20 21 20 20 19 19 19 20 21 21 21 22 23 25 26 26 26 25
25 23 23 23 24 26 23 24 23 23 23 22 22 23 23 22 22 21 21 21 21 21 22 21 20 20 21 21 21 21 20 20 21 22 22 23 24 27 27 26 25 25 24
23 22 22 21 21 22 22 22 22 23 23 22 21 22 22 21 20 21 21 21 21 21 20 20 20 20 20 20 22 22 22 23 24 26 28 30 29 29 27 25 24 25 23
22 21 20 19 19 20 20 20 20 20 20 21 21 21 20 20 20 20 20 20 19 18 19 20 20 20 20 20 21 21 24 30 32 32 32 30 30 29 29 26 21 22 23
21 20 19 19 18 18 18 17 17 18 18 19 20 18 19 19 19 19 18 18 17 18 18 19 20 20 20 21 22 25 31 34 34 35 31 29 30 29 30 22 23 24 23

GFSGL_sfc_temp_033.txt.gz
Temp
44 43 43 41 41 41 41 40 40 40 39 39 38 38 37 37 37 35 35 36 34 33 33 33 32 33 32 32 32 32 31 31 26 31 35 36 36 36 38 39 40 39 40
43 43 41 41 41 40 40 40 40 39 39 38 37 37 37 36 36 34 33 34 33 32 32 31 32 37 31 31 31 30 31 32 29 27 31 33 34 36 36 35 38 40 36
43 42 40 39 39 39 39 39 39 38 37 37 37 36 36 36 35 34 34 33 33 32 32 31 32 31 30 31 31 31 31 35 33 31 29 33 34 35 34 34 33 34 37
42 40 39 38 38 38 38 38 38 37 36 35 35 35 35 34 35 35 35 33 32 33 33 32 31 31 30 31 33 34 35 32 32 30 30 31 32 32 32 30 29 32 32
40 39 38 38 38 38 39 38 37 36 35 35 35 34 33 35 39 36 36 34 32 31 31 31 33 35 39 39 37 34 33 31 30 29 29 28 27 28 27 29 28 30 31
39 38 38 38 39 40 40 36 35 34 34 33 32 32 31 37 41 43 41 34 31 30 30 31 31 36 35 39 39 39 38 34 30 29 26 26 26 27 28 28 27 26 23
39 38 39 40 40 40 38 35 34 32 31 31 31 30 29 29 41 42 42 34 30 29 29 31 32 35 35 32 35 38 37 36 37 31 27 26 26 28 28 26 26 25 25
38 39 40 40 39 36 34 32 31 31 30 30 30 29 28 32 40 41 41 32 30 29 30 30 29 30 31 35 34 31 30 31 31 32 31 31 31 32 32 30 27 27 28
37 38 41 40 35 33 32 30 30 30 30 28 29 28 27 28 38 39 38 32 31 30 30 31 32 32 36 39 34 29 30 30 34 36 36 37 36 36 35 29 25 23 21
38 40 39 35 33 32 30 30 30 28 30 30 29 28 30 27 35 38 38 34 31 32 31 31 36 35 38 38 34 30 25 27 28 29 29 30 31 30 34 30 26 21 21
37 36 34 33 32 31 30 29 27 27 28 25 26 25 26 28 29 38 39 35 33 33 31 31 32 36 37 37 37 29 29 33 31 26 26 27 28 29 29 29 28 24 22
34 33 32 31 34 33 28 27 26 26 24 24 24 26 28 27 34 36 38 39 39 32 31 31 31 36 36 35 33 34 35 33 26 25 24 25 24 24 25 26 27 27 27
32 30 30 30 30 29 26 26 24 24 23 23 26 26 27 30 27 36 37 38 38 34 33 35 35 34 33 30 31 33 32 26 24 23 23 22 23 24 25 25 26 27 27
29 28 28 28 28 26 29 28 23 23 23 28 28 27 26 28 28 30 32 31 35 33 33 30 31 31 30 29 28 28 26 26 26 23 22 23 24 23 23 24 23 23 23
28 29 28 28 25 25 27 24 23 25 28 28 27 27 26 26 30 36 35 33 33 34 32 27 25 24 23 24 24 25 25 25 23 22 21 21 21 22 22 24 23 23 21
28 29 28 27 24 26 23 23 32 35 36 36 36 34 32 35 36 36 36 36 35 34 27 22 21 21 21 22 22 22 23 23 22 21 21 20 19 20 21 23 23 22 22
27 28 26 25 23 22 22 24 23 29 34 34 35 35 35 35 35 35 35 34 32 30 22 21 20 20 20 21 21 21 20 21 21 20 19 19 21 19 21 21 21 23 24
27 34 26 23 24 24 24 24 24 23 23 24 30 32 33 33 33 34 33 30 23 24 22 20 19 20 20 20 20 20 20 20 20 19 20 20 19 19 19 20 21 22 25
27 26 25 25 25 27 25 25 24 23 23 23 24 28 30 31 33 31 30 22 21 20 21 20 21 20 20 21 21 20 20 19 21 20 19 19 20 20 19 21 22 27 29
26 32 31 25 24 24 24 23 23 23 22 22 23 24 25 27 22 22 23 22 21 21 21 20 21 21 20 20 19 19 19 19 19 19 19 20 20 20 20 21 22 24 25
24 25 31 24 23 23 23 23 23 23 22 22 22 25 30 26 21 21 21 21 20 20 20 20 20 20 20 19 19 19 19 19 19 19 20 20 21 21 22 23 23 26 25
24 24 24 22 23 23 23 23 22 22 22 21 22 23 27 23 21 21 21 20 21 21 21 21 20 20 20 19 19 19 19 18 19 20 20 21 22 22 23 24 26 25 25
23 22 22 21 22 25 21 22 22 21 21 21 21 21 22 21 21 19 19 20 21 20 21 21 19 19 20 21 21 21 19 19 21 22 21 21 23 24 27 27 25 25 23
22 21 20 20 19 21 20 20 20 22 21 20 20 21 20 20 19 19 20 20 19 19 19 19 19 19 19 20 21 22 22 22 23 25 29 30 29 29 29 27 26 24 22
20 19 19 17 18 18 18 18 18 18 18 19 19 20 19 19 19 19 19 18 18 17 18 19 19 19 20 20 20 21 23 30 33 32 32 30 29 29 29 27 27 23 21
19 19 18 17 16 16 16 15 15 15 15 17 18 17 17 17 18 18 17 17 16 17 17 18 19 19 20 20 22 25 31 34 35 36 30 28 29 30 30 24 23 22 19

GFSGL_sfc_temp_036.txt.gz
Temp
44 43 42 41 40 40 40 39 38 38 38 38 37 37 36 35 35 33 33 34 33 32 32 31 31 32 30 30 30 30 29 29 25 30 33 35 34 35 36 37 38 38 38
43 42 41 40 40 39 38 38 38 37 37 37 37 36 35 35 34 32 32 33 32 31 31 30 30 36 30 30 30 29 29 30 28 26 30 32 33 35 35 34 37 38 35
42 41 39 38 38 37 37 37 38 37 36 36 36 35 34 34 33 33 33 32 31 31 30 30 30 29 28 29 29 29 30 33 32 30 29 32 33 34 33 33 33 34 36
41 40 38 37 37 36 37 37 37 36 36 35 34 34 33 33 33 34 34 32 31 31 31 30 30 30 29 29 30 31 34 31 31 30 30 30 30 31 30 28 28 31 31
40 38 37 36 37 36 36 36 36 36 34 34 33 32 32 33 38 35 34 32 30 29 30 30 31 33 38 38 36 33 33 31 30 28 28 27 27 27 26 28 27 29 30
39 37 37 37 37 36 36 36 36 34 33 32 31 30 30 36 40 43 41 32 31 30 29 30 30 34 33 39 38 39 38 33 30 27 26 25 26 26 28 27 26 25 23
38 37 37 38 37 36 37 37 34 31 30 30 29 29 28 28 40 42 42 34 30 28 28 29 31 35 34 31 34 37 37 37 37 31 27 26 26 28 27 26 26 25 25
37 37 38 37 36 37 36 33 31 29 29 28 28 28 27 30 39 40 40 31 29 28 29 28 28 29 30 34 34 31 29 30 31 32 30 31 31 32 31 30 27 27 28
36 36 37 37 37 36 32 29 29 28 27 27 28 27 25 26 37 39 38 30 30 29 30 29 29 32 36 38 33 29 30 30 34 36 36 37 36 36 34 30 25 23 21
36 36 37 38 35 31 29 29 28 27 29 30 28 27 30 26 34 38 38 32 29 31 31 31 36 35 38 38 34 30 25 27 28 29 28 29 30 30 34 29 26 21 21
36 36 36 35 30 29 28 27 26 26 27 24 26 24 25 27 28 37 38 34 31 32 31 31 32 36 38 37 37 29 28 33 30 26 25 26 27 27 27 27 27 23 21
33 34 32 30 33 31 27 26 25 24 23 23 23 25 27 26 33 35 38 38 38 32 31 31 32 37 36 35 32 33 35 33 26 24 24 24 23 23 24 24 25 25 26
32 29 29 29 28 28 25 24 24 23 22 22 25 25 27 30 26 35 36 37 38 34 32 34 35 34 33 30 31 32 32 25 24 22 22 22 22 23 23 23 24 25 26
28 27 27 27 26 25 29 27 23 22 22 27 26 26 25 27 27 29 31 31 35 33 34 30 31 31 30 29 27 27 26 25 25 23 21 22 23 22 21 23 21 22 22
27 28 27 27 24 24 26 23 22 24 27 28 27 27 25 26 30 35 35 33 33 34 32 27 24 23 22 23 23 24 25 25 23 22 21 20 21 21 20 22 22 22 20
28 28 28 26 23 26 23 22 32 34 36 36 36 33 32 34 36 36 36 36 35 33 27 21 20 20 20 21 21 21 23 23 22 21 20 20 19 19 20 21 21 20 20
26 27 25 24 22 21 21 23 22 28 33 34 34 34 34 34 34 34 35 34 31 30 21 20 19 20 20 20 20 20 19 21 21 20 19 19 20 19 19 18 19 20 21
27 33 25 22 23 22 22 23 23 22 22 23 29 31 32 33 32 34 33 29 22 23 21 19 19 20 20 19 20 19 20 20 20 19 20 20 18 18 18 18 19 19 22
27 25 24 24 24 26 24 23 23 22 22 21 23 26 29 30 32 31 29 21 20 19 20 19 20 20 20 20 20 20 19 19 21 20 18 19 19 19 18 19 19 25 26
25 32 30 24 23 23 23 22 22 22 21 21 21 22 24 26 22 21 22 21 20 20 20 19 20 20 20 19 19 19 19 19 19 19 19 19 19 20 19 20 21 21 22
24 24 30 23 22 22 22 21 22 22 21 21 21 24 29 25 20 20 20 20 19 19 19 19 19 19 19 19 19 19 19 19 19 19 19 20 20 20 22 22 23 24 25
24 23 23 21 22 21 22 22 21 21 20 20 21 22 26 22 20 20 20 19 20 20 21 20 19 19 19 19 19 18 18 18 19 20 20 21 21 22 23 22 24 25 24
22 21 20 20 21 23 20 21 20 20 20 20 20 20 21 20 20 19 18 19 19 19 20 20 19 18 20 20 20 20 19 19 21 21 20 21 22 23 26 27 26 25 22
20 19 19 18 18 19 18 19 19 20 20 19 19 19 19 19 18 18 18 19 18 18 19 19 19 18 19 19 20 21 22 22 23 24 27 30 28 29 28 27 27 24 21
19 18 18 16 16 16 16 16 17 17 17 17 18 19 18 17 17 17 18 17 17 17 18 18 18 18 19 19 20 21 23 30 32 33 31 29 29 29 29 26 23 18 16
18 18 17 16 15 15 15 14 13 14 14 15 17 16 16 16 17 17 16 16 16 17 17 18 19 19 19 20 21 25 31 33 35 36 31 28 28 30 30 26 21 19 17

GFSGL_sfc_temp_039.txt.gz
Temp
49 49 48 47 47 48 47 46 46 46 46 45 45 45 44 43 43 43 42 42 41 41 41 40 39 40 40 40 39 39 37 37 32 36 39 41 40 40 42 43 42 42 43
48 48 46 46 46 46 45 45 46 45 45 44 44 43 43 42 42 41 41 41 40 39 39 38 38 40 38 39 38 37 36 37 34 31 35 38 39 40 40 39 41 42 41
47 46 45 45 45 44 44 44 44 44 43 43 43 42 41 40 40 41 41 40 40 39 38 37 37 37 36 37 37 36 36 37 36 34 34 38 38 39 38 39 38 39 40
46 45 44 43 43 43 43 43 43 43 42 41 41 40 39 39 40 41 41 40 40 39 38 38 37 37 36 36 36 37 37 36 36 34 34 32 35 38 36 34 34 37 37
44 43 42 42 42 42 41 41 41 42 41 40 39 39 38 39 42 42 42 41 39 38 38 38 38 38 39 39 38 37 37 35 34 32 30 33 32 33 32 34 33 34 35
43 41 41 41 41 41 41 40 40 39 39 39 38 37 37 39 40 42 43 41 39 37 36 38 38 37 37 39 39 39 38 35 32 31 30 30 32 33 34 32 30 29 26
41 41 41 41 40 40 40 40 39 38 38 37 37 36 36 36 39 41 42 40 38 37 37 37 36 37 37 36 37 38 38 37 38 35 32 31 31 33 31 29 29 29 28
40 41 41 40 39 39 39 38 37 37 36 36 36 35 34 36 38 40 40 39 38 37 37 36 35 35 36 36 37 33 33 36 36 36 35 35 34 35 35 33 31 30 32
40 40 40 40 39 39 37 37 36 36 35 35 35 34 33 34 36 38 39 38 37 36 37 37 36 36 38 39 35 32 34 34 37 37 37 37 36 36 35 32 28 25 24
40 39 40 40 39 37 36 35 34 34 35 35 34 34 32 33 35 38 38 37 35 36 37 37 37 37 38 38 36 34 30 31 31 32 33 33 33 33 34 32 29 23 23
39 39 38 38 36 35 34 34 33 33 32 32 32 33 33 34 35 37 38 37 36 35 35 35 36 37 37 38 37 33 31 34 33 31 30 31 31 32 32 31 30 25 23
38 37 36 36 36 34 33 32 32 31 31 30 30 33 34 33 34 36 37 38 38 35 34 35 35 37 36 35 34 33 35 34 30 28 27 27 27 27 28 28 28 27 28
36 35 34 33 33 33 32 31 32 30 29 30 31 31 32 34 33 35 36 37 38 36 35 36 36 35 33 31 31 33 32 29 27 25 25 25 26 26 26 26 27 27 27
33 32 32 32 31 31 33 32 30 29 29 31 30 30 31 31 32 34 35 36 36 34 35 34 33 31 30 30 29 29 29 28 27 25 24 26 26 25 25 26 24 25 24
31 32 32 31 30 30 31 30 30 31 32 32 32 32 30 30 32 36 35 35 35 35 34 30 28 26 25 26 26 27 27 27 25 25 24 24 24 24 24 25 24 24 22
31 31 31 30 29 30 29 29 32 35 35 35 35 34 34 35 35 35 35 36 35 34 29 25 24 24 23 23 23 24 25 25 24 24 23 23 22 22 22 24 24 22 22
30 30 31 28 28 28 27 28 26 30 33 33 33 34 34 34 34 34 35 34 32 30 24 23 22 22 22 22 22 22 22 24 23 22 22 22 22 23 22 22 22 23 23
31 32 29 28 28 28 28 27 27 26 25 26 30 31 32 32 32 33 33 30 24 25 23 22 21 22 22 21 22 22 22 22 22 22 22 23 21 21 21 21 22 21 23
29 29 28 28 28 29 27 27 26 26 25 24 26 28 29 30 32 31 29 24 22 21 22 21 22 22 21 22 22 22 21 21 22 22 21 21 22 22 21 22 23 26 27
29 33 31 27 26 26 26 25 25 24 24 24 24 24 25 28 25 23 23 23 22 21 22 21 22 22 21 21 21 21 20 21 21 21 21 22 22 22 22 22 24 24 26
27 27 30 26 25 25 25 24 24 24 23 23 23 25 29 26 22 22 22 22 21 21 21 21 21 21 21 21 21 20 20 20 21 21 21 22 23 22 24 25 26 26 27
26 25 25 24 24 24 25 24 23 22 22 21 22 23 26 23 22 21 21 21 22 22 22 21 20 21 21 20 20 20 20 20 21 22 22 23 24 25 26 26 27 28 29
24 23 23 22 22 24 22 22 22 21 21 21 21 21 21 21 21 20 20 21 21 21 22 21 20 20 21 21 22 21 20 20 22 23 22 23 25 26 28 30 30 29 28
22 22 21 21 20 22 20 20 20 20 20 20 20 20 20 20 19 19 20 20 20 20 20 20 21 20 20 20 21 22 22 23 24 26 28 30 31 31 31 31 30 27 27
21 20 20 19 18 18 18 18 18 18 17 18 18 19 19 19 18 19 19 20 19 19 19 20 21 20 20 20 21 21 23 29 32 33 34 32 30 30 31 31 28 27 25
20 19 19 18 17 17 16 15 15 15 15 16 17 17 17 17 18 18 19 19 18 19 19 20 21 20 21 21 23 26 31 33 35 37 34 32 30 31 32 29 27 27 26

GFSGL_sfc_temp_042.txt.gz
Temp
60 58 56 52 52 53 55 57 56 56 55 54 54 53 52 52 51 52 51 50 48 48 48 46 45 46 45 46 45 44 43 42 38 41 44 46 44 45 46 47 46 45 47
56 56 52 52 53 55 56 55 56 55 55 54 53 52 51 50 50 50 49 48 47 46 46 45 44 45 44 44 44 42 42 42 39 36 40 41 42 44 44 42 45 46 45
54 51 51 54 55 54 54 54 54 53 52 52 51 50 49 48 48 49 48 47 47 46 45 44 43 43 42 43 42 41 41 41 40 37 37 42 43 42 42 43 42 43 45
50 50 52 54 53 53 53 53 52 52 51 50 49 48 47 47 47 46 47 47 47 46 45 44 43 42 41 41 41 41 41 39 40 39 38 37 37 41 41 39 38 41 40
48 49 51 52 52 51 50 51 51 50 49 48 47 46 47 46 47 45 46 47 45 45 45 44 44 42 40 40 40 39 39 38 36 35 34 35 36 37 37 38 37 38 39
47 47 49 49 50 49 49 49 48 47 47 46 46 45 45 45 41 42 43 45 45 43 42 43 43 42 41 41 41 40 39 35 32 33 33 33 35 37 38 36 33 31 29
48 49 49 49 48 48 48 47 46 45 46 45 44 44 44 44 40 41 42 43 43 43 42 42 41 42 41 40 40 40 40 40 39 38 35 35 35 36 34 31 32 31 31
49 48 49 48 46 47 46 45 44 45 45 45 44 44 43 43 38 40 40 43 43 42 42 41 40 40 40 40 39 36 36 39 40 40 38 37 37 36 36 36 34 32 34
47 47 47 47 46 46 44 43 44 44 44 44 43 42 41 42 38 38 40 42 41 41 42 42 41 40 40 40 37 33 37 38 41 40 39 39 39 39 37 34 30 28 27
46 46 47 47 46 44 42 43 43 44 43 43 42 42 39 41 39 38 39 41 39 40 41 42 41 40 40 39 37 36 34 36 35 34 37 38 38 38 37 35 32 26 26
46 45 44 44 42 42 44 44 43 42 42 42 41 42 41 40 40 38 38 39 39 38 38 39 40 39 39 39 38 36 34 36 34 35 35 35 36 35 36 35 33 28 25
42 40 40 41 42 43 43 42 41 41 41 40 40 41 42 42 39 38 38 38 39 38 37 38 39 38 37 36 36 35 35 35 34 32 31 31 31 31 31 32 31 30 30
39 39 40 42 42 42 42 41 42 41 40 39 38 38 39 40 40 38 38 39 39 38 37 38 38 37 35 34 34 34 33 33 31 28 27 28 30 30 29 29 30 31 30
40 41 41 41 41 41 41 41 41 40 38 37 37 36 37 38 38 39 38 39 39 37 37 37 36 35 34 34 33 34 33 32 30 28 28 29 30 29 28 30 27 27 26
42 41 40 40 40 40 39 40 40 40 37 36 36 36 34 34 36 37 37 36 37 36 36 34 33 32 31 31 31 31 32 32 28 28 27 27 27 28 27 29 27 27 25
40 40 40 40 40 39 39 39 35 35 35 35 35 35 36 36 36 35 35 36 36 35 31 30 29 29 28 28 27 27 28 28 28 27 26 26 25 25 26 27 28 26 24
40 39 38 39 38 38 38 36 34 37 36 35 34 34 34 33 33 34 35 34 33 31 29 28 27 27 26 26 26 26 26 27 26 26 25 25 25 26 25 25 26 26 26
38 36 38 37 37 37 36 35 34 32 32 33 35 33 33 32 32 33 33 31 29 29 28 26 26 26 26 25 25 25 26 26 25 25 25 25 24 24 24 25 26 25 26
38 37 37 36 36 34 34 33 33 32 32 31 32 33 33 32 33 33 31 28 26 26 26 26 27 26 25 25 25 25 25 24 24 24 24 24 25 25 25 26 26 28 29
37 34 34 35 34 33 33 32 31 31 30 30 30 29 30 31 29 28 28 27 26 26 26 25 26 26 25 25 24 24 24 24 24 24 25 25 26 26 25 26 27 27 28
36 35 31 33 32 31 31 30 30 29 29 28 28 30 29 27 26 26 26 26 26 25 25 25 25 25 25 25 24 24 23 23 24 24 24 25 26 25 28 28 29 30 30
34 33 32 31 30 30 30 30 29 28 27 27 28 28 28 27 27 26 26 26 26 26 27 25 25 25 24 23 23 23 23 23 24 24 25 25 26 27 28 30 30 31 31
32 31 30 30 29 28 29 28 27 27 27 27 27 26 26 26 26 25 25 26 26 26 26 25 24 23 25 25 25 24 23 23 24 25 24 25 26 28 29 31 32 31 31
31 30 29 28 28 28 27 27 26 25 25 25 25 25 25 25 25 24 25 25 25 25 25 25 24 23 24 24 25 25 25 25 26 26 27 30 32 32 32 32 32 31 31
29 28 28 27 26 25 25 25 24 24 23 23 23 24 24 24 24 24 25 25 24 24 24 25 24 24 24 24 24 24 26 29 32 33 34 33 32 32 32 32 31 32 31
27 26 26 26 25 25 23 22 22 22 22 22 22 23 23 22 23 24 24 24 24 23 23 25 25 24 24 25 26 27 31 34 36 37 35 34 33 32 33 32 31 31 31

GFSGL_sfc_temp_045.txt.gz
Temp
67 64 61 57 55 54 53 54 53 55 55 56 56 55 54 53 53 53 52 51 49 49 49 48 47 47 45 45 45 44 42 41 36 39 43 45 43 42 45 45 46 45 44
63 60 56 55 54 54 54 54 55 55 57 56 56 55 53 52 52 51 50 50 48 47 47 46 45 47 44 44 44 42 41 42 38 35 39 39 40 43 43 42 44 46 44
60 57 54 54 53 53 53 54 55 55 54 54 54 52 51 50 50 50 49 49 48 48 47 45 44 44 42 42 42 41 41 42 40 37 36 40 40 41 40 41 41 42 45
57 55 53 53 52 53 53 55 54 54 52 52 52 50 49 49 48 48 48 47 47 48 47 46 45 43 42 41 40 39 40 38 38 36 35 34 36 38 38 36 36 39 38
54 53 51 52 52 54 53 53 53 52 51 50 49 48 48 47 48 44 46 46 46 46 46 46 45 44 43 42 40 38 38 36 34 32 32 33 32 34 34 36 34 35 35
51 49 50 51 52 51 51 51 50 49 48 48 47 47 46 47 41 42 43 43 44 44 43 44 44 43 43 43 42 42 41 36 32 31 31 31 32 34 35 33 31 29 27
47 48 49 50 50 50 50 49 47 47 47 46 46 46 45 45 41 41 42 42 42 43 42 42 42 43 42 41 41 42 41 41 40 36 33 33 33 34 32 29 30 30 29
46 47 49 50 49 49 48 46 46 46 46 46 45 45 44 45 40 40 41 41 42 42 43 42 41 40 41 40 39 35 35 36 38 40 37 36 36 36 33 33 32 31 32
46 48 50 49 48 47 45 45 45 45 45 45 44 43 43 43 40 39 39 40 41 40 42 42 41 40 42 42 38 33 34 36 41 41 40 40 40 41 40 35 28 27 25
48 49 50 49 47 45 44 44 45 45 43 43 43 44 43 41 43 40 39 39 37 39 40 40 42 41 42 41 37 35 31 33 33 33 35 36 38 37 39 36 32 26 25
49 49 47 46 44 44 44 44 44 43 42 43 42 44 44 43 41 40 40 37 37 37 36 37 39 40 40 40 39 35 33 35 34 33 33 33 33 33 34 34 33 28 25
43 42 41 42 44 45 43 43 42 42 42 42 42 41 43 43 42 41 39 39 39 37 36 37 37 39 39 38 37 36 37 36 32 31 30 29 29 29 30 31 31 30 29
40 40 41 43 44 44 43 42 42 42 41 40 38 38 39 40 41 41 41 40 40 37 37 38 38 38 37 36 36 36 36 32 31 28 27 27 28 29 29 28 30 30 30
41 42 42 42 42 42 40 41 41 40 39 37 37 36 36 37 38 38 37 37 38 37 36 35 36 36 36 35 34 34 32 32 30 28 26 27 28 27 27 28 26 27 25
42 41 41 40 41 40 40 41 41 40 37 35 35 34 33 32 35 36 36 35 35 36 35 32 32 32 30 30 30 30 30 30 28 27 26 25 25 26 25 27 26 26 24
40 40 40 40 41 40 40 40 36 36 36 36 35 34 34 36 36 35 35 36 36 36 31 29 28 28 27 27 27 27 27 27 27 26 25 25 24 23 24 26 26 24 24
41 39 38 41 40 39 39 36 35 38 37 36 36 36 35 34 34 34 35 35 34 33 28 27 26 26 26 26 26 25 24 26 26 25 24 23 24 24 24 23 24 24 24
39 40 39 39 37 37 36 35 35 33 32 34 37 36 36 35 34 35 34 32 29 30 27 26 25 26 26 25 25 24 24 25 24 24 24 24 24 23 23 23 24 24 24
39 38 38 37 35 34 35 34 34 33 32 32 33 34 35 34 34 34 33 28 26 25 26 25 26 25 25 25 24 24 24 23 24 24 23 23 24 24 23 24 25 28 29
36 35 36 36 35 34 34 33 32 31 31 31 30 30 31 30 27 28 28 27 26 26 26 25 25 25 25 24 24 24 23 23 23 23 23 24 24 24 24 24 25 25 26
36 35 33 34 33 32 32 31 31 30 29 29 29 31 32 27 26 26 26 26 26 25 25 25 25 24 24 24 24 23 23 23 23 23 23 24 24 24 25 26 27 28 28
35 34 33 32 31 31 31 30 30 29 28 28 28 29 30 28 27 26 26 26 26 26 26 25 24 24 24 23 23 23 22 22 23 23 24 24 24 25 26 26 28 29 30
34 32 32 31 30 30 30 30 29 28 27 27 27 27 27 26 26 25 25 25 26 25 26 25 24 23 25 25 25 24 23 23 24 25 24 24 25 26 26 28 30 29 29
32 31 30 30 29 28 28 27 27 27 26 26 25 26 25 25 25 25 25 25 25 25 25 25 24 24 24 24 25 25 25 26 26 27 28 28 31 31 31 30 30 29 29
31 30 29 28 27 27 26 26 25 25 25 25 24 24 25 24 24 24 25 25 24 24 25 25 25 24 24 25 25 25 27 31 33 33 33 32 31 31 31 30 30 30 30
28 28 28 27 26 26 25 24 23 23 22 23 23 23 23 23 23 23 24 24 24 23 23 24 25 25 25 25 27 29 33 34 35 36 33 31 30 31 32 31 30 29 28

GFSGL_sfc_temp_048.txt.gz
Temp
62 58 53 51 52 53 53 53 53 54 53 53 51 51 49 47 46 45 44 44 42 41 41 40 40 40 37 36 36 35 34 32 31 35 37 38 35 36 40 40 42 41 42
57 52 50 50 51 52 52 52 53 53 54 52 52 49 48 46 45 44 43 43 41 40 40 39 39 43 36 36 34 34 33 33 32 31 35 35 34 36 38 37 40 43 41
52 50 49 50 51 52 52 53 53 53 51 51 49 47 45 45 45 43 43 42 41 40 40 38 38 37 34 34 33 32 32 37 33 32 31 35 35 36 35 37 37 38 41
49 49 50 51 51 52 52 52 51 51 49 48 45 44 45 45 44 43 43 41 40 40 40 39 38 37 35 33 34 32 34 31 32 31 31 30 32 34 33 32 32 34 35
49 50 49 51 51 51 50 50 47 48 46 45 43 43 43 43 45 40 40 39 38 37 38 39 39 40 44 42 39 32 32 31 30 29 29 30 31 31 30 32 31 32 33
49 49 50 49 49 48 48 47 45 43 43 44 42 43 40 46 43 43 42 38 37 36 35 36 37 41 40 44 43 43 41 35 31 29 29 29 29 30 32 30 29 26 25
48 48 48 48 47 46 46 45 42 42 41 42 41 40 41 40 42 42 42 37 35 34 34 35 36 41 39 35 39 42 40 41 40 35 31 30 30 32 28 27 28 28 28
46 46 47 47 45 45 44 42 41 42 40 39 41 41 41 42 42 41 41 35 34 34 34 34 33 33 34 38 36 29 30 31 33 36 34 34 33 34 35 32 31 30 30
43 44 46 45 44 44 42 41 39 38 41 41 41 40 36 35 41 41 39 33 33 31 35 34 35 34 39 42 36 29 31 31 38 39 39 39 40 40 39 34 27 26 25
42 44 45 43 42 40 38 39 41 41 40 40 38 36 40 34 42 42 39 33 29 30 31 33 39 39 41 41 36 34 29 29 30 30 32 32 34 31 37 31 29 25 24
39 38 39 41 40 41 41 41 40 37 36 35 35 35 36 37 35 42 42 34 31 31 29 31 32 39 40 40 40 32 31 35 34 30 29 29 30 30 30 30 31 28 24
39 40 41 42 43 42 39 37 36 35 34 34 33 32 34 34 41 40 42 41 39 32 31 31 31 38 39 39 37 37 38 37 29 28 27 26 26 26 27 28 28 28 28
40 39 40 40 39 38 35 34 34 34 33 32 31 29 29 32 31 40 39 39 38 34 33 36 38 37 37 34 36 37 36 28 27 25 24 25 25 26 26 26 27 27 26
39 38 37 36 35 35 34 35 33 32 30 29 28 27 26 27 28 29 32 29 34 33 34 29 34 34 35 34 31 30 28 28 27 26 24 26 26 25 24 25 24 24 23
37 34 34 35 34 33 33 31 30 29 30 27 26 27 25 24 29 35 34 32 32 34 34 28 27 26 25 26 27 27 27 27 25 25 24 24 24 24 23 24 24 24 22
34 33 32 32 32 31 30 29 37 37 37 36 36 33 30 34 36 36 35 36 37 36 28 24 23 24 23 24 24 24 25 25 24 24 24 23 22 22 22 23 25 22 21
31 31 32 32 30 29 29 27 26 30 39 39 37 37 37 36 36 35 36 36 34 33 24 21 22 22 23 23 22 22 21 23 24 23 22 22 22 22 24 22 22 22 22
32 38 29 28 28 28 27 27 26 26 25 25 33 35 36 36 35 35 35 32 25 26 22 21 21 22 22 22 22 22 22 23 23 22 22 23 22 22 21 21 22 22 23
30 28 28 27 27 29 27 27 26 26 25 24 25 29 32 34 33 32 32 24 22 22 22 22 23 22 22 22 23 22 22 22 23 23 22 22 23 22 22 22 23 27 28
29 36 32 28 27 27 26 26 25 25 24 23 23 24 25 26 21 23 23 22 21 22 22 22 22 22 22 22 22 22 22 22 22 22 22 23 23 23 22 23 23 23 24
27 27 34 27 26 26 25 25 24 24 23 23 23 27 33 24 21 21 22 22 21 21 21 22 22 22 22 22 22 22 21 21 22 22 22 23 23 23 24 24 24 25 26
27 26 26 25 26 26 25 24 24 24 23 22 22 26 30 24 21 21 22 21 22 23 24 23 22 23 23 22 22 22 21 21 22 22 23 24 25 25 25 24 25 26 28
26 26 25 25 25 27 24 24 23 23 22 22 22 24 24 23 22 20 21 22 22 23 24 24 23 23 24 24 24 23 22 22 24 25 24 24 26 27 27 29 29 28 27
25 24 24 23 23 22 22 22 22 25 24 23 22 23 21 22 21 21 21 21 22 22 23 24 24 23 23 23 24 26 26 26 27 29 31 31 29 30 29 29 29 28 28
23 23 22 21 21 20 21 21 20 21 21 22 22 22 21 21 20 19 20 21 21 21 22 23 23 23 23 23 24 25 26 32 33 33 32 30 28 28 30 30 29 29 27
23 22 21 20 19 19 19 17 15 15 15 19 19 17 18 19 19 19 19 20 21 22 22 23 23 22 22 23 26 29 33 35 35 36 32 30 29 30 30 28 27 27 26

GFSGL_sfc_temp_051.txt.gz
Temp
55 52 50 48 49 49 50 52 54 53 53 52 51 51 49 48 48 46 44 44 43 42 41 39 39 38 36 35 34 33 32 30 28 31 32 34 32 33 36 37 38 39 40
51 50 48 49 50 51 50 53 54 52 53 52 51 50 49 48 46 45 44 43 41 41 40 39 39 42 36 35 33 32 30 30 28 29 31 32 32 33 35 34 38 41 39
50 51 50 50 51 50 51 52 52 52 51 50 50 48 47 46 45 42 42 42 42 40 40 39 38 37 34 33 32 30 30 35 30 29 30 33 32 33 33 34 34 35 38
49 49 49 49 50 51 52 52 51 50 49 48 47 46 45 45 44 42 41 41 39 39 39 38 37 35 33 32 32 31 33 29 28 28 29 28 31 34 32 30 30 33 33
49 48 48 50 50 51 49 49 49 48 47 46 44 43 42 43 43 39 41 38 38 37 37 37 37 38 43 42 38 31 30 28 27 26 27 28 31 30 28 30 29 31 32
48 47 49 49 48 47 47 46 45 45 44 43 42 41 41 44 44 44 41 38 36 35 33 34 34 39 39 43 43 43 41 33 25 24 28 29 28 28 30 30 28 26 25
47 48 47 47 45 44 44 44 43 42 42 40 40 39 39 40 44 43 42 37 33 32 32 33 34 39 36 33 37 41 40 41 40 34 29 28 28 30 28 26 27 28 28
45 44 43 41 40 42 43 42 41 40 39 39 40 40 38 41 43 42 41 33 32 32 33 32 31 31 32 37 33 30 31 30 31 33 32 32 32 34 34 32 31 29 29
42 42 39 40 41 41 40 40 41 41 40 40 40 39 36 37 41 42 38 33 32 30 33 32 33 31 38 41 35 28 29 30 37 39 39 39 39 39 38 33 26 24 23
36 35 41 40 39 36 37 36 37 40 40 39 38 37 39 34 42 42 40 33 30 30 30 31 37 37 40 41 36 33 28 28 29 28 30 31 33 30 36 30 27 23 22
38 37 36 36 35 35 37 39 39 38 37 35 33 33 35 36 34 43 43 33 31 29 28 29 30 38 39 40 39 31 31 35 33 27 28 28 29 29 29 29 28 26 23
36 35 34 37 40 41 38 36 35 34 32 32 32 31 31 32 39 39 41 40 38 30 29 29 30 37 38 38 35 37 38 36 28 27 26 25 25 25 26 27 27 27 26
37 38 39 39 38 36 33 32 32 33 32 29 29 27 27 29 27 36 37 38 37 32 31 34 37 36 35 32 34 35 34 27 26 23 23 24 24 25 25 25 25 25 24
37 36 36 34 33 33 33 33 31 30 28 28 27 25 23 25 26 28 30 28 33 33 33 28 33 32 32 31 29 29 27 26 26 25 23 24 25 25 23 24 22 23 22
36 33 33 33 32 30 31 29 28 28 29 27 25 26 24 24 28 35 34 32 32 34 32 26 25 25 24 25 26 26 26 26 24 23 23 23 23 23 23 24 22 22 21
32 32 31 30 29 29 28 28 37 37 38 37 36 33 30 35 37 36 36 37 36 35 26 23 22 22 22 23 23 23 23 24 23 23 22 22 21 21 21 23 24 22 20
31 31 31 29 28 27 26 25 24 29 36 37 38 38 37 36 36 35 35 35 33 31 23 21 20 21 21 21 21 20 20 22 22 22 21 21 21 21 23 21 21 21 21
31 35 28 27 26 25 25 25 25 24 23 24 31 34 35 35 34 33 33 30 24 25 21 20 20 21 21 20 20 20 21 21 21 22 22 23 23 22 21 21 21 21 21
29 27 26 25 26 28 26 26 25 24 23 22 23 28 30 33 33 32 31 23 20 20 20 20 21 21 20 21 21 21 21 21 23 23 21 22 23 22 21 22 22 26 27
29 34 30 26 26 25 25 25 24 23 22 22 22 23 24 25 20 22 22 20 20 20 21 20 21 21 21 21 20 21 20 20 20 21 21 22 23 23 22 22 23 22 23
26 28 32 25 25 25 24 23 23 23 22 21 21 25 31 21 19 19 20 20 20 20 20 21 21 21 21 21 21 20 20 20 21 22 22 23 23 23 25 25 24 24 24
25 25 25 24 24 24 24 23 22 22 22 21 21 24 29 23 19 19 20 20 20 21 23 22 21 22 22 21 21 21 21 21 22 23 23 25 25 25 25 26 26 26 27
25 25 24 23 24 26 22 22 22 21 21 20 20 22 23 22 21 18 19 20 20 21 23 23 22 22 23 23 23 23 22 22 24 25 25 25 27 29 29 28 28 28 28
23 23 22 22 22 20 21 20 20 23 22 21 20 22 20 20 20 20 19 19 20 21 22 22 22 22 22 22 24 25 25 26 27 29 32 31 29 29 29 29 29 27 27
22 21 21 19 20 19 19 19 18 19 19 20 20 21 19 19 18 18 18 19 19 19 20 21 22 22 22 22 22 24 26 31 33 33 33 29 29 29 29 29 28 27 27
21 21 20 19 18 17 18 16 13 13 13 17 17 15 16 17 17 17 17 18 19 20 20 21 22 21 21 22 24 27 32 34 35 36 35 31 30 30 30 30 27 26 26

GFSGL_sfc_temp_054.txt.gz
Temp
49 48 47 47 47 48 48 49 51 52 52 52 51 50 49 48 48 46 44 45 44 43 42 41 38 38 37 34 33 33 31 29 26 29 30 32 30 31 34 35 36 36 37
48 46 45 46 47 46 48 50 51 51 52 51 51 49 48 47 45 44 45 43 42 41 39 38 38 42 35 34 32 31 30 29 27 27 29 28 29 31 31 31 35 38 37
46 46 45 45 46 46 47 49 51 51 51 50 49 48 47 46 45 45 44 42 42 41 40 38 37 35 33 32 31 30 29 33 28 27 28 29 29 29 31 32 31 33 36
46 46 45 46 47 50 50 51 51 50 48 47 47 46 45 44 43 42 41 39 38 39 38 36 36 35 34 32 32 31 32 29 28 27 28 27 26 30 29 29 29 32 32
45 45 45 47 49 49 49 48 48 47 46 45 43 42 41 40 41 39 38 37 37 38 35 35 35 38 42 41 37 32 30 29 28 24 26 22 24 28 28 29 28 30 31
45 45 47 48 46 46 46 44 43 42 41 40 37 37 39 43 43 43 40 38 37 35 32 33 33 37 36 41 42 43 41 32 23 21 21 25 27 28 29 28 27 25 25
44 44 44 44 42 42 42 41 39 38 38 37 39 40 38 40 44 44 41 35 32 31 30 30 32 37 34 32 36 40 39 41 41 35 29 27 27 28 28 25 26 27 27
39 40 41 40 39 39 38 36 35 35 36 37 37 37 37 40 44 43 40 33 31 31 30 30 29 30 31 35 33 29 30 30 31 32 30 30 31 32 33 32 30 28 28
37 38 38 38 36 36 35 35 37 38 37 37 39 38 38 37 42 42 37 31 31 30 31 31 32 31 36 40 34 28 29 30 36 39 39 39 39 39 38 31 25 24 22
36 35 35 34 33 33 35 35 34 33 34 37 36 35 38 32 42 43 39 32 31 31 30 31 35 35 39 40 35 30 26 28 29 28 28 30 32 30 35 30 25 22 21
35 33 33 35 35 34 33 32 33 34 34 34 33 31 31 33 32 42 42 32 31 29 28 29 30 37 38 39 39 29 30 34 30 26 27 27 28 27 28 28 27 24 22
35 35 35 35 36 35 33 33 34 33 30 29 29 28 29 29 37 38 39 38 37 29 29 29 29 37 37 36 34 35 37 34 27 26 25 24 24 24 25 26 27 26 26
34 33 34 36 38 37 34 31 30 30 29 28 28 26 26 28 26 35 36 37 36 32 30 34 36 35 34 31 33 34 33 25 25 22 22 23 23 24 25 25 26 25 23
37 36 35 32 32 32 32 32 30 28 27 27 27 24 23 25 26 28 30 28 33 32 32 26 31 31 31 30 28 28 27 26 25 23 22 24 25 25 24 24 22 23 22
35 31 31 32 30 29 29 28 27 27 29 27 25 26 24 24 29 34 34 32 30 32 29 25 24 24 23 24 24 25 25 25 23 22 22 23 23 23 22 23 22 21 19
30 30 30 29 28 27 26 26 37 37 38 37 36 32 31 35 37 36 36 36 34 34 25 22 20 21 21 21 21 22 22 23 22 22 22 21 20 20 21 22 23 21 19
30 30 30 28 26 25 24 24 24 28 36 36 36 36 36 35 35 35 34 33 32 30 21 19 19 20 20 20 20 19 19 21 21 21 20 20 21 21 23 21 21 21 20
30 34 26 24 24 23 24 24 24 24 22 23 29 32 34 34 34 33 32 29 23 24 19 18 18 19 20 20 20 19 20 20 20 20 21 22 22 20 20 21 21 20 20
27 25 25 25 25 26 25 25 24 23 22 20 22 26 29 32 31 30 30 21 19 19 19 19 20 20 20 20 20 20 19 19 22 21 20 21 21 21 21 22 22 26 27
27 32 28 25 25 24 24 23 23 22 20 20 20 21 23 23 17 20 20 19 18 19 20 19 20 20 21 20 20 20 19 19 19 20 21 22 23 24 22 22 23 23 24
26 27 31 25 24 23 23 22 22 21 20 20 20 23 30 19 17 18 18 18 18 18 19 20 20 20 20 20 20 20 20 19 20 21 22 23 24 24 25 25 26 26 26
25 24 24 23 23 23 22 22 21 21 20 19 19 22 28 21 17 17 19 18 19 20 20 21 20 20 21 21 21 20 20 19 20 22 24 25 26 26 26 27 28 28 28
24 24 23 22 23 25 21 21 20 20 19 19 19 21 21 20 19 17 18 19 19 19 20 21 21 20 21 22 22 22 21 21 23 25 24 25 28 29 28 28 28 28 27
23 22 21 21 21 19 19 19 19 21 21 20 19 20 19 18 18 18 18 18 18 19 19 20 21 20 21 21 23 24 23 24 26 28 31 32 31 29 29 29 29 28 27
21 21 20 18 19 18 18 18 17 17 18 19 19 19 18 18 17 17 17 17 16 17 18 20 20 20 20 21 22 23 24 30 32 32 34 33 31 29 30 30 30 29 27
21 20 19 18 17 16 17 14 12 11 11 15 16 14 15 15 16 16 16 16 16 18 18 19 20 19 20 21 23 26 31 33 34 36 35 33 31 31 31 31 29 29 28

GFSGL_sfc_temp_057.txt.gz
Temp
50 47 47 46 45 46 46 47 47 49 49 49 49 50 49 48 48 47 46 45 42 42 42 41 41 41 39 35 34 32 30 29 26 29 29 31 30 31 33 33 34 34 35
45 44 43 44 44 44 45 46 48 48 49 49 51 50 49 48 47 46 45 44 42 41 41 40 40 42 38 36 35 31 30 29 27 27 27 27 28 30 30 29 34 37 35
43 42 42 42 43 47 49 50 51 50 50 50 49 47 46 46 45 45 44 42 42 41 40 38 38 38 36 34 33 30 30 33 28 26 27 27 28 28 27 29 30 31 35
43 42 42 45 47 47 48 49 50 50 48 47 46 45 44 44 43 42 41 39 39 39 39 38 38 37 35 34 33 31 32 28 27 27 28 26 26 28 26 27 28 30 30
44 45 45 47 47 48 48 48 47 46 45 44 42 41 40 40 41 38 38 36 36 37 37 37 36 37 41 40 37 30 29 28 28 25 25 23 21 25 27 29 27 29 29
45 44 46 46 45 44 43 42 42 41 40 39 38 38 38 40 40 40 38 37 37 35 33 32 32 36 35 40 41 42 40 31 22 21 19 23 26 26 29 27 27 25 24
41 41 42 42 41 41 41 40 38 37 37 36 35 37 36 38 40 40 38 35 32 32 31 30 32 35 33 31 36 40 39 41 40 34 28 28 27 28 28 26 27 25 27
38 38 39 39 38 38 37 35 34 34 34 33 33 33 33 37 41 40 39 34 33 32 31 29 28 29 30 34 32 29 29 30 31 32 29 30 30 31 31 31 30 28 28
36 35 36 38 36 35 33 33 33 33 32 32 32 34 36 38 42 42 37 32 33 30 30 30 31 29 35 39 33 29 30 30 36 39 39 39 39 39 38 31 24 23 22
36 35 36 35 35 33 33 32 32 33 32 33 33 33 37 34 41 42 39 33 30 30 30 30 35 34 38 40 36 29 25 27 28 27 28 29 31 29 35 29 24 20 22
36 35 35 35 34 33 32 32 32 33 32 31 32 31 32 34 33 42 40 32 31 29 29 29 30 36 38 39 38 27 29 33 29 25 26 26 27 27 28 27 27 22 22
33 33 33 33 35 35 33 33 30 30 30 31 30 29 29 28 36 37 38 38 37 30 29 29 29 36 36 36 33 34 36 34 26 25 24 23 23 24 24 25 26 26 27
34 34 34 35 36 34 31 29 28 28 27 26 29 26 26 29 26 35 36 37 37 32 30 33 34 34 33 29 32 34 33 24 24 22 21 22 23 23 23 23 25 25 24
34 35 32 30 29 29 30 29 27 26 26 28 27 25 24 26 27 28 30 27 33 31 30 25 30 30 30 29 28 27 26 25 24 23 21 23 23 22 22 23 21 22 21
31 30 29 29 27 27 28 26 26 26 29 27 26 26 24 24 29 34 33 31 28 31 28 24 23 22 21 23 23 24 24 24 22 21 21 22 22 22 21 22 21 20 19
29 29 28 27 27 27 26 25 38 37 38 37 35 32 31 35 36 36 35 35 33 34 24 20 19 19 20 20 20 21 21 22 21 21 21 20 20 20 20 22 23 21 19
28 28 28 26 24 23 23 24 24 28 35 36 35 35 35 35 35 34 34 33 31 29 20 17 17 18 19 19 19 19 18 20 19 19 18 19 19 20 23 20 20 21 20
29 34 26 23 23 23 24 24 24 23 21 22 28 31 33 33 33 32 32 28 22 22 18 17 17 19 19 19 19 19 19 19 19 19 19 21 21 20 20 20 21 21 21
26 25 24 24 24 26 24 24 23 22 21 19 20 25 28 31 31 29 29 20 17 17 18 18 19 19 19 20 20 19 18 18 21 21 19 19 21 22 22 23 23 27 27
27 32 28 25 24 24 23 23 22 21 19 19 19 20 21 22 16 18 19 17 17 17 18 18 19 19 19 19 19 18 18 18 18 19 20 21 23 24 23 23 24 24 25
26 27 31 24 23 23 22 21 21 20 19 19 19 22 30 18 16 16 17 17 17 17 17 18 19 19 19 18 18 18 18 19 19 20 20 23 24 24 26 26 25 26 28
25 24 24 22 22 22 21 21 20 20 19 18 18 21 27 20 16 16 17 17 18 18 19 19 19 19 19 19 19 19 20 20 20 21 23 25 26 27 27 28 28 28 28
24 23 22 22 22 25 21 20 19 19 18 18 17 20 20 19 18 16 17 18 18 18 19 20 19 19 19 19 21 21 21 20 22 24 23 25 27 31 31 29 28 29 28
22 21 21 20 20 19 19 18 18 21 20 19 18 19 17 17 17 17 17 17 17 18 18 18 19 19 20 20 21 23 23 23 24 26 28 31 31 31 31 30 30 30 29
21 20 20 18 19 18 18 17 17 17 17 18 18 18 17 17 16 16 16 15 15 16 17 18 19 19 19 19 21 22 24 29 32 32 33 33 31 30 30 30 30 29 29
20 20 19 17 16 16 16 15 12 11 11 15 15 13 14 14 15 15 15 15 15 16 16 18 19 17 18 20 21 24 31 33 34 35 35 33 31 31 31 31 30 28 29

GFSGL_sfc_temp_060.txt.gz
Temp
47 46 46 46 46 46 45 44 45 46 47 47 48 48 48 49 49 47 46 45 44 43 43 42 40 40 38 37 36 36 35 33 28 30 30 31 31 32 34 32 33 31 33
43 43 44 47 47 46 45 45 46 47 49 48 49 49 49 48 47 46 45 44 42 41 40 39 38 40 37 37 36 35 35 31 29 27 28 28 28 30 30 28 34 37 35
42 41 44 45 47 47 47 48 49 49 49 50 49 47 47 46 45 45 43 41 40 39 38 37 37 36 36 36 35 34 31 34 29 27 26 27 27 27 27 28 28 30 33
42 43 45 46 46 47 48 48 49 49 47 46 46 45 44 43 42 41 40 38 38 36 37 37 36 36 35 34 35 33 32 29 28 27 27 24 26 28 25 26 27 29 30
41 42 44 46 46 46 45 45 45 44 44 44 42 42 41 41 40 38 37 36 35 34 33 33 32 34 40 39 37 33 31 29 27 22 25 24 21 24 26 29 27 28 29
40 42 43 43 42 42 42 41 40 40 41 41 40 39 39 41 42 40 36 34 33 32 31 33 34 36 36 38 40 41 39 31 23 21 19 22 25 25 25 27 26 25 25
41 41 41 41 40 39 39 38 38 37 37 36 37 38 37 39 40 39 36 32 31 31 33 33 34 36 33 31 35 39 38 40 40 33 27 26 26 28 28 25 27 26 27
39 39 40 39 37 37 37 36 35 35 35 35 34 35 34 37 39 38 36 33 33 32 32 30 28 29 30 34 32 30 30 30 31 31 28 29 28 30 30 31 29 28 28
36 36 37 37 36 35 33 33 34 33 33 33 32 33 34 36 40 38 34 33 33 32 32 30 31 30 35 39 33 29 29 29 35 38 38 38 38 38 37 30 24 23 22
35 35 36 35 34 33 33 32 32 33 32 32 32 33 36 32 38 40 36 33 30 30 31 30 35 34 38 39 35 28 24 25 27 26 28 29 30 28 34 28 23 19 21
36 35 35 35 34 33 33 32 32 32 31 30 30 31 32 34 36 41 39 31 31 29 29 30 30 36 38 38 37 27 27 31 29 24 25 25 26 26 27 27 26 20 21
35 34 33 33 34 34 32 32 31 31 30 29 28 28 28 27 37 38 38 38 37 30 29 29 29 36 35 35 33 34 36 33 25 24 23 22 22 23 24 25 25 24 25
34 34 34 34 35 33 30 29 27 28 27 26 28 25 25 28 26 36 36 37 36 31 31 32 34 33 32 29 31 33 32 23 23 21 21 22 22 22 23 22 23 23 21
33 33 30 28 28 28 29 28 26 26 25 27 27 25 23 25 26 27 30 27 33 31 30 25 30 29 29 29 27 26 25 24 23 22 20 22 22 19 21 22 20 21 20
29 29 28 28 26 26 27 25 25 25 28 26 25 26 24 24 29 34 33 31 28 30 27 23 21 21 20 22 22 23 23 23 21 21 20 21 21 21 21 21 20 20 19
28 28 27 26 25 26 25 24 38 37 38 37 35 32 30 34 36 36 35 34 33 33 23 19 18 18 19 20 20 20 21 21 20 20 19 19 18 18 19 21 22 20 19
27 27 27 25 23 22 22 24 23 28 35 35 35 35 35 34 35 34 33 32 31 28 19 16 16 18 18 19 18 18 17 19 17 17 17 17 18 20 23 20 20 21 21
28 33 25 23 23 22 23 23 23 22 21 21 28 31 33 33 32 32 31 27 21 21 17 16 16 18 18 18 18 17 18 18 17 17 17 20 20 20 21 21 22 21 22
27 25 24 23 24 25 23 23 22 21 20 18 19 24 28 31 30 29 28 19 16 16 16 17 18 18 18 18 19 18 17 17 20 20 18 19 21 22 22 23 23 27 28
27 31 28 24 24 23 22 22 21 20 18 18 18 19 20 21 16 17 18 16 16 16 17 17 18 18 18 18 18 17 17 17 16 17 19 21 22 23 23 25 26 25 25
26 27 30 24 22 22 21 21 20 20 19 18 18 21 30 18 15 15 16 16 16 16 16 17 17 18 18 18 17 17 17 19 18 19 20 22 23 24 27 27 27 26 27
25 24 23 22 22 22 21 20 19 19 18 17 17 20 27 19 15 15 17 16 17 17 18 18 18 18 19 18 18 17 19 20 21 20 22 23 24 25 27 28 30 29 29
24 23 22 21 21 24 20 20 19 18 18 17 17 19 19 18 17 15 16 17 17 17 18 18 18 18 19 19 19 20 20 21 22 23 23 23 25 26 31 29 29 29 28
22 21 21 20 20 18 18 18 18 21 20 18 17 19 17 17 16 16 16 16 16 17 17 17 17 17 18 19 20 21 22 23 24 24 25 27 30 32 31 29 29 30 29
21 20 20 18 19 18 18 17 17 17 17 18 18 18 16 16 15 15 15 14 14 14 15 17 17 17 17 18 19 20 22 27 30 31 32 32 32 32 30 30 30 30 30
20 20 19 17 16 16 16 15 12 11 11 14 15 13 14 14 15 14 14 14 14 15 15 16 17 16 18 19 20 23 29 32 32 34 34 33 32 32 31 31 31 31 30

GFSGL_sfc_temp_063.txt.gz
Temp
50 50 49 49 50 51 52 52 53 52 52 53 52 51 51 50 50 48 47 47 45 45 44 42 41 40 39 38 37 36 35 35 31 35 40 42 41 42 43 44 43 43 44
47 47 48 50 51 50 49 49 50 50 51 51 51 50 49 49 49 47 47 46 44 42 41 40 39 40 37 36 35 34 35 35 35 34 39 39 39 40 41 40 41 42 43
47 48 49 49 50 49 49 50 50 50 50 50 50 48 47 47 46 46 45 43 42 40 40 38 37 36 34 33 33 33 34 37 35 32 34 38 38 39 39 39 39 40 41
46 46 46 47 47 47 48 49 49 49 48 47 47 45 44 44 44 43 41 39 39 37 37 36 34 33 32 33 33 33 35 34 35 35 36 35 36 38 36 35 36 39 38
44 44 43 45 45 44 43 43 43 43 43 43 42 41 42 42 42 39 38 37 35 34 33 33 33 34 35 37 38 37 37 37 36 34 34 34 34 35 35 36 34 36 37
42 42 43 42 42 40 40 40 40 40 41 41 40 40 40 41 43 41 38 35 34 33 32 32 33 37 35 36 38 40 41 38 34 33 32 32 34 35 35 34 33 31 28
41 41 41 40 39 38 39 38 37 36 37 37 38 38 38 40 42 40 37 32 32 32 34 36 36 36 34 35 37 39 39 39 39 37 34 34 33 35 34 30 32 31 30
38 38 39 38 37 37 36 34 33 34 34 33 32 33 36 37 38 38 36 34 36 35 32 33 34 35 35 38 37 35 35 36 37 37 37 36 37 36 36 34 34 34 34
36 36 37 37 36 35 33 33 34 33 32 32 33 34 35 36 39 37 36 36 35 34 34 35 36 35 36 40 37 33 35 35 37 37 38 38 38 38 37 35 30 28 26
35 35 36 35 35 33 33 33 32 32 32 33 32 33 36 35 38 38 37 37 35 34 35 35 36 37 38 39 37 33 30 33 33 33 35 35 35 34 34 34 31 25 25
36 35 35 35 34 34 33 33 32 31 31 30 30 32 35 38 40 40 38 36 35 34 33 33 34 36 37 37 37 33 33 37 32 32 32 32 33 33 33 33 32 27 24
35 34 33 34 35 34 33 33 33 33 32 31 32 32 33 33 38 39 39 38 38 33 32 33 34 35 35 34 33 35 36 33 31 30 29 29 29 29 30 30 30 29 29
35 34 34 35 35 34 34 33 32 32 32 31 31 30 30 32 33 37 37 37 36 33 34 34 33 33 32 30 32 32 31 30 28 26 26 27 27 28 27 27 28 28 27
35 33 33 32 31 32 33 32 31 31 30 31 31 29 29 31 32 33 34 33 34 33 31 30 31 30 29 29 29 29 29 29 28 27 25 26 27 27 26 28 25 26 24
33 32 32 31 30 30 31 32 32 31 33 31 30 30 30 30 33 36 35 34 34 34 30 28 27 26 26 27 27 27 27 27 26 25 24 24 25 25 25 27 25 24 23
31 31 31 30 31 31 31 31 38 38 38 37 35 33 33 35 36 35 35 34 33 32 27 24 24 24 24 24 24 25 25 25 25 24 23 23 22 23 23 26 28 25 23
31 30 31 29 29 28 28 29 28 31 35 35 35 34 34 34 34 33 33 31 31 28 24 22 22 23 23 23 23 23 22 23 22 21 21 21 22 22 25 25 25 25 26
31 33 29 28 28 27 28 28 28 27 26 26 29 32 32 33 32 31 30 27 24 24 22 21 22 22 22 22 22 22 22 22 22 21 22 23 23 23 23 25 26 26 27
30 29 28 28 28 28 27 26 26 26 24 23 24 27 28 30 30 29 27 22 21 21 21 22 22 22 22 22 22 21 21 20 22 23 21 21 22 24 24 26 27 29 30
30 31 29 28 28 26 26 25 25 24 23 23 23 23 24 25 23 22 22 21 21 21 21 21 22 22 22 21 21 21 20 21 21 21 21 22 24 25 25 26 27 27 28
29 31 30 27 26 26 25 25 24 23 23 22 22 23 29 23 21 20 21 21 21 21 21 21 22 21 21 21 21 20 20 21 22 23 23 24 25 25 27 28 28 29 30
28 27 26 25 25 24 24 24 23 23 22 21 22 22 26 23 21 20 21 21 22 22 22 22 21 21 21 21 21 20 20 21 22 24 24 25 25 26 27 28 28 31 31
27 26 24 24 24 27 24 23 22 22 22 21 21 21 22 21 21 20 20 21 21 21 22 21 21 20 21 21 21 21 20 22 23 24 24 24 25 26 27 28 31 30 30
26 24 24 23 23 22 22 22 21 23 23 21 21 21 20 20 20 20 20 20 20 20 20 20 20 19 19 20 22 22 22 23 24 24 24 25 27 30 31 31 31 31 31
24 23 23 22 22 21 21 21 20 20 20 20 20 20 20 19 19 19 19 19 18 18 19 19 20 19 18 19 19 21 23 26 29 30 31 31 31 31 32 31 31 32 32
23 23 22 21 20 20 20 20 19 18 17 18 18 17 17 17 18 18 18 17 17 18 17 19 19 18 18 20 22 23 29 32 32 34 33 33 32 32 32 31 32 32 32

GFSGL_sfc_temp_066.txt.gz
Temp
59 58 56 57 59 59 59 60 60 60 59 59 58 55 54 53 53 52 48 47 45 42 44 41 39 41 40 40 39 38 36 36 34 34 34 35 38 41 47 47 47 47 48
57 58 56 58 59 58 58 58 58 56 57 56 55 54 52 51 50 48 47 46 44 43 43 41 40 42 38 38 37 35 34 33 33 32 36 36 39 41 41 42 45 47 46
55 56 56 56 56 56 56 56 54 53 52 52 52 50 49 48 47 47 45 44 43 43 42 40 39 38 36 35 34 33 33 33 34 34 35 39 39 42 42 44 44 44 46
53 53 51 50 51 52 51 51 49 50 49 48 48 47 46 46 45 44 43 41 41 40 38 38 37 36 34 33 34 34 35 37 39 38 39 40 41 42 41 40 40 43 42
50 49 48 48 48 46 45 44 45 45 44 44 43 43 43 42 42 40 41 40 37 35 34 34 34 35 36 36 38 40 39 38 38 36 37 39 39 40 39 40 38 40 41
48 47 47 45 44 42 42 41 41 41 41 41 41 41 41 42 43 42 39 36 35 33 32 32 34 37 38 37 38 39 41 39 36 36 35 36 39 40 40 39 37 33 30
44 45 44 44 43 41 40 40 36 36 36 36 37 39 38 39 41 40 37 33 33 33 33 34 35 38 36 38 38 39 40 40 40 40 37 38 38 40 37 33 33 32 32
43 43 42 41 39 38 37 35 34 34 33 33 32 32 32 34 37 36 35 34 35 35 37 36 38 38 38 39 40 39 39 40 40 40 40 40 41 41 38 37 37 37 39
40 39 40 39 37 36 35 34 35 34 33 33 33 33 34 34 36 37 37 35 33 35 36 38 38 39 38 40 40 36 38 39 40 39 38 39 39 39 39 37 33 33 30
37 36 37 37 36 34 35 34 33 34 33 35 33 36 39 39 39 37 39 40 39 39 39 39 36 38 39 39 38 37 34 36 37 37 39 40 40 39 37 37 35 28 27
37 37 36 36 35 34 33 33 33 34 34 35 37 39 41 42 42 40 39 40 39 38 37 37 38 36 37 36 36 37 35 38 37 37 38 38 39 39 38 38 37 31 27
36 35 35 35 36 36 35 37 38 38 38 38 38 38 39 40 40 39 39 38 38 37 36 37 37 35 35 34 35 35 36 35 36 35 34 34 34 34 35 34 33 32 32
37 36 37 40 42 43 42 40 40 40 40 39 38 38 37 38 39 37 37 37 36 36 37 35 34 33 33 34 33 32 33 35 34 32 32 32 32 32 31 31 33 33 32
40 41 42 41 41 41 41 42 41 40 40 39 37 36 37 38 38 39 38 39 36 37 34 36 33 31 31 32 33 34 34 34 33 32 31 32 32 31 31 32 30 30 28
42 41 41 40 40 40 40 42 41 40 40 38 37 37 36 36 37 37 36 36 36 36 33 34 33 33 33 33 33 33 33 33 31 31 29 29 30 30 30 32 30 29 27
40 39 39 39 40 40 40 39 39 38 37 36 35 37 37 36 36 35 34 34 33 32 32 31 31 31 30 30 30 31 31 30 30 29 28 28 27 27 28 30 31 29 27
40 39 38 39 39 39 39 38 35 35 35 35 35 35 34 34 34 33 33 31 31 30 30 30 29 29 29 29 29 29 28 29 27 26 26 26 26 27 28 28 29 29 29
39 37 38 38 39 38 38 37 37 35 34 34 32 33 32 33 32 31 30 30 30 30 28 28 28 28 28 28 28 27 27 27 27 26 26 26 27 27 26 28 29 28 28
38 37 37 37 37 36 36 35 35 34 33 32 33 32 31 31 30 29 28 28 27 27 28 28 28 28 28 27 27 26 26 25 26 26 26 26 26 27 27 28 29 31 31
38 36 36 37 36 35 34 33 33 32 32 31 31 30 31 30 29 28 28 27 27 27 28 27 28 28 27 27 26 26 25 26 26 26 27 27 28 28 27 28 29 29 29
38 37 36 36 35 34 34 33 32 32 31 30 30 30 29 29 28 27 27 27 27 27 27 28 28 28 28 27 26 26 25 26 26 26 27 28 28 27 29 29 30 30 30
37 37 35 35 34 32 33 33 32 30 30 29 30 29 27 29 28 27 27 27 28 28 28 27 27 28 28 26 25 25 25 25 26 27 27 27 28 28 28 28 29 31 30
36 34 33 33 33 32 32 31 30 30 29 29 29 28 28 28 27 27 26 27 27 27 28 27 27 26 27 27 27 26 24 25 26 27 26 26 27 27 28 29 30 31 32
35 34 33 33 32 32 32 31 30 28 29 28 28 27 27 27 26 26 25 26 27 27 27 26 26 25 24 24 26 26 27 26 26 26 25 25 26 28 29 30 32 32 32
33 33 32 32 31 32 31 30 29 28 27 27 26 26 27 26 25 25 25 26 25 24 25 25 25 25 24 23 23 23 25 27 28 29 30 31 31 31 31 32 32 32 32
32 31 32 31 31 30 29 28 28 28 27 27 26 25 25 24 24 24 24 24 23 24 23 24 24 23 23 23 24 26 29 31 32 33 33 33 32 32 32 32 32 33 32

GFSGL_sfc_temp_069.txt.gz
Temp
61 61 60 61 62 62 62 62 62 63 62 62 61 60 58 56 55 52 49 48 44 43 43 41 40 41 39 39 39 38 37 37 35 34 35 36 35 36 38 42 45 45 46
60 61 60 61 61 61 60 60 60 59 60 58 59 57 55 53 51 49 47 45 43 41 40 41 40 41 40 38 37 36 35 34 35 33 33 33 33 37 39 39 42 46 45
58 58 56 56 57 56 56 56 56 55 54 53 52 51 50 49 48 48 46 44 42 41 41 40 40 39 37 35 35 34 34 34 33 33 34 39 39 39 39 42 42 43 46
55 54 52 52 52 51 51 51 50 50 48 47 47 46 45 45 44 44 43 41 40 40 39 39 38 37 35 34 34 34 34 34 35 36 37 38 39 41 39 37 38 40 40
52 51 49 49 48 47 46 45 45 45 46 45 44 43 43 42 42 40 39 38 36 35 35 36 35 37 38 38 38 37 38 37 38 36 35 36 36 37 36 38 36 37 38
50 49 48 48 46 44 44 44 44 43 43 43 41 41 41 42 43 42 38 35 35 33 32 34 36 38 39 39 38 37 38 37 35 35 34 34 36 37 37 36 33 31 29
48 47 47 46 43 42 42 41 39 38 37 36 36 35 35 38 40 39 37 32 32 31 32 33 35 37 36 37 38 39 39 40 40 37 35 35 35 37 32 30 32 32 31
46 45 45 43 40 38 37 35 35 35 34 34 33 33 33 35 38 37 36 32 32 33 33 34 37 37 38 37 38 37 37 38 39 40 37 37 37 38 36 34 34 34 35
42 40 41 40 37 36 35 34 35 34 33 33 34 34 35 36 38 37 36 34 34 33 34 36 38 39 38 40 38 34 36 36 42 41 40 40 40 40 39 35 30 30 30
38 38 38 37 36 35 35 34 33 34 34 35 35 39 41 38 39 40 40 41 38 38 38 38 37 37 39 39 36 35 32 33 34 35 35 38 39 38 41 35 32 28 28
38 37 37 36 35 35 34 34 35 35 36 37 39 41 42 42 40 40 40 39 37 36 36 36 36 37 37 37 37 34 33 36 36 34 34 34 35 35 35 35 34 32 28
37 36 35 37 38 38 36 38 39 39 39 40 39 38 40 41 40 39 39 38 38 36 35 35 36 36 35 35 34 36 36 36 33 33 32 31 31 31 33 33 32 32 32
37 38 39 41 43 44 43 42 42 43 42 40 38 38 37 38 39 37 37 37 37 35 35 34 35 34 34 34 34 34 34 32 32 30 30 29 30 32 31 31 33 33 32
42 42 43 43 43 43 42 44 42 42 40 38 37 36 36 37 37 38 37 37 37 36 34 35 34 32 33 32 33 34 33 32 30 29 29 30 30 31 30 31 29 30 28
44 43 42 42 42 41 41 42 41 39 38 38 36 36 35 35 35 36 35 34 34 34 32 33 32 32 31 32 32 32 32 31 29 29 29 28 28 29 29 30 30 29 27
42 41 40 40 41 40 38 37 38 38 37 37 37 36 36 36 36 35 35 34 33 33 31 30 30 30 29 30 29 29 30 30 30 29 27 26 26 26 26 28 29 28 27
42 40 39 41 40 40 40 38 34 34 35 35 35 35 34 34 34 33 33 32 32 31 29 29 28 28 28 28 27 28 27 28 28 26 26 26 25 25 26 27 28 28 28
41 40 39 40 39 39 39 37 37 36 34 34 32 33 33 33 33 32 32 31 30 31 28 27 27 28 27 28 28 27 26 26 26 26 25 26 26 25 25 26 27 27 27
39 38 38 37 38 38 37 36 36 34 34 33 33 32 32 32 32 31 30 28 27 27 27 27 28 27 28 28 27 26 26 25 26 26 26 26 26 25 25 26 26 30 30
39 39 39 37 36 36 35 34 34 33 33 32 31 31 32 31 29 29 29 28 27 27 27 27 27 27 28 27 26 25 25 25 25 26 26 26 26 27 26 26 27 26 27
38 36 38 37 36 36 35 34 33 33 32 31 31 32 30 28 28 28 28 27 27 27 26 26 26 26 28 27 26 26 25 25 26 26 26 26 26 26 27 27 27 27 27
38 37 36 35 35 33 33 34 33 32 31 30 31 31 30 28 28 28 28 27 28 27 27 27 26 26 26 27 26 25 24 24 25 25 25 25 25 26 26 26 27 27 28
37 36 35 35 34 34 33 32 31 31 31 30 30 30 29 28 28 27 27 27 26 26 27 27 25 25 26 25 27 26 24 23 24 25 24 24 24 24 25 25 26 27 28
36 35 34 34 33 32 32 31 31 31 30 30 29 29 28 28 27 27 26 26 26 26 26 25 25 24 24 23 24 25 25 25 26 25 24 23 23 25 25 26 28 30 30
35 35 34 33 32 32 31 31 29 29 29 29 28 28 28 27 26 26 25 25 24 24 23 24 24 23 22 21 21 22 23 28 28 29 29 29 29 29 30 30 31 31 31
33 34 33 33 31 32 30 29 27 27 26 27 27 26 26 25 25 24 24 23 23 23 22 23 22 21 21 22 22 24 29 31 31 33 31 31 31 32 32 31 31 31 31

GFSGL_sfc_temp_072.txt.gz
Temp
53 53 51 52 53 53 51 51 52 52 52 52 54 57 54 53 52 51 48 47 45 43 43 42 40 41 40 40 40 40 39 38 36 33 35 35 35 36 39 40 42 43 43
51 51 50 50 50 49 48 49 50 48 49 48 51 50 49 49 48 48 46 45 43 41 41 40 39 41 39 39 38 38 36 35 36 33 33 33 34 36 37 38 41 44 41
49 48 47 46 46 44 45 46 46 45 44 45 45 45 44 44 45 45 44 42 41 41 40 40 39 38 36 35 35 34 34 35 34 34 33 35 36 37 34 36 36 38 43
47 45 43 42 42 42 43 43 43 42 41 42 42 43 43 43 42 42 41 39 38 38 38 38 37 37 35 35 35 34 35 34 34 34 34 34 36 37 35 34 32 34 33
45 43 42 42 42 41 40 41 41 40 41 42 42 42 42 40 40 39 38 37 36 35 35 36 36 38 39 37 35 36 36 35 34 33 33 34 32 33 32 33 31 31 32
43 42 43 42 41 41 42 41 41 40 40 40 39 40 41 42 43 41 37 34 34 34 33 33 34 34 36 39 38 39 39 35 34 29 29 30 31 32 32 28 27 25 23
42 42 42 41 40 39 39 38 37 35 35 35 35 36 37 39 42 40 38 33 33 32 32 32 33 34 34 34 37 40 39 39 39 35 30 30 29 31 28 24 27 23 25
40 40 42 39 37 37 36 35 34 34 33 33 33 33 34 37 40 39 37 33 33 32 32 33 33 34 35 36 36 33 34 34 36 37 32 31 32 32 31 28 27 28 28
38 39 39 38 36 36 34 34 34 33 32 33 34 34 33 33 39 39 34 30 29 29 32 33 35 35 39 40 34 32 32 32 40 42 40 40 40 40 39 27 22 21 24
38 37 38 37 36 34 34 33 33 34 33 36 33 32 37 31 41 41 38 33 29 31 32 33 38 36 39 38 32 28 27 28 28 30 30 32 35 33 41 32 24 16 27
38 37 36 36 35 35 34 33 32 30 28 27 31 32 32 34 35 41 40 33 30 29 30 30 31 37 37 36 36 27 29 31 31 27 27 28 29 29 29 30 30 27 27
36 36 35 35 36 35 32 30 31 31 30 30 30 29 30 31 39 39 39 38 36 29 29 28 29 36 36 35 33 36 36 35 27 27 27 25 25 25 30 31 31 31 31
36 36 37 36 35 34 32 32 32 32 31 30 29 27 28 31 29 38 38 37 37 30 30 33 35 35 35 32 35 35 35 27 27 23 23 22 22 22 25 30 31 31 31
38 38 35 34 34 34 35 35 33 32 31 30 29 28 27 28 28 28 30 28 35 32 32 28 33 34 35 33 32 31 29 27 25 21 21 22 24 29 29 30 28 28 28
37 35 34 34 33 31 31 31 30 29 32 29 27 28 27 26 29 34 32 30 28 31 30 26 26 27 26 27 27 27 27 27 23 22 25 27 27 27 27 28 26 26 26
34 32 31 31 32 31 30 29 38 37 38 38 37 33 31 35 36 35 35 34 34 34 26 25 23 22 23 25 25 25 25 29 28 27 26 25 24 24 24 26 26 25 25
33 31 32 34 32 32 32 29 26 30 36 36 35 35 35 35 34 33 33 33 33 32 24 21 21 21 22 22 21 25 26 27 27 26 25 25 25 24 25 24 25 25 25
32 38 31 32 32 32 31 30 28 26 25 25 33 32 34 34 34 33 33 31 26 28 21 20 20 21 21 21 27 25 25 26 25 25 24 23 23 22 20 20 21 23 24
31 30 30 30 30 31 30 29 29 28 27 26 25 30 32 33 33 33 32 24 21 20 21 20 21 20 19 27 27 26 25 24 25 25 23 24 25 23 22 22 23 28 29
31 35 33 30 30 29 28 28 27 27 26 25 25 26 26 27 21 23 24 22 20 21 21 20 20 19 18 25 26 25 24 24 24 24 24 24 24 24 23 24 24 23 25
31 32 36 30 29 28 28 27 27 27 26 26 25 29 33 22 21 21 21 20 20 20 19 20 19 18 14 24 26 25 24 24 25 24 23 23 23 23 24 24 24 25 26
32 31 30 29 29 29 28 28 27 27 26 25 25 28 34 26 21 21 22 21 21 20 21 20 17 17 15 15 21 25 24 23 22 23 22 23 23 24 24 23 24 25 25
33 31 31 30 30 32 29 28 27 27 26 25 25 27 27 25 24 21 21 21 19 20 21 20 19 16 16 16 15 20 23 22 23 23 22 22 22 22 22 23 24 25 26
34 32 31 30 29 28 27 27 26 29 26 26 25 26 25 24 24 23 21 19 19 19 18 18 18 16 16 16 16 17 20 23 24 23 23 23 22 23 24 24 25 26 26
33 32 31 30 30 28 28 27 25 25 26 26 26 26 24 24 22 19 19 18 16 16 18 18 18 17 17 16 16 16 19 27 27 27 27 27 27 26 27 29 30 30 30
33 32 32 31 29 28 28 26 23 21 21 23 23 21 21 20 20 18 17 17 16 17 17 17 17 16 15 16 16 19 27 30 30 32 31 30 29 30 30 30 31 30 30

GFSGL_sfc_temp_075.txt.gz
Temp
50 49 48 48 48 48 47 47 46 47 47 48 49 49 49 51 50 49 48 47 45 44 43 42 41 42 41 41 41 41 40 40 38 35 36 36 36 36 40 41 41 41 42
48 47 46 46 45 44 44 44 45 43 44 44 45 44 43 43 43 46 45 45 43 41 41 40 40 41 39 39 39 38 37 37 38 34 34 34 35 37 38 38 41 44 42
45 44 43 42 42 40 41 42 43 41 41 41 42 41 40 41 40 40 42 42 41 41 40 39 39 38 36 36 35 35 35 36 36 35 33 36 36 37 36 38 38 35 40
44 42 40 39 39 39 40 40 40 40 39 39 39 39 39 39 39 39 38 37 38 38 38 38 37 36 35 35 35 34 35 33 33 33 35 34 35 37 36 32 31 34 33
42 41 39 39 39 39 38 38 38 38 39 40 40 40 39 40 39 36 37 36 36 35 36 37 37 39 40 39 36 34 34 33 33 33 33 33 32 33 31 32 30 30 31
41 40 40 40 42 40 40 39 39 38 38 39 40 40 40 41 43 41 36 34 35 34 33 33 34 35 37 39 38 38 37 34 33 31 29 29 30 29 29 28 27 24 23
39 40 39 40 39 38 38 37 36 35 35 35 37 38 39 40 42 41 38 31 30 30 31 32 34 36 34 33 36 39 39 40 39 32 28 28 28 29 26 22 27 23 24
38 39 40 38 37 36 36 35 34 34 33 33 33 34 35 39 41 40 37 32 31 32 31 30 29 29 31 34 34 32 33 33 34 36 31 30 30 31 30 28 27 27 27
36 38 38 37 36 36 34 34 34 33 33 33 32 30 30 33 40 39 33 28 28 28 30 30 31 31 39 40 31 28 28 30 38 41 40 40 41 41 39 27 22 20 20
36 37 38 37 36 34 34 33 33 34 32 30 27 29 37 30 42 41 34 30 27 29 29 30 38 34 38 38 29 26 25 26 27 29 29 31 32 31 39 30 24 14 16
37 37 36 36 35 35 33 33 31 25 26 25 29 29 30 32 34 40 39 31 29 28 29 29 30 37 37 37 36 27 28 30 30 26 26 26 27 27 28 28 28 18 23
36 35 35 35 36 35 32 29 29 28 27 27 27 27 28 30 38 39 39 38 35 29 28 28 28 36 36 36 33 36 36 34 26 26 26 24 24 23 27 28 32 31 31
36 35 36 37 33 32 29 29 28 29 28 27 28 26 26 29 28 39 39 38 37 30 30 33 36 36 35 31 35 36 35 26 26 22 22 20 20 20 21 30 32 31 30
37 37 33 32 31 30 31 31 30 28 28 28 28 27 25 26 26 27 29 27 33 31 31 27 32 34 35 33 31 30 28 26 24 21 20 21 26 28 28 28 27 27 21
38 35 32 31 30 29 30 28 27 28 30 28 28 28 26 25 29 33 32 30 27 31 30 26 26 26 25 26 26 26 26 26 22 21 26 26 26 27 26 27 26 25 23
35 31 30 30 28 28 27 27 38 37 39 38 37 32 31 35 36 35 35 35 34 34 26 24 22 21 22 24 24 24 24 28 28 27 26 25 24 24 24 25 23 24 22
33 31 31 31 28 27 26 26 25 31 37 36 36 36 36 35 35 34 34 34 34 32 23 20 19 20 20 21 20 20 25 26 26 25 25 24 24 23 23 18 18 20 23
32 37 29 29 29 29 28 28 27 26 25 26 33 33 35 34 35 34 33 31 25 27 20 19 18 20 20 18 22 26 25 25 25 25 24 24 21 22 20 19 18 19 20
31 30 29 29 29 31 29 28 28 27 26 25 24 31 33 35 34 34 34 24 21 19 19 19 20 19 18 18 22 26 25 24 25 24 24 23 17 20 21 20 21 27 27
30 35 32 28 29 29 29 28 27 26 25 25 25 25 25 27 21 22 23 21 20 20 21 20 20 19 17 14 16 26 24 25 24 23 19 20 21 22 21 22 22 22 22
30 31 35 29 28 28 28 28 27 26 26 25 25 28 32 22 21 21 20 20 20 20 20 20 18 16 13 11 11 24 25 24 24 24 20 20 21 21 22 23 23 23 23
33 32 32 29 28 28 28 27 26 26 26 25 24 27 35 27 21 21 21 21 21 21 21 20 17 15 13 11 12 14 24 23 23 23 20 20 21 22 22 22 22 22 24
34 32 32 30 30 32 31 28 27 26 25 25 25 26 27 25 23 20 21 21 20 20 21 20 17 15 14 13 12 13 15 20 21 20 21 21 21 21 22 21 22 23 24
34 33 32 32 30 30 29 29 27 30 27 27 26 27 25 24 23 23 21 20 20 20 19 18 17 15 14 13 13 13 14 17 19 20 20 20 21 22 23 24 24 25 25
35 33 33 31 31 32 30 29 28 27 28 28 27 26 25 24 23 20 19 19 18 17 17 17 16 15 15 14 14 12 15 25 25 25 24 24 23 23 24 25 27 28 28
34 33 33 32 31 31 30 29 28 26 26 26 25 23 23 22 21 19 19 18 17 18 17 17 16 15 14 14 14 16 26 29 29 31 30 29 27 28 29 28 28 28 29

GFSGL_sfc_temp_078.txt.gz
Temp
46 45 44 44 44 44 43 43 44 44 45 46 47 46 45 45 48 49 48 47 45 44 43 42 42 42 41 41 41 41 41 41 37 35 36 37 36 38 40 40 41 41 42
45 44 43 43 42 42 42 42 43 41 42 43 43 42 41 41 40 45 45 45 44 42 42 41 40 42 39 39 39 37 37 37 38 34 35 35 36 37 38 38 41 44 42
43 42 41 40 40 39 39 40 41 40 39 40 40 39 39 39 38 38 38 37 40 40 39 39 39 39 37 36 36 35 35 37 36 36 32 36 36 37 36 38 38 35 39
42 40 38 38 38 38 38 38 39 38 38 38 38 37 37 37 37 36 36 35 36 35 36 37 37 37 36 35 35 35 36 35 35 34 33 33 34 35 35 32 30 32 32
40 39 38 38 38 38 38 38 38 38 38 38 37 37 37 38 38 35 36 36 36 36 36 37 37 40 41 39 34 34 34 34 33 33 33 33 28 32 29 28 28 27 28
40 39 40 41 41 40 39 38 39 38 39 40 41 38 40 42 42 41 36 35 34 33 33 34 35 34 38 41 41 40 38 33 28 29 27 27 28 28 28 27 26 22 22
39 38 39 41 39 38 38 37 36 35 36 36 37 38 39 40 42 41 38 29 28 31 30 26 31 36 35 33 37 39 38 41 38 30 27 26 26 27 24 20 25 20 22
37 37 40 39 37 37 36 35 34 34 34 34 34 34 35 39 41 40 37 29 27 26 25 26 28 28 31 32 31 30 30 30 32 34 29 28 28 28 28 26 25 26 26
36 38 38 37 36 35 34 33 34 33 33 33 33 31 30 32 40 39 32 27 28 27 29 29 30 29 39 39 30 28 28 29 37 40 39 40 40 41 37 27 22 20 20
37 37 37 37 36 34 34 33 33 30 27 28 27 28 36 30 41 39 33 30 27 28 29 30 39 33 38 38 29 26 25 26 26 28 29 30 31 31 37 29 24 14 15
38 37 37 36 35 35 34 34 32 25 26 24 27 27 29 32 34 40 38 31 29 28 29 29 30 37 37 37 36 27 28 29 30 26 25 25 27 27 28 28 27 16 22
37 36 35 35 36 36 34 28 28 27 26 25 26 26 28 28 38 39 39 37 35 29 28 28 28 36 37 36 33 35 36 32 26 26 25 23 23 23 23 25 28 31 31
36 35 35 36 36 35 29 28 27 27 26 25 27 26 26 29 27 38 39 38 37 30 30 32 36 36 35 31 35 36 34 26 26 22 21 20 20 19 23 29 30 31 30
36 36 36 34 32 29 30 29 27 26 26 27 27 26 25 26 26 28 30 27 33 31 32 27 32 34 35 32 31 29 28 26 23 20 19 21 27 28 27 28 26 27 26
37 35 34 31 30 28 29 27 26 27 29 27 27 27 25 26 29 32 31 30 27 31 29 26 25 25 25 25 26 26 25 26 22 24 26 26 26 26 26 27 26 24 23
36 32 30 28 27 27 27 26 36 37 39 39 37 31 31 35 37 37 36 35 35 35 26 23 21 21 21 24 24 24 24 28 28 27 26 25 25 24 23 18 15 16 20
36 31 30 29 27 26 26 26 25 31 38 38 38 38 37 35 37 35 35 34 35 33 23 19 19 19 19 20 19 17 24 27 26 25 24 24 24 24 23 17 15 15 19
31 37 31 29 29 28 27 26 26 26 25 26 34 34 36 36 36 35 35 33 25 27 20 18 18 19 19 18 17 17 26 26 25 25 24 24 24 19 17 15 15 15 17
32 30 29 29 29 31 28 27 27 26 26 25 24 30 34 37 36 36 36 25 21 19 19 18 19 18 18 16 17 16 25 24 25 24 24 24 17 14 19 16 18 25 26
32 36 34 30 30 28 27 28 27 27 26 25 24 25 25 28 21 22 22 21 20 20 20 19 19 18 17 13 10 12 23 25 24 24 24 21 17 18 19 20 20 20 21
32 33 36 30 29 29 29 28 28 26 25 24 24 28 32 22 21 21 21 20 20 20 20 19 18 17 14 10 6 8 14 20 24 23 23 23 18 19 20 21 21 22 21
33 33 34 31 31 30 29 29 28 27 26 25 25 27 35 28 22 21 22 21 21 21 21 20 17 16 14 10 10 9 11 15 20 23 23 22 18 20 20 20 21 21 21
35 33 34 32 31 33 32 30 28 27 27 26 25 26 27 26 24 21 21 21 20 20 21 20 18 15 14 12 10 10 10 14 17 15 17 19 20 20 20 20 20 20 21
35 35 34 34 32 31 31 30 29 31 28 29 27 27 26 26 24 23 22 21 20 21 20 19 18 16 14 13 11 11 11 13 13 15 14 17 19 21 21 21 22 23 23
35 34 34 33 32 32 31 31 29 29 29 29 28 28 27 26 24 22 22 20 19 19 19 18 17 16 15 14 12 11 13 23 22 21 20 20 20 20 20 21 22 23 24
34 34 33 32 32 33 31 31 29 28 27 28 28 27 26 25 24 22 21 21 19 19 18 17 17 16 14 13 13 15 25 28 28 30 29 27 26 26 26 25 26 27 27

GFSGL_sfc_temp_081.txt.gz
Temp
44 43 42 41 42 42 41 42 42 44 44 45 45 45 44 45 46 46 46 47 46 44 44 43 42 43 40 42 42 41 41 41 38 35 36 37 37 38 40 41 41 40 41
43 41 40 41 40 39 39 40 41 40 41 41 42 41 40 40 40 43 42 45 43 42 42 42 41 42 39 39 38 38 37 38 39 35 35 35 36 37 38 38 40 43 42
42 40 39 39 39 37 38 39 39 38 39 39 39 38 38 38 37 37 37 40 40 40 40 39 39 39 36 36 35 32 31 37 36 36 33 35 36 37 36 37 38 37 40
40 39 38 37 36 36 37 37 38 37 37 36 37 37 37 36 36 36 36 36 36 35 35 35 34 34 33 32 32 32 33 33 32 31 33 33 35 36 35 32 31 30 31
39 38 37 37 37 37 37 37 37 37 37 37 36 37 36 37 37 37 37 37 36 36 36 37 37 40 42 38 34 32 32 31 33 33 33 33 32 30 29 28 28 27 27
38 37 38 40 40 38 39 39 39 39 39 37 37 39 40 41 42 40 38 36 35 34 33 34 35 35 38 42 41 41 38 30 27 26 29 26 26 26 26 26 24 20 20
37 38 39 41 39 38 38 38 37 36 37 37 38 39 39 40 42 40 37 30 32 32 27 25 30 34 33 31 37 38 39 41 37 29 26 25 25 26 23 19 24 18 21
36 37 39 39 37 37 36 35 34 35 35 35 34 34 35 39 41 39 36 27 26 25 24 25 27 28 31 31 30 29 29 30 32 33 29 28 28 28 27 24 24 25 26
36 36 38 38 36 35 34 34 34 34 33 33 33 31 30 32 40 38 32 26 28 27 29 28 29 29 39 38 30 28 27 29 36 39 38 39 39 40 37 31 24 20 21
37 37 38 37 36 34 34 33 33 33 32 30 28 28 36 30 40 39 33 30 27 29 28 30 38 33 38 38 28 26 25 26 26 28 28 29 30 31 36 29 23 12 14
38 38 37 36 35 35 34 33 30 27 26 23 27 26 28 31 34 39 38 31 29 27 29 29 30 37 38 37 35 27 28 29 29 25 25 25 26 26 27 27 26 15 22
37 36 35 35 36 35 34 32 28 27 26 25 25 26 27 27 38 39 39 37 35 29 28 29 29 36 37 37 33 35 37 31 26 25 25 22 22 22 23 23 26 28 31
36 35 35 36 36 36 31 27 26 26 25 24 27 25 26 29 26 38 39 39 37 31 31 32 36 37 36 31 35 36 34 26 25 21 20 19 19 18 23 29 30 30 29
36 35 36 35 34 33 30 29 26 25 24 27 27 26 24 25 26 27 29 27 33 31 32 26 31 33 34 32 30 29 27 26 23 19 19 20 25 27 27 27 25 26 24
37 36 35 34 34 30 28 26 25 26 28 27 26 27 25 25 28 31 31 30 27 31 28 25 25 25 24 25 25 25 24 25 21 23 26 26 27 27 26 26 25 24 19
35 35 35 33 30 27 26 25 36 36 38 39 38 31 30 35 37 38 37 36 36 35 26 23 21 20 20 23 23 23 23 25 25 27 26 25 24 24 24 17 13 13 17
36 34 34 30 26 24 25 25 26 32 39 39 39 38 37 36 38 38 36 36 35 34 23 19 18 19 19 19 18 17 16 23 26 25 24 24 24 24 23 15 14 12 16
36 37 30 28 27 25 26 27 27 26 25 25 34 36 38 37 37 37 36 34 25 27 19 18 18 19 19 18 17 14 15 22 25 25 24 24 24 23 14 13 13 13 16
35 35 30 28 28 29 28 28 27 27 26 25 24 31 36 38 37 37 37 26 22 19 19 18 19 19 18 17 17 14 13 14 18 24 24 24 24 16 14 14 16 24 25
35 35 33 30 28 28 27 28 27 26 25 24 24 25 26 29 21 23 23 21 20 20 20 19 20 19 17 15 13 11 9 13 15 20 24 24 24 20 16 18 19 18 19
34 33 37 31 30 30 29 28 28 27 26 25 26 28 32 23 23 22 21 21 21 21 20 20 19 17 16 14 11 11 10 12 12 14 20 23 23 21 18 19 20 20 20
34 33 34 31 31 30 30 29 28 28 28 27 26 27 36 31 24 23 22 23 23 22 22 22 19 17 18 15 14 12 11 10 11 13 15 21 22 21 18 18 19 19 20
35 34 34 33 31 34 33 31 30 30 29 28 27 28 27 28 26 24 24 24 23 22 22 22 21 19 18 16 13 13 11 13 15 13 13 16 17 19 18 18 19 19 19
36 35 35 35 33 32 32 32 31 32 30 29 28 28 28 28 27 26 25 24 23 23 22 22 21 20 19 16 13 11 11 13 11 12 11 13 15 17 18 19 20 20 21
36 35 35 34 34 33 32 32 30 30 30 30 29 29 28 28 27 26 25 24 23 23 22 21 21 20 19 17 15 12 13 23 22 17 16 16 16 16 18 20 20 21 21
35 35 35 35 33 32 31 31 31 30 29 29 29 28 28 27 27 26 25 24 23 23 23 21 20 19 18 17 15 16 24 27 27 29 28 25 23 23 22 21 21 23 24

GFSGL_sfc_temp_084.txt.gz
Temp
42 41 41 40 41 41 41 40 41 42 43 43 44 45 47 48 49 48 47 48 46 45 45 44 43 44 42 41 40 39 39 39 39 35 37 37 38 39 40 41 41 41 41
42 41 40 39 39 38 38 39 40 39 40 40 41 41 41 40 41 42 42 43 43 43 43 42 41 43 40 39 39 38 35 38 39 35 35 35 36 38 38 38 41 43 41
41 40 39 38 37 36 36 37 38 38 38 38 38 38 37 38 37 37 38 41 41 41 41 40 40 39 37 37 36 35 34 35 33 32 32 35 35 36 35 37 38 38 40
40 38 37 36 36 36 36 36 36 36 36 36 36 36 36 36 36 36 37 37 36 36 36 35 34 34 32 31 31 31 32 31 31 30 30 33 34 36 35 34 33 32 31
38 37 36 36 36 36 36 36 36 36 36 36 36 36 36 37 39 38 38 37 37 36 37 38 38 40 41 38 33 31 31 30 30 30 29 30 31 31 31 27 27 27 27
37 37 37 37 37 37 38 38 37 37 37 37 37 38 40 41 41 41 39 36 36 35 34 34 35 36 40 43 42 42 36 30 25 23 20 24 25 25 26 25 23 20 20
38 37 38 40 39 39 39 38 37 37 37 37 38 39 39 40 42 39 38 33 33 30 27 27 31 34 32 30 37 38 39 41 37 29 26 25 25 26 23 19 23 18 21
36 37 38 39 38 37 37 36 35 36 35 35 34 35 36 40 41 39 36 28 26 25 25 25 27 28 31 30 29 29 29 30 32 32 28 27 27 27 27 24 24 25 26
35 37 37 39 37 36 34 34 35 34 33 33 34 33 32 34 40 38 32 27 28 27 29 28 29 29 39 37 29 28 27 28 36 39 38 39 38 39 35 31 29 20 20
36 38 38 38 36 35 34 34 33 34 33 33 29 30 37 32 40 39 33 30 27 28 29 29 38 33 39 38 28 26 24 25 25 27 27 29 30 32 35 28 22 12 14
38 38 37 37 36 35 34 33 33 32 30 26 28 27 29 32 34 39 37 31 29 27 29 29 30 37 38 37 34 26 28 28 29 25 25 25 26 26 26 27 26 14 17
38 37 36 36 36 35 34 32 31 29 27 26 26 27 27 27 38 39 39 36 34 29 28 28 29 36 37 37 32 36 37 32 26 25 24 22 22 21 22 23 26 25 30
36 36 35 36 36 35 33 30 27 27 26 25 28 26 26 29 26 39 40 39 37 30 30 32 36 37 36 31 35 36 33 26 25 20 20 18 19 18 22 28 30 30 29
36 35 36 35 34 34 33 31 27 25 25 27 27 26 25 26 26 27 29 27 34 32 32 26 31 33 33 31 30 28 27 25 22 19 18 19 22 27 26 27 25 26 23
36 35 35 35 34 32 30 28 26 26 29 27 27 27 25 24 28 31 30 29 26 31 27 25 24 24 24 24 24 24 24 24 20 19 21 26 27 27 27 26 25 22 17
35 34 34 34 32 32 28 26 35 35 37 38 38 31 31 35 37 38 37 37 37 36 26 23 20 19 20 23 23 23 22 24 22 21 22 25 25 24 24 24 21 11 12
36 35 35 34 31 30 26 25 25 31 39 40 40 39 38 36 39 39 38 37 36 35 24 19 18 19 19 19 18 16 15 19 17 18 24 24 24 24 25 22 10 10 12
36 37 35 33 32 28 25 27 26 26 26 26 34 36 39 38 38 38 38 36 26 28 19 18 18 19 18 17 17 14 13 14 15 17 17 24 24 23 23 16 10 8 14
35 35 33 30 31 30 28 26 26 26 25 24 24 31 37 39 38 38 38 27 23 20 19 18 19 18 18 17 17 14 12 9 11 11 14 23 23 23 22 18 14 23 24
35 36 34 32 29 28 27 27 26 26 24 25 25 26 26 31 22 24 25 24 22 22 22 21 20 19 18 15 14 12 9 8 9 11 14 13 15 23 22 21 18 16 17
35 35 37 33 30 30 29 28 28 27 27 26 27 28 33 26 25 25 24 24 24 23 23 22 21 19 18 17 15 14 12 11 9 10 10 14 14 16 23 22 20 18 18
35 35 35 32 31 30 30 30 29 29 29 28 27 27 36 32 25 24 24 25 25 25 24 24 22 21 19 18 16 15 15 14 12 10 11 12 15 19 22 21 18 17 18
35 34 34 34 32 33 32 30 30 30 30 29 28 28 28 30 28 26 26 26 25 25 24 24 23 22 21 19 18 18 17 16 16 15 13 13 14 16 18 18 17 17 18
35 34 34 35 33 33 33 31 30 32 30 30 29 29 29 29 29 28 27 26 24 25 25 24 24 24 23 21 19 17 16 16 14 14 12 12 13 16 17 18 18 18 19
35 35 35 35 34 34 34 32 32 31 31 30 30 30 29 29 28 28 27 24 25 25 25 24 24 23 22 21 19 17 17 24 20 16 14 14 15 16 17 17 18 19 20
36 35 35 35 33 33 32 31 30 30 29 30 30 30 29 28 28 27 26 26 25 25 25 24 23 21 20 20 19 20 26 27 26 29 27 23 20 20 21 20 19 19 20

GFSGL_sfc_temp_087.txt.gz
Temp
48 48 48 47 47 47 47 47 48 48 49 49 50 51 51 51 51 53 52 52 50 49 50 48 45 46 45 45 45 47 46 46 44 38 39 41 41 42 42 44 44 45 45
47 46 46 46 46 46 45 45 46 46 46 46 47 46 46 47 49 50 49 49 49 48 47 46 44 45 43 44 44 42 42 43 45 39 38 38 39 40 40 41 43 45 46
45 45 44 44 44 43 43 43 44 44 43 44 44 43 43 43 44 45 46 46 46 46 45 44 43 43 40 40 40 39 39 41 42 42 37 40 40 41 40 41 42 41 44
44 43 42 42 42 42 42 42 42 42 42 42 42 41 41 41 41 42 43 42 41 40 40 40 40 40 39 38 38 39 40 41 40 40 39 38 39 40 39 39 40 41 41
43 42 41 40 41 41 40 40 40 41 41 41 41 40 40 41 41 41 41 40 40 39 40 40 40 40 41 40 39 38 39 39 40 38 36 38 37 39 39 38 39 39 40
42 40 40 40 41 40 41 40 40 40 41 41 41 42 41 42 43 42 41 39 38 38 36 37 38 38 43 44 43 42 41 39 35 36 34 36 36 37 37 37 36 36 36
41 40 40 41 40 41 41 41 40 39 40 40 40 41 40 41 42 42 40 35 34 33 33 33 35 37 37 38 40 40 41 41 39 38 36 36 35 37 35 32 34 33 35
40 40 41 41 40 40 39 37 37 37 37 37 35 36 38 41 41 40 38 33 33 33 33 34 35 36 37 36 37 35 36 38 38 38 38 37 38 37 37 35 35 35 36
39 39 40 40 39 38 36 35 36 35 34 34 36 36 37 39 40 38 35 34 33 33 34 35 36 37 39 37 35 33 34 35 38 39 39 39 38 39 37 36 34 33 33
39 40 40 40 38 36 36 35 34 35 33 34 33 35 38 38 40 39 36 36 34 34 34 36 38 38 39 37 35 34 32 33 34 34 35 35 35 37 35 36 34 30 30
40 40 39 39 37 36 34 34 33 33 33 32 33 34 35 37 40 40 38 35 35 33 34 34 36 38 39 38 35 34 34 35 34 33 33 34 34 34 34 34 33 30 29
39 38 37 37 37 36 34 34 34 32 32 32 32 32 34 35 39 40 39 36 36 34 33 34 35 37 38 37 36 36 38 34 33 32 32 31 31 31 31 32 32 32 32
38 37 36 36 36 36 34 33 32 32 32 31 32 32 32 34 34 40 41 39 37 34 35 35 36 37 37 35 37 38 35 33 32 30 29 29 30 30 29 31 32 32 32
37 36 36 35 35 35 35 33 32 31 31 31 32 31 31 32 32 33 35 37 38 35 36 34 34 34 33 33 34 33 32 32 31 30 29 30 30 30 30 31 29 29 28
38 36 35 35 35 33 34 33 32 33 34 32 32 32 30 30 32 34 34 33 33 34 31 31 31 30 30 30 30 30 30 31 29 29 29 30 30 30 29 31 29 27 24
37 35 35 35 33 33 32 30 36 36 37 38 37 34 34 37 38 38 38 37 36 37 31 29 28 28 28 29 29 29 29 30 30 29 29 29 28 28 28 28 27 24 22
37 35 35 35 33 32 31 31 30 33 38 39 39 40 38 36 39 39 39 38 38 37 31 28 27 27 27 27 28 27 27 29 27 27 28 28 28 27 27 27 26 23 23
37 38 35 35 33 32 32 31 31 31 31 31 37 40 40 39 39 39 39 38 31 34 28 27 27 27 27 26 27 26 26 26 25 26 27 27 26 26 26 26 25 22 22
36 36 35 34 34 34 32 31 31 31 31 30 29 33 38 40 39 40 40 33 29 28 27 26 27 27 26 26 26 25 24 24 23 24 25 25 26 26 25 25 25 25 25
36 37 36 33 33 33 31 30 30 30 29 29 29 30 30 35 31 32 33 31 29 29 28 27 27 27 26 25 24 23 22 22 23 23 23 24 25 25 25 24 24 23 22
36 36 38 34 32 33 32 31 31 30 30 30 30 31 34 30 31 30 31 30 30 29 29 28 28 27 26 25 24 23 21 22 21 20 21 21 21 22 25 25 25 24 22
36 35 35 33 32 31 32 32 31 31 31 30 31 30 37 35 30 29 29 30 30 31 31 30 28 27 26 25 24 23 22 21 21 20 20 19 19 22 23 24 24 23 21
36 35 34 34 32 32 31 32 32 32 32 32 32 31 31 33 33 30 29 30 29 29 29 28 28 27 27 25 25 25 23 23 23 22 20 20 20 21 22 22 22 21 21
36 35 34 34 34 32 31 31 31 33 32 32 32 31 31 31 32 31 31 30 29 29 29 28 28 28 27 26 25 23 23 23 22 20 19 18 18 20 21 21 20 20 20
35 35 34 34 34 33 32 32 31 30 30 31 32 32 32 32 31 31 31 30 29 28 28 28 28 27 26 26 24 23 22 25 21 20 19 18 17 17 18 19 20 21 20
36 35 34 34 33 33 32 32 32 31 30 30 29 29 30 31 31 31 30 29 28 28 28 28 27 26 26 25 24 23 27 28 28 29 23 21 20 20 21 21 21 21 22

GFSGL_sfc_temp_090.txt.gz
Temp
60 60 60 59 58 59 58 58 57 58 58 58 57 59 58 58 56 55 54 54 52 51 55 55 53 51 49 49 49 52 53 53 49 41 42 44 46 48 49 50 48 48 49
57 58 57 57 57 58 56 55 56 55 55 55 56 56 55 55 55 55 54 55 55 55 53 52 49 49 48 50 52 50 50 50 48 42 41 43 44 44 46 45 46 49 50
55 56 55 54 55 55 55 54 54 54 54 53 53 53 52 52 53 55 55 54 54 53 52 51 50 49 46 45 47 45 46 46 48 46 41 44 45 47 47 48 48 49 49
54 54 53 53 53 53 52 52 52 52 52 52 51 50 49 50 50 51 52 51 50 49 48 47 47 46 45 45 44 45 47 47 47 46 44 43 46 46 47 46 46 48 47
52 51 50 50 49 49 49 49 49 50 50 49 49 48 47 47 48 48 47 46 45 44 43 44 44 43 43 44 45 45 45 46 47 44 43 44 43 44 45 45 44 46 47
52 50 49 48 48 48 48 47 48 47 48 48 47 47 45 45 43 44 46 45 44 42 41 42 43 44 44 44 43 43 45 45 42 43 41 43 43 44 44 43 42 41 41
51 50 48 48 47 47 47 47 46 45 46 45 44 44 44 44 44 44 43 40 37 36 36 37 40 41 43 44 43 43 42 42 43 45 43 44 42 43 40 36 39 38 40
50 49 48 48 47 46 45 43 41 41 41 40 38 39 40 42 43 42 40 38 39 39 40 41 41 41 41 41 42 40 41 42 42 43 44 42 42 42 41 38 40 40 41
48 47 47 47 45 44 41 39 39 37 36 36 38 39 40 40 41 40 40 40 38 38 40 42 42 42 39 39 39 37 40 39 40 40 40 39 39 39 40 41 37 37 37
48 48 48 46 44 42 41 37 35 37 35 36 36 39 41 40 40 39 41 40 39 39 40 40 40 42 40 38 40 40 37 39 38 38 39 38 39 38 37 40 39 32 34
47 46 46 44 42 41 37 35 35 35 35 35 36 40 42 43 42 40 40 41 41 39 38 39 41 40 39 38 38 40 39 40 36 38 39 39 39 39 39 39 38 33 31
46 44 43 42 41 38 36 35 35 35 34 35 39 39 40 42 42 41 40 39 40 39 38 39 40 38 38 38 38 38 38 37 39 38 37 36 36 35 35 36 35 35 35
44 43 42 41 39 38 36 35 33 34 34 36 38 38 38 39 42 41 40 39 39 39 39 39 37 38 38 38 37 38 38 38 37 35 34 34 34 34 32 32 33 33 32
45 43 41 38 37 36 36 35 34 33 34 37 37 37 38 38 39 40 41 41 39 37 36 38 37 38 38 38 37 38 37 38 36 35 35 35 34 32 32 33 31 31 29
44 42 39 38 37 35 35 35 35 36 37 38 38 39 37 36 37 40 39 39 39 38 37 36 36 36 35 35 36 36 36 36 34 35 33 33 33 33 32 32 31 29 27
43 40 38 37 36 35 34 33 38 38 39 40 40 40 39 40 40 39 39 38 38 37 35 34 35 35 35 35 34 34 35 34 34 34 33 33 31 31 30 31 30 28 26
43 41 39 37 36 34 33 32 31 36 38 38 39 39 39 39 39 40 39 39 38 38 34 34 34 34 33 34 34 33 32 34 33 32 32 31 31 30 30 29 29 28 26
41 40 39 39 37 34 33 33 35 36 35 36 39 40 40 40 39 40 40 39 36 37 36 34 33 33 33 32 33 32 32 32 31 31 31 31 30 29 29 28 28 26 26
38 37 38 37 36 35 33 33 35 36 37 38 37 37 41 41 40 40 40 38 36 34 35 33 34 33 33 32 32 32 31 31 31 29 29 30 29 29 29 29 29 29 28
38 38 37 35 34 34 33 32 32 33 35 36 36 36 38 38 37 37 38 38 37 35 35 34 34 33 33 32 31 31 30 29 29 29 28 29 29 29 28 28 28 27 27
36 36 38 34 33 33 33 33 33 33 35 35 36 38 38 36 36 37 37 37 37 36 35 35 34 33 33 32 31 30 29 29 28 28 28 28 28 27 29 29 29 28 27
38 36 36 35 33 32 32 33 34 34 35 36 37 37 38 37 36 37 36 36 37 37 37 36 34 34 33 32 31 30 29 28 28 27 26 26 26 27 27 27 27 27 27
36 36 36 36 34 34 33 32 32 32 34 36 37 36 35 36 36 35 35 36 36 36 35 34 34 33 33 32 32 31 29 29 29 29 26 26 25 26 26 25 26 26 26
37 37 36 36 35 33 33 32 32 32 31 31 32 35 36 35 36 36 36 36 35 34 34 33 33 33 33 32 31 31 30 30 30 28 27 26 25 25 25 24 25 24 24
35 35 35 34 34 34 33 33 32 32 31 31 31 31 31 33 35 36 37 36 35 34 33 32 31 31 31 30 31 30 29 29 28 27 26 24 24 23 23 24 24 25 24
34 35 35 35 34 34 33 33 33 33 32 32 32 31 31 30 31 32 34 35 34 33 33 32 31 31 31 31 30 30 31 31 30 29 25 24 23 22 23 23 22 23 24

GFSGL_sfc_temp_093.txt.gz
Temp
62 63 62 61 61 62 61 60 60 60 60 61 60 61 61 61 58 56 55 54 52 52 53 53 52 54 51 51 50 52 52 51 47 41 44 45 46 47 49 49 49 48 49
60 62 60 60 60 60 59 58 59 58 58 58 58 59 58 58 59 56 53 53 53 53 53 52 49 50 49 50 51 51 51 51 48 43 43 43 44 46 47 47 47 50 49
60 60 59 58 59 58 58 57 57 57 56 56 56 55 55 55 56 57 57 57 55 55 53 51 49 49 48 47 47 46 46 46 47 44 41 44 45 46 45 46 46 46 48
59 58 57 56 56 56 55 55 54 55 55 54 54 53 52 52 53 54 55 54 53 51 50 50 49 49 46 46 45 45 46 46 46 44 43 42 43 44 43 42 41 43 43
57 56 54 54 53 53 52 52 52 52 52 52 51 51 51 50 50 51 51 50 48 45 45 45 45 45 46 47 46 45 45 45 45 43 41 41 40 40 40 40 38 40 40
56 55 53 52 51 51 50 50 50 50 50 50 49 49 48 48 44 46 48 46 46 44 43 43 43 44 44 45 44 44 45 43 40 39 38 38 39 39 39 37 36 34 33
55 54 52 52 51 50 50 49 48 47 48 46 45 46 45 45 45 45 45 40 38 37 36 38 41 43 44 42 44 43 43 43 44 41 39 39 37 39 34 33 34 33 33
54 53 52 52 50 49 48 47 44 44 43 42 39 40 41 43 44 43 41 39 40 40 40 41 40 41 41 41 40 38 38 39 40 43 40 39 38 38 37 35 35 35 36
53 52 51 51 50 48 45 42 42 40 37 37 38 39 40 41 43 42 40 40 38 38 40 42 41 40 40 42 38 36 37 36 41 41 40 41 41 41 40 36 33 32 31
52 52 52 50 49 46 45 41 37 38 36 37 36 39 41 40 41 41 41 40 39 38 39 39 42 42 40 40 37 37 34 35 35 35 34 36 39 36 39 36 33 28 30
52 51 50 48 46 45 41 38 36 36 35 35 36 38 40 42 41 41 42 40 39 37 37 37 38 41 40 39 39 37 37 37 36 35 35 35 35 35 34 34 33 32 31
49 47 46 45 45 42 39 37 36 35 34 34 36 37 41 43 43 41 41 41 42 37 36 37 38 40 39 39 37 39 39 39 35 34 33 32 32 31 31 31 32 31 34
47 46 45 45 43 42 39 36 34 35 34 34 35 36 38 39 41 42 41 40 41 38 38 39 40 39 39 38 39 39 39 34 34 31 30 30 30 31 29 29 32 31 29
47 47 46 43 41 40 38 37 35 34 33 33 35 36 38 37 38 39 38 38 40 37 38 36 37 37 38 37 36 36 35 35 33 31 31 31 31 31 30 32 30 30 28
48 47 44 42 40 38 36 36 35 36 35 33 35 37 37 36 37 40 40 38 37 37 36 34 33 33 32 33 33 34 34 33 30 31 30 30 30 29 30 31 30 29 26
44 45 43 40 40 37 35 34 38 38 38 38 40 41 39 42 42 41 41 41 41 40 34 32 32 32 32 33 32 32 32 33 31 31 30 29 28 27 30 30 29 27 25
43 42 42 40 39 36 34 33 32 35 38 38 39 40 41 40 40 40 40 40 40 39 33 32 31 31 31 31 30 30 30 30 29 29 29 28 27 27 30 29 28 28 26
40 42 38 39 39 37 35 33 33 32 32 33 38 39 40 40 40 40 40 40 34 36 33 32 31 31 31 30 30 30 29 29 29 28 28 27 26 26 25 25 27 26 26
38 37 37 36 36 36 34 33 33 33 34 36 37 38 40 41 41 40 41 36 33 33 33 33 33 32 31 30 30 30 29 29 29 28 27 26 27 26 25 25 25 30 28
38 38 38 35 34 34 33 32 32 32 32 34 36 35 36 38 35 35 36 35 34 34 34 33 33 32 31 30 30 29 28 28 27 27 26 26 27 27 25 25 25 24 23
38 37 39 35 33 33 33 32 32 32 32 32 32 36 40 35 35 35 35 35 35 35 34 33 33 32 31 31 30 30 28 28 27 27 27 27 26 25 26 27 26 25 23
37 36 35 36 34 33 33 33 32 32 32 32 32 33 40 37 35 35 36 36 36 36 36 35 34 34 33 31 31 30 29 28 28 27 26 26 26 26 26 25 25 24 24
37 36 35 35 35 35 34 33 32 32 33 33 33 33 34 35 35 34 35 36 36 36 36 36 35 34 34 33 33 32 30 29 29 29 27 26 25 25 25 24 24 23 23
36 35 35 35 35 34 33 33 33 33 33 33 33 33 33 35 35 35 35 36 36 36 36 35 35 34 34 33 32 32 32 31 31 30 28 26 25 27 25 24 24 23 23
34 34 34 34 34 34 34 34 33 33 32 32 32 32 33 32 32 34 36 36 34 35 34 34 34 33 33 33 32 31 31 33 31 30 29 27 26 25 24 24 23 23 23
33 33 33 34 34 34 33 33 33 33 33 33 32 32 32 32 32 32 32 32 32 34 34 34 33 32 32 32 32 32 33 34 32 32 28 26 24 24 23 22 22 22 22

GFSGL_sfc_temp_096.txt.gz
Temp
58 59 57 56 55 54 53 52 52 52 53 55 55 55 55 54 54 54 54 54 53 52 52 52 51 51 49 48 48 48 49 50 46 40 42 43 44 45 46 46 47 46 46
55 56 56 55 55 52 51 51 52 51 51 51 52 53 53 52 52 53 52 52 51 51 51 50 48 49 46 48 48 48 48 47 46 41 41 41 42 44 45 42 46 49 46
52 51 52 53 53 52 51 52 52 52 51 50 50 49 49 49 50 50 52 53 52 51 50 49 48 48 46 45 43 41 42 43 44 40 37 42 43 43 43 41 41 40 44
51 50 49 49 50 48 48 49 48 49 48 47 47 47 46 47 47 48 50 50 48 48 48 48 47 47 44 41 41 40 41 40 40 40 40 40 40 39 38 37 36 37 37
49 48 46 46 46 46 46 46 46 46 46 46 46 45 45 45 45 44 45 43 42 42 43 43 42 43 46 44 41 39 40 39 38 37 38 37 35 35 34 35 32 33 32
48 46 46 46 45 44 44 44 44 44 44 45 44 44 42 45 46 47 46 41 41 39 37 38 41 43 45 46 46 46 44 39 36 38 32 33 34 32 33 31 29 24 26
48 47 46 46 45 44 44 43 42 41 41 40 40 41 42 43 45 46 44 39 38 36 36 37 39 41 40 38 44 44 44 45 43 37 35 33 32 33 30 27 29 25 25
47 46 47 46 45 44 43 41 39 39 41 39 36 38 40 43 45 44 42 37 37 38 38 38 36 36 37 37 35 33 32 35 37 39 33 32 32 33 32 30 30 29 30
46 45 46 46 44 42 39 39 41 39 36 36 37 38 39 40 44 43 39 37 36 36 37 37 36 35 42 43 34 32 32 33 41 42 42 42 42 42 38 31 26 24 25
46 45 46 45 43 40 39 39 36 38 35 37 36 38 41 38 43 43 40 36 35 33 34 36 42 37 42 42 33 32 29 30 31 30 31 35 35 36 40 31 27 19 21
47 45 44 43 41 40 37 37 36 35 35 35 35 37 39 39 40 42 43 36 34 32 33 32 34 41 41 40 40 32 33 33 35 30 29 29 29 30 29 29 29 21 17
44 43 42 40 41 39 38 36 36 35 34 34 35 35 37 39 41 42 42 42 40 33 32 32 34 41 40 40 37 41 42 38 30 30 29 27 27 25 25 27 29 27 25
42 40 40 40 40 41 37 36 34 35 34 33 33 33 34 36 35 42 42 42 42 34 34 36 40 40 40 38 39 40 40 31 30 27 26 24 23 23 23 24 26 28 22
40 40 39 38 40 39 37 36 35 34 33 33 33 33 34 34 33 32 34 35 40 37 38 34 36 36 37 35 35 35 31 31 28 26 25 25 25 21 22 22 24 28 27
42 43 41 40 40 37 36 36 35 36 36 34 34 34 34 33 34 37 35 33 32 34 33 31 30 30 29 30 30 30 30 31 27 25 24 24 26 25 23 23 28 27 25
43 42 40 38 38 36 35 34 40 39 40 40 39 38 36 40 42 42 42 41 40 40 32 29 28 28 29 30 30 30 29 31 27 26 24 25 24 23 21 24 28 26 25
41 41 40 38 37 35 34 33 32 35 39 39 39 40 41 40 42 42 42 41 41 40 31 29 28 28 29 29 29 28 26 27 22 24 26 23 20 19 25 22 27 27 26
40 42 37 38 37 36 34 33 33 32 32 33 38 39 39 40 41 41 41 40 34 36 31 29 28 29 29 28 28 26 25 24 24 25 22 22 22 20 15 15 18 18 18
38 37 37 36 35 35 34 33 32 32 32 32 32 35 38 39 41 41 41 34 32 31 31 30 30 30 29 28 27 27 26 24 22 19 23 23 22 20 18 19 20 28 25
37 39 38 35 34 34 33 32 32 32 32 32 31 32 32 35 34 35 35 34 32 32 32 32 31 31 30 29 28 28 25 28 24 25 25 25 24 24 22 21 21 20 22
37 36 39 35 34 33 33 32 32 32 32 32 32 33 34 31 33 34 34 34 34 33 33 32 32 31 31 30 28 27 27 27 26 26 26 25 25 24 25 24 23 23 22
37 35 35 35 34 33 33 33 32 32 32 32 32 33 36 34 33 34 34 34 34 34 34 33 32 32 31 29 29 28 27 27 27 26 26 26 26 26 25 25 24 22 21
35 35 34 34 34 35 34 33 32 32 32 32 33 33 32 33 32 34 34 35 35 34 35 34 34 33 33 32 31 31 29 29 30 28 26 26 26 26 25 24 24 23 23
35 34 34 34 34 34 33 33 33 33 33 33 33 33 33 32 32 32 34 34 33 33 34 33 34 34 34 33 33 33 33 33 32 29 28 27 26 27 25 25 24 24 23
33 32 33 33 33 33 33 33 33 32 32 32 32 32 33 33 32 32 33 34 34 33 33 33 34 34 34 34 34 33 33 34 31 31 29 28 26 25 25 24 24 24 23
31 31 32 32 32 32 33 33 33 33 33 33 32 32 32 32 33 33 33 32 32 32 33 33 32 33 33 34 34 34 34 35 33 34 30 28 27 26 26 24 24 24 23

GFSGL_sfc_temp_099.txt.gz
Temp
53 53 53 56 54 52 51 52 53 52 53 53 53 54 53 52 53 52 52 53 54 53 53 53 52 52 50 49 50 50 50 51 48 40 42 44 44 44 45 46 47 46 47
52 52 52 54 54 53 52 51 51 50 50 51 51 51 50 50 50 51 50 50 52 51 51 50 49 49 48 48 49 48 46 48 46 41 41 41 42 44 45 43 46 48 45
50 49 49 50 48 48 49 50 51 51 49 50 49 47 47 47 47 48 49 52 50 51 51 49 48 48 46 46 46 45 45 45 45 42 39 42 42 43 43 43 43 41 44
48 47 46 46 45 45 46 47 47 46 47 46 45 45 44 45 45 45 47 48 49 48 48 48 47 47 46 45 43 43 41 40 41 41 39 39 41 42 41 37 35 37 36
46 45 44 44 44 44 44 44 44 44 45 44 43 44 43 43 45 43 44 43 44 43 43 44 44 45 46 45 42 39 39 38 37 39 38 38 37 35 34 35 33 32 32
45 44 44 44 43 43 42 42 42 42 42 42 41 42 41 44 46 47 45 40 40 39 38 39 42 44 46 48 47 46 42 37 35 33 34 30 32 32 32 32 30 25 26
44 44 44 44 43 42 42 41 40 39 39 38 38 39 39 40 46 46 45 41 39 37 36 37 38 41 41 41 45 45 46 46 43 37 35 33 31 32 31 28 29 26 26
44 44 44 43 42 42 41 39 38 38 38 37 36 36 37 41 45 45 42 38 38 38 38 39 38 36 36 36 34 32 33 35 36 38 34 33 33 32 33 31 30 29 29
43 43 44 43 42 40 38 37 38 39 37 37 38 35 35 39 44 43 40 37 36 36 38 38 38 35 42 42 33 32 31 32 42 42 42 42 42 41 36 31 26 26 25
43 43 44 43 41 39 38 37 36 38 36 36 35 36 40 39 44 43 40 37 35 35 36 37 41 38 44 43 32 31 29 29 31 32 32 35 35 38 39 31 28 21 22
45 44 43 42 40 39 36 36 37 36 35 35 35 37 39 40 40 43 43 37 35 34 34 33 33 42 43 43 39 31 32 32 35 30 29 29 29 29 29 29 29 23 16
43 42 41 40 40 38 36 37 36 36 35 35 35 35 37 39 41 42 43 42 39 33 32 32 33 41 41 41 38 39 41 38 30 29 28 27 27 25 26 28 29 27 26
41 40 39 38 38 37 37 36 35 35 34 34 33 33 34 35 37 42 43 43 43 33 32 35 38 41 41 39 40 41 41 31 30 27 27 26 26 26 24 25 26 24 20
39 38 38 37 38 39 37 37 35 34 34 33 33 33 34 34 34 35 36 37 41 37 38 36 38 37 38 35 36 36 32 31 29 28 27 26 25 21 22 21 17 19 24
39 40 41 40 40 37 37 36 36 37 36 34 34 34 33 33 35 38 36 33 32 34 32 32 31 30 30 30 30 31 30 30 29 28 26 26 27 25 25 18 19 22 24
41 41 40 39 38 36 35 35 40 40 40 41 40 37 35 39 41 40 41 41 40 40 32 30 30 29 29 30 30 29 30 32 29 29 27 27 26 24 22 20 21 22 23
38 41 40 39 36 36 35 34 32 35 40 40 40 40 40 37 40 41 42 42 41 40 32 29 29 29 29 29 28 28 28 29 28 27 25 25 24 21 27 21 18 18 18
37 41 37 38 37 37 35 34 33 32 32 33 38 39 40 40 39 40 42 41 35 38 32 30 29 28 28 28 28 28 28 27 27 26 25 25 24 21 18 18 18 17 16
36 37 37 36 35 36 34 33 33 32 32 33 32 35 38 40 39 39 41 36 33 32 33 31 31 30 30 29 28 28 27 27 27 26 26 25 24 23 20 23 21 28 24
38 39 39 35 35 34 34 33 32 32 32 32 32 32 33 35 34 34 35 34 33 32 33 32 31 31 30 29 28 28 26 28 28 26 26 25 25 24 25 23 22 23 24
37 37 39 36 34 34 33 33 33 32 32 32 33 34 35 32 32 33 33 34 34 33 33 32 32 31 31 30 30 28 28 27 28 28 26 25 25 24 26 26 25 25 24
35 35 34 34 34 33 33 33 33 32 32 32 33 33 37 35 32 32 32 34 35 35 35 33 33 32 32 32 31 29 28 28 27 27 26 27 26 27 26 26 25 24 24
34 33 33 34 34 35 34 34 32 32 32 32 32 32 32 33 33 33 32 33 33 34 34 33 34 33 33 33 32 31 29 29 29 28 27 27 27 27 26 25 25 24 23
33 32 32 33 33 33 33 33 33 33 33 32 32 33 33 33 33 33 33 32 32 32 33 33 33 34 34 33 32 32 32 32 31 30 29 28 27 28 27 26 25 25 24
28 28 31 31 31 32 32 33 33 32 32 32 32 32 33 33 33 33 33 33 33 31 31 32 32 32 33 34 33 32 32 34 33 32 30 29 28 27 27 26 25 24 24
26 26 26 26 29 30 30 30 31 32 32 33 33 33 32 33 33 33 33 33 32 32 32 32 32 32 32 32 33 33 35 36 34 35 31 29 28 27 27 26 25 25 24

GFSGL_sfc_temp_102.txt.gz
Temp
52 52 52 51 51 51 51 51 52 53 53 52 54 53 52 52 51 51 52 52 52 52 53 54 54 53 52 51 51 51 52 52 49 41 42 44 44 44 45 46 46 46 48
50 50 49 50 49 49 49 49 49 48 48 51 49 49 49 49 49 49 50 49 49 52 52 50 51 50 50 49 49 49 49 49 47 41 40 41 42 44 44 43 46 47 46
49 48 48 48 48 47 47 49 49 47 47 47 47 47 47 47 46 47 47 49 50 51 51 49 50 49 47 47 47 47 46 46 46 42 39 42 42 43 42 43 43 42 45
48 47 46 45 45 45 45 45 45 45 44 44 44 44 44 43 43 43 45 46 48 49 49 48 48 47 47 46 45 44 44 43 44 41 40 40 41 42 41 39 37 38 35
46 45 44 44 44 43 43 43 43 43 42 42 42 42 41 42 44 42 42 43 42 42 43 44 45 46 47 46 44 42 42 41 40 40 39 39 37 37 38 37 34 31 31
44 43 43 43 42 42 41 41 41 41 41 41 40 41 40 43 47 47 45 40 40 39 38 41 42 45 46 48 47 46 43 37 35 37 36 36 36 36 35 34 29 26 28
43 43 43 42 42 41 41 40 39 39 39 38 37 38 38 39 46 47 46 41 40 39 37 37 39 42 42 42 46 45 46 46 43 38 36 36 33 33 31 29 30 27 28
43 42 42 42 41 40 40 38 37 37 36 36 37 36 36 39 45 46 44 39 39 39 39 39 39 38 38 38 36 34 33 34 37 39 37 34 34 33 34 33 32 30 29
42 42 42 42 40 39 38 37 36 36 35 37 38 37 34 36 44 45 41 38 37 36 38 39 39 38 42 41 33 31 31 33 42 42 41 42 41 41 37 32 29 29 26
42 42 42 42 40 39 37 36 34 36 37 37 35 34 37 36 43 44 41 37 35 35 36 37 41 39 43 43 33 30 31 31 32 33 33 35 37 39 40 33 30 26 24
44 43 42 41 40 39 36 36 35 36 36 35 35 36 39 40 40 44 43 37 35 34 34 34 36 42 43 44 38 31 31 31 35 29 29 29 29 30 30 30 30 26 20
43 42 41 40 40 38 35 35 35 36 36 35 35 35 37 39 42 42 44 43 40 34 33 34 35 42 42 43 39 38 40 37 30 30 29 28 28 27 27 29 29 28 27
41 40 39 38 37 38 37 34 35 36 35 35 34 34 35 36 37 42 43 43 43 35 35 36 38 41 41 39 41 41 42 30 30 28 27 27 27 27 26 27 27 26 24
39 38 37 36 36 37 38 37 36 35 34 33 33 33 34 34 34 35 36 37 41 39 38 35 38 38 38 35 36 37 31 30 29 29 28 27 26 25 25 24 21 20 19
38 37 39 39 40 38 37 37 36 37 36 34 34 34 33 33 35 38 37 33 32 35 34 32 31 30 30 30 31 31 30 31 29 28 27 27 28 27 26 22 21 18 17
40 39 39 38 39 37 36 36 41 40 41 41 41 38 35 39 40 41 41 40 41 40 33 30 30 29 29 30 30 30 30 32 29 28 27 28 28 26 24 20 19 19 18
37 37 37 40 38 37 35 34 33 36 40 41 41 41 41 40 39 40 39 41 42 40 33 29 29 29 29 29 29 28 28 29 28 28 25 27 27 26 28 22 21 20 18
35 39 36 35 35 37 36 34 34 33 33 33 38 41 41 41 41 39 39 39 34 38 33 30 29 29 29 29 28 28 27 27 28 27 27 27 26 25 23 22 22 22 20
34 35 37 36 35 36 35 34 33 33 33 33 33 35 38 40 41 41 40 34 33 33 32 31 31 30 29 29 28 27 27 26 26 26 27 26 26 25 26 24 25 28 25
37 39 39 35 35 34 34 33 33 33 33 33 32 33 33 34 33 35 35 33 33 33 32 32 31 30 30 30 29 28 26 28 27 27 26 27 27 27 27 26 25 23 26
36 35 38 35 34 34 34 33 33 33 32 32 33 34 36 32 32 33 34 34 33 34 33 33 32 31 31 30 30 29 28 28 28 28 27 27 27 25 27 27 25 25 25
34 34 33 33 33 33 33 33 33 33 33 32 33 33 37 35 33 32 33 33 34 34 35 34 33 32 32 31 31 30 29 28 28 28 28 27 27 27 27 27 26 25 25
30 31 32 33 33 34 33 33 32 32 32 33 33 33 32 33 33 33 33 33 33 33 33 33 33 33 34 33 33 32 30 30 31 30 28 28 27 27 27 26 26 25 25
28 28 28 29 31 32 32 32 32 33 33 32 32 33 33 33 33 33 33 33 33 33 33 33 33 32 33 33 33 33 33 33 33 31 30 28 28 29 27 27 27 27 26
27 26 26 26 27 28 31 31 31 31 32 32 32 33 33 33 33 33 33 33 33 33 32 33 33 33 32 32 33 32 33 34 33 32 30 30 28 28 28 27 27 26 26
26 26 25 25 24 25 28 28 28 29 29 30 31 31 32 32 33 33 33 33 33 33 33 32 32 32 33 33 33 33 34 34 33 34 32 30 29 28 28 28 27 26 25

GFSGL_sfc_temp_105.txt.gz
Temp
54 52 53 52 52 52 52 51 51 51 52 52 52 52 52 51 52 50 51 51 50 50 53 53 53 54 53 53 52 52 53 53 50 41 43 44 44 45 46 46 47 47 48
50 51 50 49 49 48 48 48 49 48 50 48 49 48 48 48 48 47 47 48 48 49 52 52 51 51 51 51 50 51 50 50 48 41 40 41 42 44 44 44 46 47 47
48 48 47 46 46 46 46 46 47 46 46 48 46 45 45 44 44 44 45 46 47 48 48 50 50 49 49 48 48 47 47 47 46 43 39 42 42 43 42 43 43 42 45
47 46 45 45 45 44 44 45 45 45 46 43 43 43 42 42 42 42 42 43 44 44 45 45 45 46 47 47 46 46 45 45 44 42 41 40 41 42 42 39 37 39 38
46 45 44 43 43 43 43 42 42 42 42 42 41 41 40 41 43 41 41 40 40 40 41 41 42 44 47 47 45 44 43 43 42 41 39 39 36 38 38 37 35 35 34
44 44 44 43 42 42 41 40 41 40 40 40 39 40 39 42 47 48 45 39 39 38 38 38 40 43 45 48 48 47 45 41 39 38 37 37 37 37 36 36 33 32 30
44 43 42 42 41 40 40 40 39 38 38 37 36 37 37 38 46 47 46 39 38 39 38 38 40 42 42 42 44 44 45 46 44 39 38 38 36 37 35 33 33 31 30
43 42 42 41 40 39 39 38 37 36 36 35 37 37 34 38 44 46 45 36 36 38 39 39 39 39 39 39 38 36 36 37 37 39 38 39 37 35 37 33 33 30 30
42 41 42 41 40 39 38 36 36 36 35 35 38 37 35 35 42 45 43 36 35 36 38 39 39 38 40 41 36 34 34 34 42 42 41 42 42 41 37 34 30 30 27
42 42 42 41 40 38 37 36 34 35 35 36 36 37 36 35 41 44 43 38 34 36 36 38 41 39 41 42 35 34 32 32 32 33 31 35 37 39 41 33 32 28 25
43 42 41 40 40 38 36 36 35 33 34 36 36 36 34 37 40 43 44 38 35 34 34 34 36 41 42 43 40 34 34 34 35 29 29 30 30 31 30 30 31 28 24
43 42 41 40 39 38 35 35 34 36 36 36 36 35 35 38 41 42 44 44 40 33 33 34 35 40 42 43 41 39 40 37 29 29 28 27 28 28 28 28 29 29 29
41 40 39 38 37 36 35 35 36 36 36 35 34 34 34 35 35 42 43 44 44 36 34 36 40 40 42 40 42 41 41 30 29 27 27 27 28 28 26 27 28 27 26
39 39 37 37 36 36 37 37 36 35 35 34 33 33 35 33 34 35 36 38 40 39 39 35 38 39 40 36 37 35 31 30 28 27 28 28 27 25 25 25 23 21 22
39 38 37 37 37 36 37 38 36 37 37 34 35 34 34 33 35 38 37 35 34 36 33 31 30 31 32 31 31 31 30 30 28 28 26 26 27 27 26 24 22 22 22
38 38 38 38 36 36 36 36 41 41 41 41 42 39 36 40 41 41 41 41 41 41 32 29 28 30 30 30 30 30 29 31 29 28 28 28 28 27 26 23 22 23 22
35 36 35 38 38 38 36 34 32 37 41 41 42 42 42 41 41 41 40 40 41 40 32 28 28 28 29 29 28 28 28 29 29 28 27 27 26 26 29 24 24 24 23
34 38 33 33 33 35 34 33 34 33 33 34 39 40 41 42 42 41 40 40 35 36 30 31 28 28 28 28 28 28 28 27 28 28 27 27 27 26 26 25 24 24 24
35 33 33 32 34 35 34 34 34 34 33 34 34 36 38 40 41 42 42 36 33 30 31 30 30 29 29 29 28 27 27 26 26 26 27 27 27 26 26 27 25 28 27
36 37 38 35 35 34 34 34 33 33 33 33 33 33 33 34 33 33 35 35 34 32 32 30 30 31 30 29 29 28 26 27 28 27 27 27 27 26 26 26 26 26 28
35 34 36 33 34 34 34 33 33 33 33 33 33 34 37 33 32 33 33 34 34 33 33 31 31 30 31 31 30 29 28 28 27 27 26 26 26 25 27 28 27 27 26
30 33 33 32 32 33 33 33 33 33 33 33 33 33 37 35 33 33 33 34 34 35 35 34 33 33 33 31 31 30 29 29 29 28 28 27 26 27 27 27 27 26 26
28 28 28 30 31 33 32 32 32 32 32 32 32 32 33 32 33 33 33 33 33 33 34 34 33 32 33 33 33 32 31 30 31 30 29 28 27 27 27 26 27 26 25
28 27 27 27 27 28 29 31 31 32 32 32 32 32 32 32 32 32 33 33 33 33 33 33 33 33 33 33 32 33 33 33 33 31 30 28 27 28 27 27 27 27 27
27 26 26 25 25 26 26 27 27 28 30 30 31 30 30 31 32 32 32 33 33 33 33 33 33 33 33 33 33 33 32 33 32 32 31 30 29 29 28 28 27 27 27
27 27 26 26 25 25 25 26 27 27 27 28 28 27 27 29 30 30 31 32 33 33 33 33 33 32 33 33 33 33 34 35 34 34 31 29 29 28 28 28 27 27 27

GFSGL_sfc_temp_108.txt.gz
Temp
54 53 54 53 52 53 52 51 51 51 51 51 51 51 51 50 50 50 50 50 51 51 51 53 53 53 51 51 52 52 53 53 52 42 43 44 45 45 46 47 47 47 50
51 51 50 50 50 49 48 48 49 47 48 48 48 47 46 46 45 46 46 46 46 47 48 50 51 51 49 50 50 50 50 51 49 44 41 42 43 45 45 44 46 48 47
49 48 48 47 47 46 46 46 46 46 45 45 45 44 44 43 43 42 43 43 44 45 45 45 47 47 46 47 48 47 47 47 47 43 40 42 42 44 42 43 43 43 46
46 46 45 45 45 44 44 44 45 45 44 43 43 43 42 41 41 41 41 41 41 42 42 42 41 42 43 46 46 46 46 45 45 43 41 40 41 42 42 39 37 40 39
45 44 43 42 42 42 42 41 42 42 41 42 41 40 40 41 43 41 40 39 39 39 39 40 40 43 46 47 45 44 44 43 43 41 40 39 38 38 38 38 36 35 35
44 42 42 42 41 41 40 40 40 39 39 39 39 39 39 41 47 48 43 39 38 37 37 38 38 42 43 47 48 48 46 42 40 39 38 38 38 38 37 37 34 33 32
43 42 42 41 40 40 39 39 38 38 38 37 36 37 36 37 46 47 45 37 36 36 36 36 39 41 42 42 43 43 44 45 46 41 39 39 38 37 37 34 34 33 33
41 41 41 41 39 39 39 38 36 37 36 36 37 37 35 37 44 46 45 36 35 35 35 36 37 38 39 40 38 37 37 38 39 40 39 40 40 39 39 37 35 32 32
40 40 41 41 39 38 37 36 36 36 34 34 37 38 36 34 42 45 42 37 35 33 36 39 39 38 41 42 36 35 35 35 41 43 42 42 43 42 39 36 33 33 30
41 41 41 41 39 39 37 36 34 36 35 34 36 37 38 35 40 44 43 39 36 35 34 37 40 41 42 43 36 34 33 34 34 35 34 34 35 39 41 33 32 30 25
42 41 41 40 40 39 36 36 36 34 34 35 36 37 36 34 36 43 44 39 36 34 31 32 35 40 42 42 40 34 34 35 36 32 32 30 30 31 31 31 32 26 23
42 41 40 39 39 38 35 36 34 34 34 35 36 34 34 36 40 42 44 44 42 35 34 31 32 40 41 42 41 40 40 39 32 31 30 28 27 26 28 29 30 30 28
41 41 40 39 38 37 36 35 34 35 35 36 35 34 35 36 36 41 43 44 44 37 35 36 40 41 41 40 42 41 41 33 31 30 29 24 28 28 26 26 28 28 27
40 39 38 37 36 35 36 36 35 36 36 34 34 34 35 34 35 36 36 37 41 39 39 35 36 38 40 37 36 36 33 32 30 27 24 25 26 23 25 26 23 23 22
40 39 38 38 38 36 36 36 35 37 36 33 34 34 33 33 35 38 36 34 35 36 36 30 29 29 29 30 30 30 30 31 28 26 26 25 26 26 27 22 23 22 21
38 38 38 37 37 36 35 37 41 41 42 42 42 38 36 39 41 42 42 42 42 42 35 31 27 27 27 29 29 29 29 31 28 28 28 27 26 25 25 24 22 19 20
34 35 35 37 37 38 36 35 34 38 42 42 42 42 42 42 42 42 42 41 42 41 34 31 26 27 27 27 27 27 26 28 27 27 25 25 26 26 28 24 23 22 21
33 37 32 32 32 32 32 33 34 34 33 35 40 41 41 42 41 42 42 41 35 36 32 32 30 27 27 26 27 26 26 25 27 28 27 26 26 26 25 23 25 24 24
36 36 35 32 31 33 33 34 34 34 34 34 34 37 39 40 41 42 42 36 34 33 32 31 29 28 27 26 26 26 27 25 26 27 27 27 26 26 26 27 26 29 28
36 36 37 34 34 34 34 34 33 33 33 33 33 33 34 34 33 33 34 33 33 34 33 32 31 30 29 28 26 27 26 27 27 25 25 27 27 27 27 27 27 25 28
32 33 36 33 33 33 33 33 33 33 32 32 33 34 37 34 33 33 33 33 33 34 33 33 32 31 31 29 29 28 27 28 27 28 27 25 25 25 27 28 28 27 28
29 29 29 30 32 32 33 33 32 32 32 32 33 33 37 34 33 32 33 33 34 34 35 34 33 33 32 31 31 30 30 28 28 28 28 27 27 27 28 27 27 27 26
28 27 27 27 27 30 28 31 31 32 32 32 32 32 32 32 32 32 32 32 33 33 33 33 33 33 33 33 32 31 30 30 30 30 28 28 27 27 27 27 27 26 26
28 27 27 26 26 26 26 27 27 29 30 30 30 31 31 31 31 32 32 32 32 32 33 32 33 33 33 33 32 32 32 32 32 31 31 29 28 29 28 27 27 27 27
28 27 27 26 26 26 26 26 26 26 26 27 28 28 27 28 27 28 27 31 31 32 32 33 33 33 33 33 33 33 33 34 32 32 31 30 28 28 28 27 27 27 27
28 27 27 26 25 25 25 25 24 24 23 26 27 25 24 24 25 24 23 23 23 27 29 30 31 31 33 33 33 33 35 35 34 35 33 31 29 28 28 27 27 28 27

GFSGL_sfc_temp_111.txt.gz
Temp
58 58 59 58 58 58 58 57 57 58 58 58 58 57 56 55 55 56 56 55 55 55 56 57 56 58 56 57 57 57 55 54 52 46 47 47 46 47 48 48 48 50 52
56 56 56 56 57 56 55 55 56 55 55 55 55 53 53 52 53 53 52 52 53 53 53 54 55 54 54 55 55 54 53 52 50 49 44 44 46 47 48 46 47 48 49
54 54 53 53 53 53 53 53 53 53 52 52 52 51 50 49 50 50 50 50 51 51 50 50 50 50 50 51 51 51 51 49 48 45 42 43 43 45 44 44 44 45 47
51 51 51 51 51 51 50 50 50 51 49 49 49 48 47 47 47 47 47 48 48 48 47 47 47 47 48 49 49 49 48 48 47 45 42 41 42 44 44 40 38 41 41
49 49 48 48 48 48 47 47 48 48 47 47 46 46 46 47 46 46 46 46 46 45 45 45 46 46 46 48 48 48 48 47 46 44 41 41 39 39 40 40 37 36 37
48 46 46 46 46 45 45 45 45 45 45 45 45 45 45 46 48 47 45 44 43 43 43 44 44 44 46 47 48 48 48 46 44 42 40 39 40 40 39 38 35 34 34
47 46 46 46 45 44 44 44 43 43 43 41 42 43 43 45 47 47 44 42 41 41 40 41 43 44 44 45 45 44 43 44 45 45 42 42 41 41 39 37 36 38 37
46 45 45 45 44 43 43 42 41 41 39 39 39 39 40 43 46 47 44 41 41 41 41 41 42 43 43 43 42 41 38 39 40 41 41 43 42 42 41 40 39 35 34
44 44 44 44 42 42 41 40 40 40 37 38 40 40 39 41 44 46 43 41 40 40 41 42 42 42 42 43 39 38 37 37 41 43 43 43 43 43 41 38 35 35 32
44 44 44 43 43 42 41 39 37 39 38 39 39 41 40 40 42 44 44 42 41 40 40 41 41 42 43 43 39 39 37 36 36 36 36 37 38 41 41 38 37 34 32
44 44 43 43 42 41 39 38 38 37 38 39 39 40 40 39 41 44 45 42 41 40 39 38 40 41 42 43 42 39 38 38 37 35 34 34 34 35 34 35 37 35 33
44 43 42 42 42 40 39 39 38 38 38 38 39 38 39 39 41 43 44 45 43 39 39 38 38 40 41 42 43 41 41 40 35 34 33 32 32 33 33 33 34 34 36
43 42 42 41 41 40 39 38 38 38 38 38 37 37 38 39 40 42 43 44 45 40 38 39 40 41 41 41 42 42 42 36 34 32 32 31 32 33 31 31 31 31 31
43 42 41 41 40 40 39 39 39 38 38 37 36 36 38 38 39 39 39 40 41 41 41 38 39 40 40 39 39 39 37 37 35 34 33 32 31 31 31 31 30 30 31
41 40 39 39 40 39 39 39 40 41 40 37 37 36 37 37 37 40 38 37 38 38 37 35 34 35 35 36 35 36 36 35 34 34 33 31 31 31 30 30 30 29 30
40 40 39 39 39 37 38 39 42 41 42 42 42 40 38 40 41 42 42 43 43 43 37 34 33 33 33 34 34 34 34 35 33 33 32 32 31 30 30 29 29 29 29
35 36 37 38 38 39 38 37 36 39 42 42 42 42 42 42 42 42 42 42 42 42 35 33 32 32 32 33 33 33 33 33 32 32 32 31 31 30 31 29 28 29 28
36 38 35 35 35 35 35 35 35 35 36 37 41 42 42 42 42 42 42 42 36 38 34 34 32 32 31 32 33 32 32 32 31 31 31 31 30 30 29 29 28 28 28
36 36 36 35 35 36 35 35 35 35 35 35 35 38 39 41 41 41 42 37 35 34 34 33 33 33 33 32 32 32 31 31 30 30 30 30 30 30 29 30 30 30 30
36 36 37 34 33 34 34 34 34 34 34 34 34 34 34 35 33 34 34 34 33 34 34 34 33 33 32 32 32 31 30 30 30 30 30 30 30 30 30 30 30 29 31
32 32 35 33 33 33 33 33 33 32 32 32 33 34 37 34 33 33 33 33 33 33 34 34 34 33 33 32 32 31 30 31 30 30 30 29 29 28 30 31 31 30 31
31 30 30 30 30 31 33 32 32 32 32 32 32 33 36 33 32 32 33 33 33 34 34 34 34 34 33 33 32 32 31 31 31 31 30 29 29 29 30 30 30 30 29
30 30 30 29 29 31 29 30 30 31 31 31 31 32 32 33 32 32 32 33 33 33 33 33 33 33 34 33 33 33 32 32 33 32 30 30 29 30 29 29 29 29 29
30 29 29 29 29 29 28 28 28 29 29 29 29 30 30 30 30 31 32 32 32 32 32 33 33 33 32 33 33 33 33 33 33 32 32 31 30 30 29 29 29 29 29
30 29 28 28 28 27 27 28 28 28 28 28 28 28 28 28 27 27 29 29 28 30 31 31 31 31 32 32 32 33 32 34 33 32 33 32 31 30 29 29 29 29 29
29 28 28 27 26 26 26 25 25 26 25 27 27 27 26 25 26 25 26 26 26 26 26 27 27 25 26 28 29 30 33 34 34 35 33 32 31 31 30 29 29 28 28

GFSGL_sfc_temp_114.txt.gz
Temp
63 64 64 64 64 63 62 61 61 61 62 63 63 63 62 63 64 64 63 63 63 61 62 62 61 62 62 62 61 60 57 58 54 54 55 54 50 53 52 53 52 53 54
61 61 61 60 60 59 59 60 61 61 63 62 62 61 62 62 64 63 61 62 62 61 60 61 60 59 60 59 60 58 56 57 52 51 50 48 49 51 51 49 48 50 51
61 59 58 59 59 58 58 59 60 61 60 61 61 59 58 59 60 61 61 60 60 59 58 58 57 57 56 55 55 53 54 53 53 50 48 46 46 47 45 45 45 45 46
60 59 58 58 58 58 58 58 59 60 59 59 59 58 57 57 57 57 57 57 56 55 54 54 54 54 54 54 54 55 53 52 51 48 46 45 46 46 45 42 40 42 41
58 57 57 57 57 57 57 57 57 58 56 56 55 55 55 55 54 54 54 54 53 52 51 51 51 49 46 50 52 52 50 49 50 47 44 43 42 41 41 40 38 37 38
56 55 54 53 54 54 53 54 55 54 54 54 53 53 53 52 47 49 52 51 50 50 49 50 50 46 48 47 48 47 48 48 45 44 43 41 43 42 40 38 36 35 34
54 53 53 53 52 52 52 52 51 51 51 51 51 52 51 51 48 47 47 49 48 47 46 47 48 49 48 50 48 46 46 44 44 43 42 44 43 44 40 37 37 37 37
53 52 53 53 52 51 51 50 48 48 47 47 46 48 48 49 47 46 45 48 48 47 47 47 48 49 49 47 47 46 46 46 43 42 42 43 44 44 42 40 39 36 35
53 52 52 52 50 51 48 48 48 46 43 43 45 46 47 47 46 46 47 48 47 47 47 48 48 48 45 44 44 41 45 45 43 42 41 42 44 44 42 38 35 35 33
53 53 53 52 51 50 49 47 45 47 42 45 44 46 46 48 45 46 47 49 47 47 47 47 42 45 44 44 44 43 43 44 42 39 38 38 39 41 40 37 37 34 34
52 52 52 52 51 50 48 46 45 44 43 42 44 46 47 48 48 45 46 48 49 47 46 45 46 42 43 43 44 42 42 44 41 40 38 36 37 36 35 36 36 35 34
51 50 50 50 49 48 47 44 47 47 47 45 46 44 47 48 44 44 45 46 46 46 45 45 44 41 42 42 43 43 42 42 42 39 36 36 35 35 35 35 35 36 37
51 50 50 50 49 50 49 46 48 48 48 46 42 44 46 46 48 44 44 45 45 44 42 43 42 41 42 42 42 43 42 43 40 37 36 35 35 35 33 33 34 34 33
47 48 49 49 49 49 48 48 49 47 47 45 43 43 46 45 46 46 45 46 44 44 43 42 41 41 41 42 41 42 43 43 41 39 38 37 36 34 34 35 34 34 34
41 41 41 41 43 43 44 46 47 49 47 45 44 45 44 43 44 45 44 43 44 43 42 39 38 38 36 38 40 41 41 41 39 39 37 36 35 35 34 34 33 32 32
44 42 41 41 40 38 38 39 41 42 42 42 42 41 40 43 43 42 42 42 43 42 38 38 37 36 34 36 39 39 40 39 39 38 37 36 34 33 33 32 32 32 32
41 42 43 43 44 44 41 37 36 39 42 42 42 42 42 41 42 42 42 42 43 43 37 36 34 34 33 33 36 38 37 38 34 35 35 34 34 33 33 32 32 32 31
40 39 40 40 39 40 41 40 40 40 40 41 42 42 43 42 42 42 42 42 38 40 36 36 35 34 34 33 34 36 37 37 35 34 34 33 33 32 32 32 32 31 32
37 38 39 37 37 37 37 37 37 38 39 41 41 40 41 42 42 42 42 37 36 35 36 35 36 35 34 34 36 37 36 35 34 33 33 33 33 32 32 33 33 33 33
36 36 37 35 34 34 34 34 35 35 35 35 35 35 35 36 35 35 35 34 34 34 35 35 35 35 34 34 33 34 34 34 33 33 33 33 33 33 32 32 33 32 32
34 34 35 34 34 34 34 33 33 33 33 33 33 34 37 33 33 33 33 33 34 34 34 34 35 35 35 34 33 33 32 33 33 33 33 33 33 32 33 34 34 33 33
34 33 33 33 33 33 34 34 34 33 33 33 33 33 36 34 33 33 33 33 33 34 34 34 34 34 34 33 33 33 33 33 33 32 32 33 32 33 33 33 33 33 32
35 33 32 32 32 32 32 33 33 33 33 33 33 33 32 33 33 33 33 33 33 33 33 33 33 33 34 34 33 33 32 33 33 33 33 32 31 31 32 32 32 32 32
35 34 33 33 32 33 32 32 32 31 31 31 31 32 32 32 32 32 32 33 33 34 34 33 33 33 33 33 33 33 33 33 33 33 33 32 32 32 31 31 31 31 32
34 34 33 33 31 31 31 31 31 31 30 30 30 30 31 31 30 30 31 31 31 32 32 32 32 31 30 30 31 30 30 33 33 33 33 32 32 32 32 31 31 31 30
34 33 33 32 31 30 29 28 28 28 28 29 29 29 30 29 29 28 28 29 29 30 29 29 29 28 28 29 29 29 32 33 33 33 32 32 32 32 32 31 31 31 31

GFSGL_sfc_temp_117.txt.gz
Temp
62 61 61 62 62 62 62 62 61 61 62 62 62 62 62 61 63 64 63 64 63 61 61 62 61 62 60 60 60 59 57 55 52 55 54 55 54 54 53 53 51 52 53
62 62 62 61 62 61 62 62 62 62 62 62 61 60 60 61 63 63 62 62 62 61 61 61 60 60 59 59 59 58 54 54 51 49 51 50 50 52 52 49 48 50 50
61 63 60 59 61 60 59 59 60 60 60 60 61 60 61 61 62 63 62 62 62 61 60 59 59 58 57 55 54 53 53 52 51 49 48 47 47 47 46 45 46 45 47
58 58 58 58 58 57 58 58 58 58 59 60 60 59 59 60 60 60 60 60 59 58 57 57 57 56 55 55 53 54 52 51 51 50 48 46 45 46 45 43 40 42 41
58 57 57 57 57 56 55 56 57 58 58 58 57 57 57 56 56 56 56 55 54 53 51 53 51 48 47 48 51 51 50 49 48 45 44 44 43 41 41 41 39 38 38
57 55 56 56 56 55 55 55 54 54 54 55 54 54 53 53 50 52 54 52 52 51 50 50 51 46 48 48 48 47 46 46 45 44 42 41 42 42 41 39 36 35 35
54 54 54 55 54 54 54 54 53 52 53 52 52 52 51 49 49 50 51 50 49 47 47 47 48 50 47 50 48 47 46 45 44 43 42 43 42 44 40 37 36 35 36
54 53 54 54 53 53 52 51 50 50 49 49 49 50 49 48 47 47 48 47 48 48 48 48 48 49 48 47 47 45 45 46 44 44 42 42 41 42 42 40 38 36 35
54 53 54 53 51 52 49 48 49 47 46 46 48 48 48 46 46 46 47 48 46 46 48 49 48 48 46 44 44 39 43 44 43 42 42 42 43 44 44 38 34 34 32
54 53 54 53 52 50 50 48 47 46 44 46 46 48 48 47 46 46 47 49 46 47 47 48 44 47 45 44 43 43 38 41 39 38 38 38 39 39 39 36 35 33 33
53 53 52 53 51 51 48 47 46 44 44 45 45 47 47 49 46 46 46 48 48 47 45 44 46 44 44 44 44 42 40 41 41 37 37 36 36 35 34 35 35 34 33
53 52 51 51 50 49 47 46 46 45 45 44 46 46 47 48 46 46 46 46 47 45 44 45 44 43 42 42 42 44 43 42 38 36 35 34 34 34 33 33 33 34 34
53 52 51 51 51 51 49 48 48 48 48 47 45 44 45 47 48 45 45 46 46 43 44 43 44 42 42 42 42 43 43 38 36 34 33 32 32 33 32 33 33 33 32
45 45 46 49 50 51 50 50 50 49 48 47 44 42 46 45 46 46 44 44 45 44 43 41 42 42 42 42 40 40 38 38 36 34 33 33 32 31 30 31 31 33 32
41 40 40 40 41 41 42 44 45 48 46 45 45 45 45 43 44 47 45 44 44 43 42 37 36 35 36 36 36 37 37 36 34 34 33 32 32 31 30 30 29 32 29
46 45 43 42 40 39 38 39 42 42 42 42 42 41 40 42 43 44 44 44 44 44 38 36 36 36 34 34 34 35 36 37 34 34 33 32 31 29 29 31 28 26 26
41 42 43 44 44 44 43 38 36 39 42 42 42 42 42 41 42 42 42 42 43 43 35 35 35 35 34 33 33 34 34 34 32 32 32 31 30 32 32 28 29 26 26
40 39 40 40 39 39 38 38 38 38 38 38 42 42 42 42 42 41 42 42 38 40 36 36 35 35 34 33 33 33 34 34 32 32 31 30 29 29 31 30 28 25 26
39 39 39 37 37 36 35 35 35 36 36 38 40 41 41 43 43 43 43 38 37 36 36 36 36 35 34 34 34 34 34 34 33 32 31 30 30 30 29 29 28 33 31
39 36 37 37 36 34 34 33 33 34 34 34 34 35 36 36 34 35 36 34 35 35 35 35 34 35 34 34 34 34 34 33 33 33 32 33 32 31 29 28 29 28 29
37 36 36 35 35 34 34 33 33 33 32 33 33 34 37 34 33 33 33 33 33 33 33 33 34 34 34 34 33 33 33 33 33 33 32 32 33 31 32 30 29 29 28
37 36 35 34 34 33 33 33 33 34 34 33 33 33 36 33 32 32 32 32 32 33 33 32 33 33 33 33 33 33 32 32 33 32 32 32 32 32 32 32 31 29 28
35 34 34 34 33 33 32 33 32 32 33 33 33 33 33 32 32 32 32 32 32 32 32 32 32 33 33 33 33 32 32 32 33 33 32 32 32 31 31 31 31 30 29
35 35 34 34 34 33 33 32 32 32 31 31 31 32 31 31 31 31 31 31 31 32 32 33 32 31 31 32 33 32 32 32 32 32 32 32 32 32 31 30 30 30 30
35 35 34 34 33 32 32 32 31 31 31 30 30 30 30 31 30 30 30 30 30 30 30 30 29 28 28 29 29 30 30 32 32 31 32 32 31 31 31 31 30 30 29
35 34 33 33 32 31 30 29 29 29 28 29 29 29 29 29 29 28 28 28 27 29 29 28 27 26 25 25 25 27 31 32 31 33 31 29 30 31 31 31 30 30 29